[[{"header":{"parameterUnit":"m.s-1","parameterCategory":1,"la1":30.6,"la2":29.2853,"lo1":-89.7004,"lo2":-87.6739,"dy":0.0162,"dx":0.0183,"nx":112,"ny":82,"refTime":"2024-06-12T00:00:00:Z","depth":0,"parameterNumber":2,"parameterNumberName":"U-component_of_WINDS"},"data":[0.0,0.0,0.0,0.0,0.0,0.0,0.0,0.0,0.0,0.0,0.0,0.0,0.0,0.0,0.0,0.0,0.0,0.0,0.0,0.0,0.0,0.0,0.0,0.0,0.0,0.0,0.0,0.0,0.0,0.0,0.0,0.0,0.0,0.0,0.0,0.0,0.0,0.0,0.0,0.0,0.0,0.0,0.0,0.0,0.0,0.0,0.0,0.0,0.0,0.0,0.0,0.0,0.0,0.0,0.0,0.0,0.0,0.0,0.0,0.0,0.0,0.0,0.0,0.0,0.0,0.0,0.0,0.0,0.0,0.0,0.0,0.0,0.0,0.0,0.0,0.0,0.0,0.0,0.0,0.0,0.0,0.0,0.0,0.0,0.0,0.0,0.0,0.0,0.0,0.0,0.0,1.9559,2.1479,2.2468,2.2124,2.234,2.1478,1.9026,0.0,0.0,0.0,0.0,0.0,0.0,0.0,0.0,0.0,0.0,0.0,0.0,0.0,0.0,0.0,0.0,0.0,0.0,0.0,0.0,0.0,0.0,0.0,0.0,0.0,0.0,0.0,0.0,0.0,0.0,0.0,0.0,0.0,0.0,0.0,0.0,0.0,0.0,0.0,0.0,0.0,0.0,0.0,0.0,0.0,0.0,0.0,0.0,0.0,0.0,0.0,0.0,0.0,0.0,0.0,0.0,0.0,0.0,0.0,0.0,0.0,0.0,0.0,0.0,0.0,0.0,0.0,0.0,0.0,0.0,0.0,0.0,0.0,0.0,0.0,0.0,0.0,0.0,0.0,0.0,0.0,0.0,0.0,0.0,0.0,0.0,0.0,0.0,0.0,0.0,0.0,0.0,0.0,0.0,0.0,0.0,0.0,0.0,0.0,0.0,0.0,0.0,0.0,0.0,1.6024,1.9512,2.1273,2.218,2.2124,2.1552,2.0238,1.7972,0.0,0.0,0.0,0.0,0.0,0.0,0.0,0.0,0.0,0.0,0.0,0.0,0.0,0.0,0.0,0.0,0.0,0.0,0.0,0.0,0.0,0.0,0.0,0.0,0.0,0.0,0.0,0.0,0.0,0.0,0.0,0.0,0.0,0.0,0.0,0.0,0.0,0.0,0.0,0.0,0.0,0.0,0.0,0.0,0.0,0.0,0.0,0.0,0.0,0.0,0.0,0.0,0.0,0.0,0.0,0.0,0.0,0.0,0.0,0.0,0.0,0.0,0.0,0.0,0.0,0.0,0.0,0.0,0.0,0.0,0.0,0.0,0.0,0.0,0.0,0.0,0.0,0.0,0.0,0.0,0.0,0.0,0.0,0.0,0.0,0.0,0.0,0.0,0.0,0.0,0.0,0.0,0.0,0.0,0.0,0.0,0.0,0.0,0.0,0.0,0.0,0.0,0.0,1.5535,1.6693,1.9357,2.0495,2.0969,2.0645,2.0264,1.8996,1.6567,1.5424,0.0,0.0,0.0,0.0,0.0,0.0,0.0,0.0,0.0,0.0,0.0,0.0,0.0,0.0,0.0,0.0,0.0,0.0,0.0,0.0,0.0,0.0,0.0,0.0,0.0,0.0,0.0,0.0,0.0,0.0,0.0,0.0,0.0,0.0,0.0,0.0,0.0,0.0,0.0,0.0,0.0,0.0,0.0,0.0,0.0,0.0,0.0,0.0,0.0,0.0,0.0,0.0,0.0,0.0,0.0,0.0,0.0,0.0,0.0,0.0,0.0,0.0,0.0,0.0,0.0,0.0,0.0,0.0,0.0,0.0,0.0,0.0,0.0,0.0,0.0,0.0,0.0,0.0,0.0,0.0,0.0,0.0,0.0,0.0,0.0,0.0,0.0,0.0,0.0,0.0,0.0,0.0,0.0,0.0,0.0,0.0,0.0,0.0,0.0,0.0,0.0,0.0,1.6621,1.7511,1.8781,1.958,1.979,1.9091,1.8824,1.7551,1.5015,1.3699,0.0,0.0,0.0,0.0,0.0,0.0,0.0,0.0,0.0,0.0,0.0,0.0,0.0,0.0,0.0,0.0,0.0,0.0,0.0,0.0,0.0,0.0,0.0,0.0,0.0,0.0,0.0,0.0,0.0,0.0,0.0,0.0,0.0,0.0,0.0,0.0,0.0,0.0,0.0,0.0,0.0,0.0,0.0,0.0,0.0,0.0,0.0,0.0,0.0,0.0,0.0,0.0,0.0,0.0,0.0,0.0,0.0,0.0,0.0,0.0,0.0,0.0,0.0,0.0,0.0,0.0,0.0,0.0,0.0,0.0,0.0,0.0,0.0,0.0,0.0,0.0,0.0,0.0,0.0,0.0,0.0,0.0,0.0,0.0,0.0,0.0,0.0,0.0,0.0,0.0,0.0,0.0,0.0,0.0,0.0,0.0,0.0,0.0,0.0,0.0,0.0,0.0,1.5849,1.7659,1.7466,1.8753,1.9215,1.8083,1.7254,1.5763,1.3415,1.1839,0.0,0.0,0.0,0.0,0.0,0.0,0.0,0.0,0.0,0.0,0.0,0.0,0.0,0.0,0.0,0.0,0.0,0.0,0.0,0.0,0.0,0.0,0.0,0.0,0.0,0.0,0.0,0.0,0.0,0.0,0.0,0.0,0.0,0.0,0.0,0.0,0.0,0.0,0.0,0.0,0.0,0.0,0.0,0.0,0.0,0.0,0.0,0.0,0.0,0.0,0.0,0.0,0.0,0.0,0.0,0.0,0.0,0.0,0.0,0.0,0.0,0.0,0.0,0.0,0.0,0.0,0.0,0.0,0.0,0.0,0.0,0.0,0.0,0.0,0.0,0.0,0.0,0.0,0.0,0.0,0.0,0.0,0.0,0.0,0.0,0.0,0.0,0.0,0.0,0.0,0.0,0.0,0.0,0.0,0.0,0.0,0.0,0.0,0.0,0.0,0.0,0.0,1.3558,1.4992,0.0,1.6231,1.644,1.5931,1.5296,1.3926,1.157,0.0,0.0,0.0,0.0,0.0,0.0,0.0,0.0,0.0,0.0,0.0,0.0,0.0,0.0,0.0,0.0,0.0,0.0,0.0,0.0,0.0,0.0,0.0,0.0,0.0,0.0,0.0,0.0,0.0,0.0,0.0,0.0,0.0,0.0,0.0,0.0,0.0,0.0,0.0,0.0,0.0,0.0,0.0,0.0,0.0,0.0,0.0,0.0,0.0,0.0,0.0,0.0,0.0,0.0,0.0,0.0,0.0,0.0,0.0,0.0,0.0,0.0,0.0,0.0,0.0,0.0,0.0,0.0,0.0,0.0,0.0,0.0,0.0,0.0,0.0,0.0,0.0,0.0,0.0,0.0,0.0,0.0,0.0,0.0,0.0,0.0,0.0,0.0,0.0,0.0,0.0,0.0,0.0,0.0,0.0,0.0,0.0,0.0,0.0,0.0,0.0,0.0,1.0834,1.2242,1.3456,0.0,1.4361,1.4458,1.4055,1.3399,1.2186,1.0235,0.0,0.0,0.0,0.0,0.0,0.0,0.0,0.0,0.0,0.0,0.0,0.0,0.0,0.0,0.0,0.0,0.0,0.0,0.0,0.0,0.0,0.0,0.0,0.0,0.0,0.0,0.0,0.0,0.0,0.0,0.0,0.0,0.0,0.0,0.0,0.0,0.0,0.0,0.0,0.0,0.0,0.0,0.0,0.0,0.0,0.0,0.0,0.0,0.0,0.0,0.0,0.0,0.0,0.0,0.0,0.0,0.0,0.0,0.0,0.0,0.0,0.0,0.0,0.0,0.0,0.0,0.0,0.0,0.0,0.0,0.0,0.0,0.0,0.0,0.0,0.0,0.0,0.0,0.0,0.0,0.0,0.0,0.0,0.0,0.0,0.0,0.0,0.0,0.0,0.0,0.0,0.0,0.0,0.0,0.0,0.0,0.0,0.0,0.0,0.0,0.0,0.0,1.0251,1.2361,1.3594,1.2657,1.3517,1.3729,1.2653,1.1637,1.0597,0.0,0.0,0.0,0.0,0.0,0.0,0.0,0.0,0.0,0.0,0.0,0.0,0.0,0.0,0.0,0.0,0.0,0.0,0.0,0.0,0.0,0.0,0.0,0.0,0.0,0.0,0.0,0.0,0.0,0.0,0.0,0.0,0.0,0.0,0.0,0.0,0.0,0.0,0.0,0.0,0.0,0.0,0.0,0.0,0.0,0.0,0.0,0.0,0.0,0.0,0.0,0.0,0.0,0.0,0.0,0.0,0.0,0.0,0.0,0.0,0.0,0.0,0.0,0.0,0.0,0.0,0.0,0.0,0.0,0.0,0.0,0.0,0.0,0.0,0.0,0.0,0.0,0.0,0.0,0.0,0.0,0.0,0.0,0.0,0.0,0.0,0.0,0.0,0.0,0.0,0.0,0.0,0.0,0.0,0.0,0.0,0.0,0.0,0.0,0.0,0.0,0.0,0.0,0.9449,1.0799,1.1569,1.091,1.0781,1.0634,1.0289,0.9493,0.8686,0.7984,0.0,0.0,0.0,0.0,0.0,0.0,0.0,0.0,0.0,0.0,0.0,0.0,0.0,0.0,0.0,0.0,0.0,0.0,0.0,0.0,0.0,0.0,0.0,0.0,0.0,0.0,0.0,0.0,0.0,0.0,0.0,0.0,0.0,0.0,0.0,0.0,0.0,0.0,0.0,0.0,0.0,0.0,0.0,0.0,0.0,0.0,0.0,0.0,0.0,0.0,0.0,0.0,0.0,0.0,0.0,0.0,0.0,0.0,0.0,0.0,0.0,0.0,0.0,0.0,0.0,0.0,0.0,0.0,0.0,0.0,0.0,0.0,0.0,0.0,0.0,0.0,0.0,0.0,0.0,0.0,0.0,0.0,0.0,0.0,0.0,0.0,0.0,0.0,0.0,0.0,0.0,0.0,0.0,0.0,0.0,0.0,0.0,0.0,0.0,0.0,0.0,0.0,0.8557,0.9512,1.0121,0.9615,0.924,0.9081,0.9081,0.8341,0.7727,0.7312,0.0,0.0,0.0,0.0,0.0,0.0,0.0,0.0,0.0,0.0,0.0,0.0,0.0,0.0,0.0,0.0,0.0,0.0,0.0,0.0,0.0,0.0,0.0,0.0,0.0,0.0,0.0,0.0,0.0,0.0,0.0,0.0,0.0,0.0,0.0,0.0,0.0,0.0,0.0,0.0,0.0,0.0,0.0,0.0,0.0,0.0,0.0,0.0,0.0,0.0,0.0,0.0,0.0,0.0,0.0,0.0,0.0,0.0,0.0,0.0,0.0,0.0,0.0,0.0,0.0,0.0,0.0,0.0,0.0,0.0,0.0,0.0,0.0,0.0,0.0,0.0,0.0,0.0,0.0,0.0,0.0,0.0,0.0,0.0,0.0,0.0,0.0,0.0,0.0,0.0,0.0,0.0,0.0,0.0,0.0,0.0,0.0,0.0,0.0,0.0,0.0,0.0,0.7645,0.8494,0.8987,0.8496,0.8464,0.8472,0.8472,0.7865,0.7391,0.7188,0.0,0.0,0.0,0.0,0.0,0.0,0.0,0.0,0.0,0.0,0.0,0.0,0.0,0.0,0.0,0.0,0.0,0.0,0.0,0.0,0.0,0.0,0.0,0.0,0.0,0.0,0.0,0.0,0.0,0.0,0.0,0.0,0.0,0.0,0.0,0.0,0.0,0.0,0.0,0.0,0.0,0.0,0.0,0.0,0.0,0.0,0.0,0.0,0.0,0.0,0.0,0.0,0.0,0.0,0.0,0.0,0.0,0.0,0.0,0.0,-0.6048,0.0,0.0,0.0,0.0,0.0,0.0,0.0,0.0,0.0,0.0,0.0,0.0,0.0,0.0,0.0,0.0,0.0,0.0,0.0,0.0,0.0,0.0,0.0,0.0,0.0,0.0,0.0,0.0,0.0,0.0,0.0,0.0,0.0,0.0,0.0,0.0,0.0,0.0,0.0,0.0,0.0,0.6804,0.7149,0.73,0.671,0.67,0.6725,0.6725,0.6603,0.6456,0.6352,0.601,0.0,0.0,0.0,0.0,0.0,0.0,0.0,0.0,0.0,0.0,0.0,0.0,0.0,0.0,0.0,0.0,0.0,0.0,0.0,0.0,0.0,0.0,0.0,0.0,0.0,0.0,0.0,0.0,0.0,0.0,0.0,0.0,0.0,0.0,0.0,0.0,0.0,0.0,0.0,0.0,0.0,0.0,0.0,0.0,0.0,0.0,0.0,0.0,0.0,0.0,0.0,0.0,0.0,0.0,0.0,0.0,0.0,0.0,0.0,0.0,-0.6787,0.0,0.0,0.0,0.0,0.0,0.0,0.0,0.0,0.0,0.0,0.0,0.0,0.0,0.0,0.0,0.0,0.0,0.0,0.0,0.0,0.0,0.0,0.0,0.0,0.0,0.0,0.0,0.0,0.0,0.0,0.0,0.0,0.0,0.0,0.0,0.0,0.0,0.0,0.0,0.0,0.5652,0.5907,0.6058,0.5754,0.5728,0.5873,0.6184,0.5945,0.5874,0.6093,0.5664,0.0,0.0,0.0,0.0,0.0,0.0,0.0,0.0,0.0,0.0,0.0,0.0,0.0,0.0,0.0,0.0,0.0,0.0,0.0,0.0,0.0,0.0,0.0,0.0,0.0,0.0,0.0,0.0,0.0,0.0,0.0,0.0,0.0,0.0,0.0,0.0,0.0,0.0,0.0,0.0,0.0,0.0,0.0,0.0,0.0,0.0,0.0,0.0,0.0,0.0,0.0,0.0,0.0,-1.3514,-1.3761,-1.4097,-1.4103,-1.3841,-1.3242,-1.1254,-0.928,-0.7398,0.0,0.0,0.0,0.0,0.0,0.0,0.0,0.0,0.0,0.0,0.0,0.0,0.0,0.0,0.0,0.0,0.0,0.0,0.0,0.0,0.0,0.0,0.0,0.0,0.0,0.5406,0.5869,0.0,0.0,0.0,0.0,0.0,0.0,0.0,0.0,0.0,0.0,0.0,0.0,0.4533,0.4838,0.5087,0.5005,0.5091,0.5394,0.6007,0.5505,0.5419,0.5965,0.5425,0.5073,0.0,0.0,0.0,0.0,0.0,0.0,0.0,0.0,0.0,0.0,0.0,0.0,0.0,0.0,0.0,0.0,0.0,0.0,0.0,0.0,0.0,0.0,0.0,0.0,0.0,0.0,0.0,0.0,0.0,0.0,0.0,0.0,-0.8255,-0.9171,0.0,0.0,0.0,0.0,0.0,0.0,0.0,0.0,0.0,0.0,0.0,0.0,0.0,0.0,-1.2923,-1.4136,-1.4886,-1.5176,-1.5919,-1.6343,-1.645,-1.6278,-1.624,-1.6294,-1.5451,0.0,-0.9582,-1.0395,0.0,0.0,0.0,0.0,0.0,0.0,0.0,0.0,0.0,0.0,0.0,0.0,0.0,0.0,0.0,0.0,0.0,0.0,0.0,0.0,0.0,0.0,0.6546,0.5522,0.5201,0.5188,0.0,0.6041,0.6344,0.5703,0.0,0.0,0.0,0.0,0.0,0.0,0.0,0.0,0.3937,0.4244,0.4351,0.3884,0.4224,0.4783,0.5351,0.4973,0.4963,0.5535,0.503,0.4662,0.4661,0.5014,0.0,0.0,0.0,0.0,0.0,0.0,0.0,0.0,0.0,0.0,0.0,0.0,0.0,0.0,0.0,0.0,0.0,0.0,0.0,0.0,0.0,0.0,0.0,0.0,0.0,0.0,0.0,0.0,0.0,-0.821,-0.9761,-0.9921,-1.0343,-1.0332,0.0,0.0,0.0,0.0,0.0,0.0,0.0,0.0,0.0,-1.3685,-1.4344,-1.4947,-1.5521,-1.6124,-1.672,-1.7254,-1.7629,-1.8053,-1.8515,-1.835,-1.8245,-1.8159,-1.7833,-1.6271,-1.3894,-1.3052,-1.1434,-0.9518,0.0,0.0,0.0,0.0,0.0,-0.9011,-0.8531,-0.7033,0.0,0.0,0.0,0.0,0.0,0.0,0.0,0.0,0.0,0.0,0.0,0.0,0.0,0.2274,0.2386,0.2716,0.2812,0.3998,0.5021,0.0,0.5524,0.5543,0.4726,0.0,0.0,0.0,0.0,0.4044,0.3559,0.3772,0.388,0.3622,0.3792,0.418,0.4739,0.4418,0.438,0.4937,0.4538,0.4174,0.3994,0.4515,0.4595,0.0,0.0,0.0,0.0,0.0,0.0,0.0,0.0,0.0,0.0,0.0,0.0,0.0,0.0,0.0,0.0,0.0,0.0,0.0,0.0,0.0,0.0,0.0,0.0,0.0,0.0,0.0,0.0,-0.9381,-1.0702,-1.0248,-1.1055,-1.1346,0.0,0.0,0.0,0.0,0.0,0.0,-1.3068,-1.3852,-1.4657,-1.5504,-1.6272,-1.7008,-1.769,-1.7956,-1.8374,-1.896,-1.9009,-1.9332,-1.9847,-1.975,-1.958,-1.935,-1.9209,-1.8587,-1.7471,-1.5314,-1.4129,-1.3618,-1.2844,-1.2567,-1.2547,-1.211,-1.121,-1.0272,-1.0864,-0.9618,-0.7734,-0.7648,0.0,-0.5483,-0.4279,0.0,0.0,0.0,0.0,-0.2911,-0.2755,-0.186,-0.1017,-0.1041,-0.0353,0.0355,0.0615,0.1834,0.3271,0.0,0.5103,0.5191,0.414,0.0,0.0,0.0,0.0,0.3465,0.3341,0.3487,0.3581,0.3581,0.3581,0.384,0.4347,0.3939,0.3851,0.4409,0.4162,0.3881,0.3644,0.4299,0.4438,0.3988,0.0,0.0,0.0,0.0,0.0,0.0,0.0,0.0,0.0,0.0,0.0,0.0,0.0,0.0,0.0,0.0,0.0,0.0,0.0,0.0,0.0,0.0,0.0,0.0,0.0,0.0,0.0,0.0,0.0,-1.0265,-1.1589,0.0,0.0,0.0,0.0,-1.2533,-1.3303,-1.4067,-1.4736,-1.5597,-1.6431,-1.7245,-1.8048,-1.8491,-1.8548,-1.9411,-1.9888,-1.9926,-2.0112,-2.0142,-1.9984,-1.9974,-1.9893,-1.9755,-1.963,-1.9401,-1.8992,-1.7506,-1.6498,-1.5802,-1.5495,-1.5011,-1.4469,-1.4503,-1.3709,-1.2698,-1.3104,-1.2458,-1.1463,-1.1725,-1.1601,-1.0908,-0.834,-0.8256,0.0,0.0,-0.5114,-0.5972,-0.597,-0.5118,-0.4016,-0.3007,-0.2042,-0.1112,-0.0164,0.0054,0.0726,0.0,0.4558,0.4947,0.3832,0.0,0.2876,0.3218,0.3293,0.3313,0.3281,0.349,0.3581,0.3581,0.3581,0.384,0.4347,0.3611,0.339,0.4,0.4029,0.3988,0.3978,0.4502,0.4767,0.4741,0.4775,0.0,0.0,0.0,0.0,0.0,0.0,0.0,0.0,0.0,0.0,0.0,0.0,0.0,0.0,0.0,0.0,0.0,0.0,0.0,0.0,0.0,0.0,0.0,0.0,0.0,0.0,0.0,0.0,-1.1875,-1.3322,0.0,-1.3242,-1.3832,-1.4513,-1.5136,-1.5369,-1.5903,-1.6769,-1.7655,-1.8241,-1.8479,-1.9273,-1.9684,-1.9685,-2.0027,-2.0197,-2.0197,-2.0269,-2.0249,-2.0197,-2.006,-1.9964,-1.9933,-1.9797,-1.9625,-1.9429,-1.8998,-1.8097,-1.6994,-1.7378,-1.6861,-1.5929,-1.6159,-1.5717,-1.5041,-1.5336,-1.5183,-1.4798,-1.4466,-1.3898,-1.3033,-1.1409,-1.0933,-1.062,-0.9052,-0.8018,-0.7429,-0.7548,-0.6629,-0.5626,-0.5328,-0.4338,-0.3322,-0.2973,-0.2914,-0.2674,-0.1779,0.0613,0.2279,0.1771,0.1923,0.2102,0.2014,0.2845,0.3475,0.3475,0.2884,0.2726,0.3499,0.3585,0.3667,0.388,0.3415,0.3197,0.3425,0.3263,0.3216,0.3282,0.3715,0.3839,0.3593,0.4012,0.3944,0.0,0.0,0.0,0.0,0.0,0.0,0.0,0.0,0.0,0.0,0.0,0.0,0.0,0.0,0.0,0.0,0.0,0.0,0.0,0.0,0.0,0.0,0.0,0.0,0.0,0.0,-1.3002,-1.3215,-1.4739,-1.5563,-1.5037,-1.5658,-1.6361,-1.6984,-1.7221,-1.7629,-1.8303,-1.9133,-1.9581,-1.9537,-2.006,-2.0313,-2.0299,-2.0314,-2.0313,-2.0312,-2.0304,-2.0304,-2.0304,-2.0161,-2.0106,-2.0078,-1.9933,-1.9813,-1.9738,-1.9786,-1.9199,-1.8331,-1.871,-1.8324,-1.7573,-1.7656,-1.7507,-1.7338,-1.7535,-1.7432,-1.7121,-1.6684,-1.5899,-1.5005,-1.4106,-1.3425,-1.2797,-1.182,-1.0652,-0.958,-0.9239,-0.8336,-0.7516,-0.7635,-0.6592,-0.5562,-0.5562,-0.5382,-0.5199,-0.5199,-0.2895,-0.0821,-0.0395,0.01,0.0403,0.0291,0.1402,0.2413,0.291,0.2276,0.195,0.233,0.2771,0.3173,0.3585,0.3392,0.3211,0.3088,0.2842,0.2791,0.3025,0.3414,0.3416,0.3033,0.3513,0.3587,0.3238,0.0,0.0,0.0,0.0,0.0,0.0,0.0,0.0,0.0,0.0,0.0,0.0,0.0,0.0,0.0,0.0,0.0,0.0,0.0,0.0,0.0,0.0,0.0,-1.133,-1.2895,-1.4082,-1.4212,-1.574,-1.6789,-1.6777,-1.7503,-1.7974,-1.7974,-1.8768,-1.9234,-1.9234,-1.999,-2.0414,-2.0391,-2.0391,-2.0366,-2.0294,-2.0361,-2.0371,-2.03,-2.0296,-2.0289,-2.03,-2.0292,-2.0292,-2.0285,-2.0087,-2.0012,-1.9984,-1.9869,-1.9802,-1.9778,-1.9525,-1.9423,-1.9388,-1.8986,-1.9147,-1.9568,-1.957,-1.9109,-1.8495,-1.8481,-1.7882,-1.7055,-1.6464,-1.5969,-1.5252,-1.3465,-1.2898,-1.2561,-1.1249,-1.0359,-0.9775,-0.9783,-0.8691,-0.7659,-0.7659,-0.7101,-0.6642,-0.6588,-0.5521,-0.4051,-0.256,-0.228,-0.22,-0.192,-0.1105,0.0,0.148,0.171,0.1308,0.0135,0.1027,0.2235,0.3369,0.3536,0.3392,0.2982,0.2804,0.286,0.3249,0.3612,0.3606,0.3289,0.34,0.3535,0.3668,0.0,0.0,0.0,0.0,0.0,0.0,0.0,0.0,0.0,0.0,0.0,0.0,0.0,0.0,0.0,0.0,0.0,0.0,0.0,0.0,0.0,0.0,-1.4186,-1.4237,-1.4685,-1.5488,-1.6777,-1.791,-1.8593,-1.8594,-1.9306,-1.9809,-1.9843,-2.0025,-2.0157,-2.0209,-2.0424,-2.0515,-2.0477,-2.0475,-2.0438,-2.0366,-2.0383,-2.0394,-2.0381,-2.0376,-2.0376,-2.0376,-2.032,-2.0296,-2.0289,-2.0235,-2.0124,-2.0012,-2.0125,-2.0069,-1.9924,-1.9752,-1.9951,-2.0299,-2.0055,-2.0553,-2.1361,-2.1112,-2.1042,-2.0933,-2.0004,-1.9363,-1.875,-1.7835,-1.7183,-1.6641,-1.6156,-1.5342,-1.4451,-1.3662,-1.2607,-1.1643,-1.1221,-1.0124,-0.9009,-0.8508,-0.7829,-0.7202,-0.6691,-0.6268,-0.5588,-0.4107,-0.3887,-0.383,-0.3761,-0.3517,0.0,-0.1043,-0.0048,0.0374,0.0045,0.0313,0.0626,0.0983,0.1778,0.2236,0.2153,0.2496,0.2733,0.2862,0.3051,0.2985,0.2659,0.2813,0.2859,0.0,0.0,0.0,0.0,0.0,0.0,0.0,0.0,0.0,0.0,0.0,0.0,0.0,0.0,0.0,0.0,0.0,0.0,0.0,0.0,0.0,0.0,-1.49,-1.6161,-1.6932,-1.6719,-1.6991,-1.8379,-1.8984,-1.9434,-1.9805,-2.0271,-2.0563,-2.0605,-2.0564,-2.0563,-2.0605,-2.0605,-2.0585,-2.0541,-2.054,-2.0511,-2.0438,-2.0475,-2.0467,-2.041,-2.0429,-2.0429,-2.0406,-2.0327,-2.0307,0.0,-2.0292,-2.0233,-2.0124,-2.0249,-2.0425,0.0,0.0,0.0,0.0,0.0,-2.1935,-2.2264,-2.2271,-2.2314,-2.2207,-2.1379,-2.0652,-2.0028,-1.9236,-1.8335,-1.7477,-1.6985,-1.6163,-1.5289,-1.4744,-1.3992,-1.3293,-1.2686,-1.1751,-1.0797,-1.0163,-0.9238,-0.8416,-0.8013,0.0,0.0,-0.6013,-0.5316,-0.4893,-0.4912,-0.4682,-0.4065,-0.2941,-0.2027,-0.1098,-0.009,-0.0,-0.0,-0.0,0.0631,0.0,0.0,0.0,0.2696,0.269,0.2766,0.0,0.0,0.0,0.0,0.0,0.0,0.0,0.0,0.4658,0.483,0.0,0.0,0.0,0.0,0.0,0.0,0.0,0.0,0.0,0.0,0.0,0.0,0.0,0.0,0.0,0.0,-1.6345,-1.7576,-1.9219,-1.8789,-1.8574,-1.9355,-1.9453,-1.9746,-2.0527,-2.0605,-2.0644,-2.0742,-2.0742,-2.0781,-2.0879,0.0,0.0,0.0,0.0,-2.0565,-2.0511,-2.0565,-2.054,-2.0425,-2.0484,-2.0462,-2.0425,-2.0357,-2.0322,-2.0311,-2.0308,-2.0315,-2.0308,-2.0404,-2.0916,-2.16,-2.0966,-2.115,-2.1913,-2.3183,-2.3258,0.0,-2.3119,0.0,0.0,-2.2371,-2.1735,-2.0975,-2.0405,-1.9345,-1.8118,-1.7081,-1.6421,-1.5903,-1.5252,-1.5039,-1.4824,-1.4179,-1.3453,-1.2725,-1.2052,-1.0914,-0.9961,-0.9814,-0.9309,-0.8692,-0.7937,-0.6681,-0.5706,-0.5651,-0.5066,-0.453,-0.4329,-0.3899,-0.2752,-0.0496,0.0,0.0,-0.0,-0.0,-0.0,-0.0,0.1505,0.2451,0.2541,0.2527,0.2455,0.2269,0.2213,0.2449,0.303,0.3303,0.3662,0.4051,0.4098,0.4311,0.0,0.0,0.0,0.0,0.0,0.0,0.0,0.0,0.0,0.0,0.0,0.0,0.0,0.0,0.0,-1.7152,-1.82,-1.916,-2.0195,-2.0195,-2.0156,-2.0332,-2.0352,-2.041,-2.0586,-2.0605,-2.0898,-2.1602,-2.1594,-2.1866,-2.2578,-2.1946,0.0,-2.1641,-2.0977,-2.0586,-2.0585,-2.0586,-2.0585,-2.0563,0.0,0.0,-2.0563,-2.0443,-2.0414,-2.0467,-2.0402,-2.0346,-2.0347,-2.1056,-2.1825,-2.2601,-2.3148,-2.3362,-2.3446,-2.425,-2.4361,-2.4062,-2.3726,-2.3392,-2.2996,-2.2361,-2.1845,-2.1321,-2.0518,-2.0078,0.0,-1.9214,-1.8977,-1.866,-1.7706,-1.7068,-1.6469,-1.5475,-1.44,-1.3416,-1.2725,-1.1994,-1.1116,-1.002,-0.971,-0.9406,-0.8692,-0.7883,-0.7069,-0.6475,-0.5764,-0.5202,-0.4948,-0.4275,-0.3329,-0.2066,-0.0759,-0.0,-0.0,-0.0,-0.0,-0.0,0.0345,0.0849,0.1553,0.1582,0.1539,0.1508,0.2219,0.2557,0.2523,0.2867,0.306,0.3154,0.3872,0.4541,0.0,0.0,0.0,0.0,0.0,0.0,0.0,0.0,0.0,0.0,0.0,-1.397,0.0,0.0,-1.6965,-1.8366,-1.9324,-2.0054,-2.0483,-2.0542,-2.0563,-2.0605,-2.0605,-2.0605,-2.0605,-2.0565,-2.0913,-2.1771,-2.1784,-2.2124,-2.3001,-2.2221,-2.1773,-2.1793,-2.0957,-2.0513,-2.0542,-2.0542,-2.0564,-2.0605,-2.0564,-2.0565,-2.0605,-2.0469,-2.0662,-2.1132,-2.1038,-2.1223,-2.1668,-2.2504,-2.3094,-2.3533,-2.437,-2.433,-2.39,-2.4626,-2.478,-2.4572,-2.4043,-2.3746,-2.3498,-2.287,-2.2289,-2.177,-2.1318,-2.0766,-2.0165,-1.9758,-1.9273,-1.8684,-1.7894,-1.7286,-1.6659,-1.5796,-1.5129,-1.4446,-1.3501,-1.2783,-1.1994,-1.1015,-1.0261,-0.971,-0.9361,-0.8738,-0.7996,-0.7235,-0.6524,-0.5836,-0.5192,-0.4401,-0.3652,-0.306,-0.2277,-0.1564,-0.0937,-0.0344,-0.0,-0.0,-0.0,0.0178,0.0639,0.0637,0.0661,0.0642,0.1553,0.2217,0.269,0.2835,0.2985,0.3169,0.3582,0.4129,0.0,0.0,0.0,0.0,0.0,0.0,0.0,0.0,-1.4261,-1.4493,-1.512,-1.5881,-1.683,-1.7576,-1.8353,-1.9282,-2.0016,-2.048,-2.048,-2.048,-2.0508,-2.0543,-2.0563,-2.0563,-2.0563,-2.0511,-2.0906,-2.1957,-2.1971,-2.2314,-2.3218,-2.2411,-2.1867,-2.171,-2.0854,-2.0429,-2.048,-2.048,-2.051,-2.0563,-2.0542,-2.0542,-2.0563,-2.0622,-2.1074,-2.1809,-2.186,-2.239,-2.3209,-2.3856,-2.4204,-2.4416,-2.5053,-2.48,-2.4175,-2.4782,-2.4924,-2.4766,-2.4314,-2.4082,-2.393,-2.3494,-2.2895,-2.2272,-2.2135,-2.1374,-2.0457,-1.9873,-1.909,-1.8282,-1.7653,-1.7105,-1.6655,-1.5952,-1.5676,-1.5309,-1.4365,-1.3548,-1.2773,-1.2101,-1.1007,-1.0167,-1.0012,-0.9562,-0.889,-0.8043,-0.7289,-0.6481,-0.5583,-0.4681,-0.4024,-0.3784,-0.3677,-0.3185,-0.2237,-0.0822,-0.0,-0.0,-0.0,-0.0,-0.0,-0.0,-0.0,-0.0,0.0682,0.1713,0.3031,0.2985,0.312,0.3392,0.3423,0.3727,-1.2284,-1.2491,-1.2692,-1.343,-1.362,-1.4192,0.0,0.0,-1.6235,-1.7014,-1.7313,-1.7697,-1.8645,-1.8899,-1.9236,-2.013,-2.0356,-2.0418,-2.0418,-2.0418,-2.0418,-2.0425,-2.0425,-2.0425,-2.0425,-2.0422,-2.1099,-2.2734,-2.2807,-2.3165,-2.4092,-2.3267,-2.2447,-2.1718,-2.0858,-2.0391,-2.0418,-2.0418,-2.0402,-2.0425,-2.0357,-2.0361,-2.0445,-2.1211,-2.1642,-2.1847,-2.2593,-2.3393,-2.4157,-2.4185,-2.4605,-2.5248,-2.5293,-2.5216,-2.5119,-2.5038,-2.4998,-2.4949,-2.4766,-2.44,-2.3988,-2.393,-2.3541,-2.2954,-2.23,-2.1995,-2.1645,-2.0536,-2.0128,-1.9713,-1.8352,-1.7987,-1.7666,-1.6625,-1.6008,-1.5543,-1.5443,-1.4492,-1.3474,-1.2822,-1.2101,-1.1366,-1.0813,-1.0618,-1.0159,-0.885,-0.8043,-0.7431,-0.6915,-0.577,-0.4797,-0.4344,-0.388,-0.3544,-0.3427,-0.1293,-0.0,-0.0,-0.0,-0.0,-0.0,-0.0,-0.0,-0.0,0.0108,0.111,0.3088,0.3212,0.3286,0.3313,0.349,0.3851,-1.3167,-1.3664,-1.418,-1.5045,-1.5651,-1.6296,-1.7344,-1.7734,-1.7975,-1.8344,-1.8847,-1.9326,-1.9728,-1.9792,-1.9915,0.0,-2.0337,-2.0337,-2.0337,-2.0337,-2.0341,-2.0334,-2.025,-2.0218,-2.0379,-2.0288,-2.0758,-2.2084,-2.2583,-2.323,-2.4133,-2.3817,-2.3179,-2.2246,-2.1442,-2.0772,-2.0237,-2.0297,-2.0357,-2.041,-2.0366,-2.0366,-2.0406,-2.0745,-2.1449,-2.2512,-2.3945,-2.4713,-2.4994,-2.4981,-2.516,-2.5459,-2.5376,-2.5354,-2.5346,-2.5225,-2.5173,-2.5152,-2.4981,-2.4766,-2.4554,-2.4351,-2.4005,-2.3563,-2.2919,-2.2609,-2.2262,-2.1319,-2.0668,-2.0032,-1.9192,-1.8545,-1.7907,-1.7146,-1.6756,-1.6403,-1.5752,-1.5174,-1.4675,-1.4018,-1.3062,-1.2288,-1.1994,-1.1308,-1.0618,-1.0064,-0.9241,-0.8313,-0.7243,-0.6429,-0.5559,-0.4504,-0.3924,-0.3585,-0.3595,-0.2012,-0.0746,-0.0042,-0.0,-0.0,-0.0,-0.0,-0.0,-0.0,-0.0,0.0427,0.1305,0.2664,0.3366,0.3487,0.3551,0.3757,-1.3777,-1.4583,-1.5555,-1.6456,-1.7351,-1.8064,-1.8355,-1.8915,-1.9357,-1.9357,-1.985,-2.0227,-1.9934,-2.0079,-2.0142,-1.9927,-2.0069,-2.025,-2.0289,-2.0257,-2.0215,-2.0222,-2.0022,-2.0002,-2.0255,-2.0164,-2.0493,-2.1506,-2.2334,-2.309,-2.3706,-2.3975,-2.3631,-2.2588,-2.1838,-2.1098,-2.0354,-2.0219,-2.0211,-2.0291,-2.0291,-2.0322,-2.0395,-2.0815,-2.1842,-2.3376,-2.4913,-2.5547,-2.5503,-2.5508,-2.5496,-2.5492,-2.5446,-2.5427,-2.5379,-2.5357,-2.5313,-2.5274,-2.5122,-2.5046,-2.4974,-2.4723,-2.4402,-2.4062,-2.3559,-2.3147,-2.2652,-2.1799,-2.1006,-2.027,-1.957,-1.8849,-1.8185,-1.7666,-1.7435,-1.705,-1.6232,-1.5796,-1.5454,-1.5005,-1.3924,-1.3072,-1.3072,-1.215,-1.1325,-1.1116,-1.0336,-0.924,-0.778,-0.6936,-0.5935,-0.4535,-0.4049,-0.3751,-0.3626,-0.2812,-0.163,-0.0085,-0.0,-0.0,-0.0,-0.0,-0.0,-0.0,-0.0,-0.0,-0.0,0.1963,0.3129,0.3581,0.3622,0.3693,-1.4229,-1.5202,-1.6648,-1.7465,-1.8304,-1.9189,-2.0035,-2.0235,-2.0254,-2.0254,-2.0292,-2.0,-1.9026,-1.9477,-1.9755,-1.8979,-1.9497,-2.0078,-2.0257,-2.0133,-2.0003,-2.0012,-1.9774,-1.9713,0.0,-2.0003,-2.0412,-2.1419,-2.2312,-2.2812,-2.2831,-2.3648,-2.3602,-2.2536,-2.1719,-2.1198,-2.0979,-2.0198,-1.989,-2.0012,-2.0012,-2.0105,-2.0358,-2.2049,-2.3356,-2.4291,-2.5148,-2.5498,-2.5507,-2.5502,-2.5508,-2.5507,-2.5492,-2.5465,-2.5394,-2.5398,-2.5365,-2.5303,-2.5284,-2.5163,-2.501,-2.4998,-2.4747,-2.4407,-2.4081,-2.3605,-2.2937,-2.1819,-2.1258,-2.0649,-1.9273,-1.8893,-1.8727,-1.8224,-1.7666,-1.7312,-1.7271,-1.6361,-1.5576,-1.5588,-1.4584,-1.3768,-1.3768,-1.3228,-1.2618,-1.1873,-1.1212,-1.0301,-0.902,-0.7306,-0.575,-0.4517,-0.4391,-0.4176,-0.3622,-0.3578,-0.2544,-0.0134,-0.0,-0.0,-0.0,-0.0,-0.0,-0.0,-0.0,-0.0,-0.0,0.1247,0.2453,0.3585,0.3721,0.3788,-1.566,-1.6956,-1.8294,-1.8562,-1.9239,-1.9938,-2.0227,-2.0312,-2.0139,-1.9561,-1.9369,-1.9041,-1.8229,-1.8189,-1.8412,-1.8854,-1.9082,-1.9456,-2.02,-2.0584,-2.0642,-2.0246,-2.0402,0.0,0.0,0.0,0.0,-2.048,-2.1717,-2.246,-2.246,-2.3802,-2.4087,-2.3051,-2.2331,-2.162,-2.0872,-2.0164,-1.9813,-1.9869,-1.9963,-2.0106,-2.0331,-2.1507,-2.2501,-2.3364,-2.4291,-2.4982,-2.5447,-2.5477,-2.554,-2.5559,-2.5525,-2.5483,-2.5451,-2.5415,-2.5354,-2.5303,-2.5303,-2.5264,-2.5173,-2.5034,-2.4858,-2.462,-2.4137,-2.3787,-2.3351,-2.2539,-2.2023,-2.1576,-2.0879,-2.0268,-1.9692,-1.9207,-1.8698,-1.8185,-1.7463,-1.7008,-1.6629,-1.6269,-1.5543,-1.4994,-1.4994,-1.4514,-1.3558,-1.1966,-1.0477,-0.9215,-0.8338,-0.7062,-0.605,-0.5653,-0.5216,-0.4783,-0.418,-0.3822,-0.3249,-0.2455,-0.1628,-0.083,-0.0044,-0.0,-0.0,-0.0,-0.0,-0.0,-0.0,0.0403,0.1652,0.3595,0.3784,0.39,-1.7238,-1.831,-1.9177,-1.9466,-1.9915,-2.0312,-2.0312,-2.0062,-1.965,-1.9051,-1.839,-1.7729,-1.7159,-1.677,-1.6923,-1.8212,-1.8387,-1.8892,-2.0507,-2.0957,-2.1132,-2.1119,-2.1256,-2.1243,0.0,0.0,0.0,-2.0367,-2.184,-2.2739,-2.2739,-2.4054,-2.4471,-2.3747,-2.273,-2.1859,-2.1152,-2.0131,-1.9663,-1.9726,-1.9869,-2.0022,-2.0216,-2.1105,-2.1795,-2.2417,-2.3682,-2.449,-2.4962,-2.5324,-2.5498,-2.5539,-2.5505,-2.5508,-2.5486,-2.5453,-2.5396,-2.533,-2.5303,-2.5303,-2.5274,-2.5152,-2.5005,-2.4809,-2.4398,-2.4062,-2.3642,-2.287,-2.238,-2.1984,-2.1505,-2.0846,-2.023,-1.9904,-1.9346,-1.865,-1.7787,-1.7422,-1.7146,-1.6595,-1.5996,-1.5588,-1.5588,-1.4946,-1.3784,-1.1972,-1.0494,-0.9196,-0.8063,-0.7238,-0.6647,-0.6221,-0.5873,-0.5303,-0.4474,-0.4077,-0.3822,-0.3622,-0.286,-0.2099,-0.1299,-0.0447,-0.0,-0.0,-0.0,-0.0,-0.0,-0.0,0.1028,0.2962,0.3604,0.3938,-1.8779,-1.9188,-1.9355,-2.0117,-2.0308,-2.0285,-2.0227,-1.9573,-1.8897,-1.8635,-1.7309,-1.61,0.0,0.0,-1.5357,-1.7066,-1.7443,-1.8427,-2.1122,-2.1268,-2.1455,0.0,0.0,0.0,0.0,0.0,0.0,-2.1167,0.0,-2.3498,-2.3484,-2.4304,-2.4682,-2.4456,-2.2853,-2.1922,-2.1748,-2.0131,-1.9394,-1.9596,-1.9726,-1.9858,-2.0022,-2.0842,-2.1331,-2.1573,-2.3293,-2.4052,-2.4177,-2.5043,-2.5391,-2.5406,-2.5477,-2.5492,-2.5508,-2.5508,-2.547,-2.5391,-2.5321,-2.5293,-2.5303,-2.5303,-2.5163,-2.4974,-2.4855,-2.4433,-2.3853,-2.2928,-2.2409,-2.1995,-2.1274,-2.0715,-2.0348,-2.0348,-1.9636,-1.8803,-1.8224,-1.7706,-1.7146,-1.6595,-1.6051,-1.562,-1.5596,-1.4647,-1.343,-1.201,-1.1267,-1.0196,-0.8198,-0.7912,-0.7496,-0.6349,-0.6221,-0.5782,-0.4609,-0.4478,-0.4264,-0.3667,-0.3622,-0.3633,-0.3612,-0.1343,-0.0045,-0.0,-0.0,-0.0,-0.0,-0.0,0.0582,0.1749,0.3212,0.3933,-1.9156,-1.9658,-2.0111,-2.0312,-2.0334,-2.0104,-1.9347,-1.8896,-1.808,-1.6129,-1.5262,-1.4462,-1.3344,0.0,0.0,-1.626,-1.7062,0.0,-2.1114,-2.1855,0.0,-2.2479,0.0,-2.2863,-2.2224,-2.2653,0.0,0.0,-2.3124,-2.3451,-2.3359,-2.4129,-2.4281,-2.3636,-2.2451,-2.1522,-2.0849,-1.9803,-1.9394,-1.9596,-1.9636,-1.9713,-1.9858,-2.0172,-2.069,-2.1417,-2.2603,-2.3494,-2.4168,-2.4995,-2.5354,-2.5394,-2.5408,-2.5461,-2.5508,-2.5508,-2.5486,-2.5451,-2.5398,-2.5348,-2.5303,-2.5303,-2.5163,-2.4979,-2.4962,-2.4689,-2.4264,-2.3775,-2.3285,-2.2813,-2.2371,-2.177,-2.1197,-2.0878,-2.0366,-1.9585,-1.8366,-1.7987,-1.7626,-1.668,-1.638,-1.6157,-1.5748,-1.4795,-1.3806,-1.302,-1.1795,-1.0352,-0.8724,-0.816,-0.7621,-0.6852,-0.681,-0.6513,-0.5782,-0.5744,-0.5308,-0.4264,-0.4176,-0.4012,-0.3602,-0.2148,-0.0939,-0.0,-0.0,-0.0,-0.0,-0.0,0.0137,0.0516,0.2862,0.4053,-1.9766,-2.0144,-2.0435,-2.0414,-2.0355,-1.9945,-1.8573,-1.7877,-1.6838,-1.456,-1.3362,-1.2597,-1.216,-1.2133,-1.2956,0.0,0.0,0.0,-2.0487,-2.1706,-2.2507,0.0,-2.3535,0.0,-2.3278,-2.3652,-2.3819,0.0,-2.3754,-2.3787,-2.3708,-2.4116,-2.4153,-2.3709,-2.2811,-2.1749,-2.0503,-2.006,-1.9718,-1.9471,-1.9471,-1.955,-1.9732,-1.9847,-2.0219,-2.0813,0.0,-2.309,-2.3629,-2.4812,-2.5312,-2.5354,-2.5354,-2.5402,-2.5411,-2.5054,-2.5176,-2.5434,-2.5046,-2.5104,-2.5348,-2.5303,-2.5224,-2.513,-2.5022,-2.4872,-2.4629,-2.4137,-2.3792,-2.341,-2.2855,-2.2252,-2.1728,-2.1352,-2.0781,-2.0024,-1.8985,-1.8385,-1.7636,-1.6307,-1.5904,-1.5618,-1.5104,-1.4497,-1.3836,-1.3056,-1.2201,-1.1111,-0.957,-0.8707,-0.8028,-0.7447,-0.7154,-0.6768,-0.6264,-0.6184,-0.5696,-0.4474,-0.4387,-0.414,-0.364,-0.246,-0.1251,-0.0045,-0.0,-0.0,-0.0,-0.0,-0.0,0.0048,0.2228,0.3553,-2.0391,-2.0542,-2.0482,-2.0422,-2.0264,-1.9651,-1.7823,-1.6641,-1.5374,-1.3308,-1.1681,-1.0782,-1.1383,-1.1178,-1.1778,-1.4424,0.0,-1.7283,-1.9783,-2.1341,-2.2542,-2.338,-2.4083,-2.4561,-2.47,-2.4716,-2.4639,-2.4478,-2.4303,-2.4209,-2.4247,-2.4247,-2.4173,-2.4043,-2.3272,-2.2152,-2.0686,-2.0668,-2.0262,-1.9455,-1.9455,-1.949,-1.9569,-1.9814,-2.0017,-2.0241,0.0,0.0,-2.3081,-2.4659,-2.5303,-2.5303,-2.5303,-2.5348,-2.5323,-2.461,-2.484,-2.541,-2.4699,-2.4877,-2.5389,-2.5213,-2.5226,-2.5244,-2.4965,-2.4946,-2.4873,-2.4293,-2.4082,-2.3795,-2.2941,-2.2444,-2.2079,-2.1611,-2.099,-2.0299,-1.9728,-1.8615,-1.725,-1.5702,-1.512,-1.4739,-1.4186,-1.4085,-1.3752,-1.2722,-1.2508,-1.1934,-1.056,-0.9451,-0.8553,-0.7953,-0.7363,-0.681,-0.6349,-0.6307,-0.5825,-0.4696,-0.4561,-0.4224,-0.3636,-0.2457,-0.1251,-0.0045,-0.0,-0.0,-0.0,-0.0,-0.0,0.0048,0.1536,0.2936,-2.0566,-2.0542,-2.0482,-2.0422,-1.9773,-1.8672,-1.6867,-1.5497,0.0,-1.1287,-1.0412,-0.9955,-0.9434,-0.9928,-1.1326,-1.4116,-1.5333,-1.7082,-2.0441,-2.1702,-2.2534,0.0,-2.4025,-2.4444,-2.4321,-2.4303,0.0,0.0,0.0,-2.4266,-2.4426,-2.4444,-2.4078,-2.3235,-2.2428,-2.1859,-2.1565,-2.1565,-2.1143,-2.0283,-2.0283,-1.9966,-1.9368,-2.0243,-2.0733,-2.1005,-2.284,0.0,-2.3956,-2.4909,-2.5303,-2.5303,-2.5303,-2.5339,-2.5386,-2.5233,-2.5321,-2.5476,-2.533,-2.5388,-2.5356,-2.4632,-2.4797,-2.5168,-2.4466,-2.4605,-2.4967,-2.486,-2.4425,-2.3804,-2.2992,-2.2709,-2.234,-2.1265,-2.1193,-2.1054,-1.9854,-1.8072,-1.6399,-1.5235,-1.4942,-1.4739,-1.4186,-1.4085,-1.386,-1.3169,-1.2437,-1.1799,-1.1542,-1.0205,-0.8924,-0.7995,-0.7363,-0.6979,-0.6852,-0.6852,-0.6598,-0.5916,-0.5437,-0.4696,-0.3656,-0.2453,-0.1251,-0.0045,-0.0,-0.0,-0.0,-0.0,-0.0,0.005,0.1505,0.3029,-2.0586,-2.0585,-2.0536,-2.0429,-1.9716,-1.8426,-1.6016,-1.454,-1.2881,-1.0046,-0.9311,-0.9081,-0.8846,-0.9599,-1.0752,-1.2269,-1.369,-1.5475,-1.7936,-1.9794,-2.1227,-2.2151,-2.3345,-2.4058,-2.3937,-2.3937,0.0,0.0,0.0,-2.4247,-2.4358,-2.4339,-2.4118,-2.3639,-2.3085,-2.2589,-2.2171,-2.198,-2.1565,-2.0916,-2.0916,-2.0822,-2.0627,-2.1167,-2.1527,-2.1796,-2.3206,0.0,-2.4168,-2.4966,-2.5303,-2.5303,-2.5303,-2.5062,-2.4679,-2.4242,-2.4406,-2.4705,-2.3866,-2.412,-2.4628,-2.3368,-2.3766,-2.4566,-2.3685,-2.364,-2.3839,-2.3732,-2.3479,-2.3048,-2.2315,-2.201,-2.1756,-2.1318,-2.1254,-2.0942,-1.9765,-1.8083,-1.6559,-1.5706,-1.4897,-1.4375,-1.433,-1.3912,-1.3639,-1.3565,-1.2779,-1.2066,-1.1811,-1.0636,-0.9433,-0.8439,-0.7821,-0.7321,-0.7021,-0.6979,-0.6774,-0.6227,-0.5615,-0.4778,-0.3642,-0.2448,-0.1251,-0.0045,-0.0,-0.0,-0.0,-0.0,-0.0,-0.0,0.0705,0.2304,-2.0505,-2.0586,-2.0565,-2.0444,-1.9613,-1.8135,-1.5449,-1.3738,-1.1981,-0.9304,-0.8567,-0.8476,-0.8681,-0.9349,-1.0105,-1.0763,-1.2271,-1.397,-1.5734,-1.8189,-2.0206,-2.1316,-2.2779,0.0,-2.3795,-2.3735,0.0,0.0,0.0,0.0,-2.419,-2.419,-2.419,-2.419,-2.3937,-2.3467,-2.2751,-2.25,-2.2089,-2.1562,-2.1381,-2.1479,-2.1803,-2.1916,-2.2066,-2.2297,-2.3297,0.0,0.0,-2.4764,-2.5139,-2.5303,-2.5303,-2.4909,-2.4254,-2.3443,-2.3705,-2.4205,-2.2582,-2.2984,-2.3959,-2.2516,-2.2898,-2.3753,-2.2821,-2.2791,-2.3006,-2.2659,-2.2683,-2.2576,-2.1646,-2.1425,-2.1496,-2.1701,-2.1456,-2.083,-1.9751,-1.8316,-1.7005,-1.6268,-1.4967,-1.4117,-1.4438,-1.3934,-1.3581,-1.3868,-1.317,-1.2413,-1.1884,-1.096,-0.9992,-0.8999,-0.8275,-0.7704,-0.7231,-0.7063,-0.681,-0.6392,-0.5696,-0.4908,-0.3993,-0.2807,-0.1474,-0.0045,-0.0,-0.0,-0.0,-0.0,-0.0,-0.0,-0.0,0.1623,-2.0297,-2.0543,-2.0585,-2.0511,-1.906,-1.7161,-1.5318,-1.316,-1.0994,-0.9017,-0.8497,-0.8399,-0.8425,-0.8649,-0.9409,-1.1135,-1.2282,-1.3866,-1.651,-1.8923,-2.0786,-2.18,0.0,0.0,-2.4113,-2.3876,0.0,0.0,0.0,0.0,-2.419,-2.419,-2.419,-2.419,-2.417,-2.3959,-2.3584,-2.3563,-2.3145,-2.2391,-2.1652,-2.1479,-2.1803,-2.182,-2.1879,-2.2092,-2.3093,0.0,0.0,-2.4101,-2.4639,-2.5303,-2.5303,-2.5245,-2.5101,-2.4292,-2.4504,-2.4975,-2.3372,-2.3411,-2.4053,-2.3177,-2.2942,-2.2856,-2.1978,-2.2771,-2.3821,-2.2996,-2.3207,-2.3293,-2.157,-2.1829,-2.2566,-2.2583,-2.2051,-2.1248,-2.018,-1.8718,-1.7354,-1.6293,-1.5213,-1.447,-1.4501,-1.4438,-1.4278,-1.3967,-1.3403,-1.274,-1.1909,-1.1282,-1.0552,-0.9518,-0.8513,-0.7878,-0.7829,-0.7314,-0.6979,-0.6937,-0.5905,-0.5275,-0.5125,-0.4031,-0.233,-0.0045,-0.0,-0.0,-0.0,-0.0,-0.0,-0.0,-0.0,0.1625,-1.9606,-2.0152,-2.0585,-2.0513,-1.911,-1.7219,-1.5235,-1.3049,-1.0899,-0.8891,-0.8282,-0.8164,-0.8364,-0.8467,-0.8854,-0.9886,-1.0429,-1.1485,-1.3636,-1.5535,-1.7566,-1.9857,-2.1292,0.0,0.0,0.0,0.0,0.0,0.0,0.0,-2.419,-2.419,-2.419,-2.419,-2.3996,-2.3837,-2.3692,-2.33,-2.2817,-2.2232,-2.1907,-2.166,-2.1553,-2.1715,-2.1881,-2.2025,-2.242,0.0,0.0,-2.3643,-2.4117,-2.4473,-2.5052,-2.4936,-2.4317,-2.3573,-2.3439,-2.3409,-2.1866,-2.1901,-2.259,-2.2357,-2.2225,-2.2205,-2.2386,-2.2915,-2.3366,-2.2977,-2.2674,-2.2274,-2.1441,-2.1451,-2.15,-2.0807,-2.0786,-2.0697,-1.9829,-1.8501,-1.7334,-1.6909,-1.5769,-1.4937,-1.5225,-1.4845,-1.4438,-1.4278,-1.3591,-1.2879,-1.2306,-1.1799,-1.1207,-1.0475,-0.946,-0.8602,-0.7953,-0.7349,-0.6881,-0.6562,-0.5432,-0.4792,-0.4955,-0.3394,-0.242,-0.216,-0.0718,-0.0,-0.0,-0.0,-0.0,-0.0,-0.0,0.1124,-1.888,-1.958,-2.0082,-2.0063,-1.8866,-1.7087,-1.4726,-1.2742,-1.0813,-0.8737,-0.8096,-0.7984,-0.8269,-0.8361,-0.8526,-0.8925,-0.9351,-1.0252,-1.202,-1.3636,-1.5669,-1.8427,0.0,-2.1353,0.0,0.0,0.0,0.0,0.0,0.0,0.0,-2.4036,-2.4094,-2.4208,-2.3976,-2.3795,-2.3692,-2.3141,-2.2586,-2.21,-2.1803,-2.1565,-2.1386,-2.1405,-2.1611,-2.1937,0.0,0.0,0.0,-2.3072,-2.3572,-2.3881,-2.4658,-2.4504,-2.3798,-2.3017,-2.2844,-2.2746,-2.1155,-2.1369,-2.2326,-2.2166,-2.2271,-2.2568,-2.3215,-2.3397,-2.3318,-2.3018,-2.2255,-2.1564,-2.1665,-2.1241,-2.0638,-2.0091,-2.0237,-2.0338,-1.9794,-1.8611,-1.7606,-1.7493,-1.6393,-1.5521,-1.577,-1.5285,-1.4845,-1.469,-1.3998,-1.3323,-1.2742,-1.2162,-1.1579,-1.1057,-1.0254,-0.9319,-0.8242,-0.7426,-0.6755,-0.6221,-0.5216,-0.4709,-0.4877,-0.2898,-0.2014,-0.2521,-0.0854,-0.0,-0.0,-0.0,-0.0,-0.0,0.0933,0.1664,-1.8243,-1.8904,-1.894,-1.8993,-1.8105,-1.647,-1.3654,-1.2082,-1.0616,-0.8544,-0.7997,-0.7941,-0.8077,-0.8267,-0.8467,-0.8681,-0.9697,-1.1098,-1.2843,-1.4591,-1.6356,0.0,0.0,-2.0554,0.0,0.0,0.0,0.0,0.0,0.0,0.0,-2.3714,-2.3876,-2.419,-2.4208,-2.4054,-2.3692,-2.3369,-2.284,-2.21,-2.1216,-2.1031,-2.1368,-2.0785,-2.0978,0.0,0.0,0.0,0.0,-2.2362,-2.3015,-2.3823,-2.4024,-2.411,-2.3976,-2.2976,-2.3217,-2.3822,-2.1933,-2.2508,-2.3936,-2.3146,-2.3463,-2.4193,-2.4339,-2.4331,-2.412,-2.3248,-2.2228,-2.1583,-2.2378,-2.1457,-2.0509,-2.1278,-2.0939,-2.0384,-2.0384,-1.9352,-1.828,-1.7947,-1.7011,-1.6191,-1.5856,-1.5799,-1.5639,-1.5165,-1.4752,-1.4154,-1.3196,-1.2342,-1.1579,-1.1057,-1.0572,-0.9843,-0.8797,-0.7641,-0.6774,-0.6227,-0.561,-0.529,-0.5316,-0.3037,-0.1251,-0.0045,-0.0,-0.0,-0.0,-0.0,-0.0,0.005,0.3044,0.3635,-1.5299,-1.6245,-1.7007,-1.6463,-1.5521,-1.4282,-1.2562,-1.1247,-0.9944,-0.8406,-0.7997,-0.7941,-0.8077,-0.8158,-0.8594,-0.9792,-1.0518,-1.1313,-1.2459,0.0,0.0,-1.7951,-2.0981,-2.2957,0.0,0.0,0.0,0.0,0.0,0.0,0.0,-2.3816,-2.3631,-2.3522,-2.3735,-2.3816,-2.3692,-2.3369,-2.2574,-2.1345,-2.0793,-2.0149,-1.9502,-2.0047,0.0,0.0,0.0,0.0,0.0,-2.2566,-2.3026,-2.2923,-2.4349,-2.4777,-2.4487,-2.3698,-2.3534,-2.3531,-2.2486,-2.2603,-2.3281,-2.3661,-2.3986,-2.4316,-2.4953,-2.5176,-2.5019,-2.4181,-2.3178,-2.2278,-2.1883,-2.1206,-2.0536,-2.0037,-1.9993,-1.9982,-1.9708,-1.8745,-1.7983,-1.8191,-1.7374,-1.6607,-1.6501,-1.6474,-1.6243,-1.5564,-1.5345,-1.4852,-1.3782,-1.3408,-1.2812,-1.1689,-1.1025,-1.0176,-0.8837,-0.799,-0.6981,-0.5653,-0.5,-0.4535,-0.4168,-0.2635,-0.125,-0.0045,-0.0,-0.0,-0.0,-0.0,-0.0,0.0052,0.3069,0.4249,-1.3437,-1.4299,-1.4971,-1.4463,-1.3842,-1.2926,-1.1394,-1.0456,-0.9568,-0.8283,-0.797,-0.7913,-0.8009,-0.8133,-0.8535,-0.9505,-1.0294,-1.1134,0.0,0.0,0.0,-1.8694,0.0,0.0,0.0,0.0,0.0,0.0,0.0,0.0,0.0,-2.3816,-2.35,-2.3021,-2.3061,-2.33,-2.3692,-2.2691,-2.1776,-2.0993,-2.0324,-1.9495,-1.8639,-1.9704,0.0,0.0,0.0,0.0,0.0,-2.2862,-2.3107,-2.2787,-2.3793,-2.4233,-2.4205,-2.3409,-2.3283,-2.3436,-2.3007,-2.3217,-2.3688,-2.4045,-2.4184,-2.4361,-2.5201,-2.5517,-2.5395,-2.4586,-2.3649,-2.2659,-2.1716,-2.1015,-2.035,-1.9669,-1.9574,-1.9578,-1.932,-1.8551,-1.7951,-1.81,-1.7519,-1.6952,-1.6815,-1.6789,-1.6591,-1.5976,-1.5706,-1.5228,-1.4264,-1.3809,-1.3179,-1.2174,-1.1398,-1.0397,-0.9093,-0.8277,-0.7106,-0.5389,-0.4957,-0.4395,-0.3622,-0.2862,-0.1698,-0.0045,-0.0,-0.0,-0.0,-0.0,-0.0,0.0052,0.2522,0.3931,0.0,-1.2847,-1.2881,-1.2814,-1.2697,-1.207,-1.0149,-0.9688,0.0,-0.8148,-0.7899,-0.7914,-0.7959,-0.8209,-0.8398,-0.838,-0.9537,0.0,0.0,-1.4399,0.0,0.0,0.0,0.0,0.0,0.0,0.0,0.0,0.0,0.0,0.0,-2.3714,-2.3414,-2.2797,-2.2277,-2.2513,-2.3559,-2.1567,-2.0683,-2.0883,-1.9778,-1.9059,-1.8672,-1.9775,0.0,0.0,0.0,0.0,0.0,-2.3208,-2.3305,-2.3241,-2.2703,-2.2932,-2.347,-2.2518,-2.2768,-2.3559,-2.3568,-2.4195,-2.492,-2.4351,-2.4218,-2.4418,-2.5178,-2.5441,-2.5328,-2.4583,-2.372,-2.2792,-2.1925,-2.091,-2.01,-2.0021,-1.9619,-1.9261,-1.9271,-1.8753,-1.8191,-1.791,-1.7602,-1.728,-1.6952,-1.6917,-1.6789,-1.6421,-1.5961,-1.5418,-1.4645,-1.3756,-1.3017,-1.2496,-1.1605,-1.0608,-0.9503,-0.8496,-0.7224,-0.5475,-0.5303,-0.4787,-0.3711,-0.3633,-0.2511,-0.018,-0.0047,-0.0,-0.0,-0.0,-0.0,0.0051,0.1407,0.2905,-0.9765,0.0,-1.0734,-1.0122,-0.9783,-0.9446,0.0,-0.8573,-0.8386,-0.7986,-0.7899,-0.8049,-0.8574,-0.8473,-0.8956,-1.0927,0.0,0.0,-1.4676,0.0,0.0,-2.2153,0.0,0.0,0.0,0.0,0.0,0.0,0.0,0.0,0.0,-2.3837,-2.3628,-2.3459,-2.1989,-2.1476,-2.2095,-2.1596,-2.0808,-1.9773,-1.9224,-1.903,-1.916,-2.0289,0.0,0.0,0.0,0.0,-2.307,-2.3854,-2.3843,-2.3353,-2.3963,-2.4231,-2.4244,-2.4006,-2.4062,-2.4244,-2.426,-2.4596,-2.4996,-2.5023,-2.5024,-2.5081,-2.5274,-2.5371,-2.5389,-2.5265,-2.4062,-2.2825,-2.2694,-2.1474,-2.0225,-2.0096,-1.9936,-1.9849,-2.0013,-1.9476,-1.902,-1.9193,-1.8717,-1.8194,-1.7919,-1.7854,-1.7698,-1.7134,-1.6741,-1.6126,-1.5003,-1.4477,-1.3604,-1.2126,-1.1737,-1.1046,-0.9579,-0.8869,-0.7807,-0.6087,-0.5567,-0.4957,-0.4264,-0.384,-0.2906,-0.1403,-0.0487,-0.0,-0.0,-0.0,-0.0,-0.0,0.0379,0.1955,-0.8672,-0.9376,-0.9972,-0.9421,-0.9253,-0.9134,-0.8763,-0.8512,-0.8306,-0.8053,-0.8066,-0.8231,-0.8602,-0.8917,-0.9686,-1.1365,-1.2756,0.0,0.0,0.0,-2.157,0.0,0.0,0.0,0.0,0.0,0.0,0.0,0.0,0.0,0.0,-2.4173,-2.4002,-2.3846,-2.2746,-2.2117,-2.2011,-2.0708,-1.9891,-1.9573,-1.9133,-1.9041,-1.9329,-2.0688,-2.1714,0.0,0.0,0.0,-2.3584,-2.4137,-2.4116,-2.3727,-2.3901,-2.4145,-2.432,-2.395,-2.4042,-2.4375,-2.4461,-2.4723,-2.5034,-2.5224,-2.5303,-2.5197,-2.4753,-2.463,-2.4694,-2.4818,-2.3889,-2.2862,-2.2906,-2.1933,-2.1001,-2.1288,-2.0627,-2.0095,-2.0626,-1.9889,-1.919,-1.9417,-1.904,-1.8626,-1.8413,-1.8436,-1.8246,-1.7574,-1.7199,-1.6496,-1.5168,-1.471,-1.3894,-1.2306,-1.192,-1.1271,-0.9923,-0.9151,-0.8088,-0.667,-0.5776,-0.5043,-0.443,-0.3954,-0.2882,-0.0998,-0.0357,-0.0,-0.0,-0.0,-0.0,-0.0,-0.0,0.1228,-0.857,-0.9356,-1.0025,-0.9574,-0.9703,-0.9802,-0.9278,-0.8991,-0.8746,-0.8537,-0.8623,-0.8765,-0.8917,-0.9794,0.0,0.0,0.0,0.0,-1.992,-2.1152,-2.2281,0.0,0.0,0.0,0.0,0.0,0.0,0.0,0.0,0.0,0.0,-2.4398,-2.4275,-2.4137,-2.3818,-2.3333,-2.262,-2.0088,-1.9108,-1.9734,-1.9326,-1.9303,-1.9642,-2.0973,-2.1972,0.0,0.0,0.0,-2.419,-2.419,-2.419,-2.4135,-2.3456,-2.3602,-2.4116,-2.3437,-2.3621,-2.4228,-2.4426,-2.4708,-2.4998,-2.5192,-2.5168,-2.4936,-2.4208,-2.379,-2.3667,-2.41,-2.355,-2.2881,-2.2963,-2.2438,-2.2031,-2.2675,-2.1462,-2.0365,-2.1119,-2.0167,-1.9193,-1.9276,-1.9115,-1.8904,-1.8753,-1.8805,-1.8628,-1.7902,-1.7461,-1.669,-1.5257,-1.4741,-1.396,-1.2532,-1.2029,-1.1383,-1.0302,-0.9435,-0.8454,-0.7398,-0.6171,-0.5193,-0.4515,-0.4159,-0.2886,-0.0636,-0.0213,-0.0,-0.0,-0.0,-0.0,-0.0,-0.0,0.067,-0.9373,-1.0159,-1.0463,-0.9155,-0.9209,-0.9537,-0.9452,-0.94,-0.9525,-1.0108,-1.0237,-1.0492,-1.1234,-1.1919,-1.2796,0.0,0.0,-1.8996,0.0,0.0,0.0,0.0,0.0,0.0,0.0,0.0,0.0,0.0,0.0,0.0,0.0,-2.3964,-2.3963,-2.4659,-2.3934,-2.3416,-2.3167,-2.2064,-2.0793,-1.9382,-1.9975,-2.0484,-2.0926,-2.1376,-2.2153,0.0,0.0,-2.3896,-2.419,-2.419,-2.419,-2.419,-2.4061,-2.408,-2.419,-2.4061,-2.4098,-2.4228,-2.4426,-2.4654,-2.4855,-2.5005,-2.4599,-2.4121,-2.466,-2.3752,-2.2823,-2.4288,-2.3693,-2.2844,-2.3686,-2.3309,-2.2745,-2.286,-2.2094,-2.1331,-2.1321,-2.0532,-1.9809,-1.9724,-1.9676,-1.9576,-1.9314,-1.9206,-1.8955,-1.8389,-1.7679,-1.6774,-1.5572,-1.4882,-1.3815,-1.209,-1.1847,-1.1404,-1.039,-1.0021,-0.9588,-0.8821,-0.7286,-0.5994,-0.5044,-0.4476,-0.3926,-0.3414,-0.1147,-0.0,-0.0,-0.0,-0.0,-0.0,-0.0,0.0112,-0.8592,-0.942,-1.0037,-0.9568,-1.0292,-1.1205,-1.153,-1.1472,-1.1411,-1.1684,-1.1781,-1.1971,-1.2373,0.0,-1.4412,-1.6841,0.0,0.0,0.0,0.0,0.0,0.0,0.0,0.0,0.0,0.0,0.0,0.0,0.0,0.0,0.0,0.0,-2.3939,-2.4885,-2.4444,-2.395,-2.3412,-2.3399,-2.2402,-2.0436,-2.0888,-2.1001,-2.0855,-2.1627,-2.2116,-2.2393,0.0,-2.361,-2.3937,-2.4132,-2.419,-2.419,-2.419,-2.419,-2.419,-2.419,-2.4266,-2.4375,-2.4461,-2.4623,-2.4818,-2.4864,-2.4315,-2.3601,-2.3434,-2.2504,-2.1652,-2.2417,-2.2925,-2.3449,-2.435,-2.4096,-2.3706,-2.4156,-2.2886,-2.1696,-2.2088,-2.0994,-1.9936,-1.9903,-1.9912,-1.985,-1.965,-1.9582,-1.9327,-1.8716,-1.8096,-1.7249,-1.6018,-1.5228,-1.4196,-1.2671,-1.2079,-1.1516,-1.0725,-1.0321,-0.9667,-0.8611,-0.7498,-0.6549,-0.5841,-0.5169,-0.4636,-0.4301,-0.2266,-0.0775,-0.0,-0.0,-0.0,-0.0,-0.0,-0.0,-0.7975,-0.8752,-0.9639,-1.0242,-1.1188,-1.2248,-1.3303,-1.3208,-1.3018,-1.3467,-1.3649,-1.3734,-1.3756,-1.4547,0.0,-1.9166,-2.0294,0.0,0.0,0.0,0.0,0.0,0.0,0.0,0.0,0.0,0.0,0.0,0.0,0.0,0.0,0.0,-2.3689,-2.4686,-2.4809,-2.4534,-2.3852,-2.4332,-2.3614,-2.1733,-2.1777,-2.1528,-2.1056,-2.1789,-2.2038,-2.1906,-2.2823,-2.3392,-2.3714,-2.4074,-2.419,-2.419,-2.419,-2.419,-2.419,-2.419,-2.4303,-2.4445,-2.4478,-2.4623,-2.4804,-2.4828,-2.4241,-2.3356,-2.2576,-2.1726,-2.1038,-2.1038,-2.2335,-2.3883,-2.4541,-2.4452,-2.4394,-2.52,-2.3788,-2.2367,-2.2813,-2.155,-2.0263,-2.0103,-2.0075,-2.0021,-1.988,-1.9813,-1.9588,-1.8986,-1.8426,-1.7652,-1.6423,-1.5619,-1.4626,-1.3251,-1.2615,-1.2095,-1.1559,-1.0903,-1.0029,-0.8809,-0.7885,-0.7209,-0.6737,-0.602,-0.5235,-0.4535,-0.3337,-0.184,-0.0,-0.0,-0.0,-0.0,-0.0,-0.0,-0.859,-0.9155,-0.9781,-1.0994,-1.0828,-1.1003,-1.3413,-1.3352,-1.344,-1.5673,-1.6152,-1.6181,-1.6315,-1.7144,-1.8466,-2.0377,0.0,0.0,0.0,0.0,0.0,0.0,0.0,0.0,0.0,0.0,0.0,0.0,0.0,0.0,0.0,0.0,0.0,-2.385,-2.461,-2.4948,-2.4891,-2.4818,-2.407,-2.2703,-2.2508,-2.2478,-2.2522,-2.1857,-2.1944,-2.2634,-2.3028,-2.3392,-2.3714,-2.4074,-2.419,-2.419,-2.419,-2.419,-2.419,-2.419,-2.4209,-2.4247,-2.4445,-2.4623,-2.4814,-2.4956,-2.4309,-2.3496,-2.3407,-2.2604,-2.1728,-2.1728,-2.2588,-2.3587,-2.3816,-2.4051,-2.4399,-2.5213,-2.474,-2.3904,-2.3155,-2.2231,-2.1318,-2.0449,-2.0276,-2.0224,-2.0021,-1.989,-1.9663,-1.9243,-1.8555,-1.7701,-1.6618,-1.5948,-1.4916,-1.3285,-1.3536,-1.3581,-1.302,-1.2338,-1.1565,-1.0656,-0.917,-0.8108,-0.7629,-0.6886,-0.5851,-0.4539,-0.4405,-0.2903,-0.0,-0.0,-0.0,-0.0,-0.0,-0.0,-0.7759,-0.853,-0.9555,-1.079,-1.0946,-1.1576,-1.4407,-1.521,-1.5887,-1.7809,-1.7809,-1.7478,-1.7505,0.0,-1.9228,-2.0412,0.0,0.0,0.0,0.0,0.0,0.0,0.0,0.0,0.0,0.0,0.0,0.0,0.0,0.0,0.0,0.0,0.0,-2.3018,-2.382,-2.4044,-2.364,-2.3995,-2.3657,-2.2628,-2.3051,-2.2923,-2.2318,-2.2268,-2.2065,-2.1806,-2.2555,-2.2972,-2.3117,-2.3671,-2.3896,-2.3917,-2.4113,-2.419,-2.419,-2.419,-2.4266,-2.4375,-2.4339,-2.4462,-2.4529,-2.4046,-2.3229,-2.2471,-2.254,-2.1832,-2.1106,-2.1656,-2.2168,-2.2726,-2.3436,-2.4283,-2.5033,-2.539,-2.4871,-2.4079,-2.324,-2.2386,-2.1477,-2.0545,-2.0322,-2.027,-2.0203,-2.0049,-1.9798,-1.9388,-1.8868,-1.8218,-1.7365,-1.6485,-1.5647,-1.475,-1.4264,-1.4048,-1.4144,-1.2913,-1.2071,-1.2064,-1.028,-0.8982,-0.8421,-0.7235,-0.6367,-0.581,-0.4959,-0.3913,-0.279,-0.0893,-0.0,-0.0,-0.0,-0.0,-0.7303,-0.8094,-0.9149,-1.0325,-1.1191,-1.2436,-1.5086,-1.6133,-1.705,-1.8922,-1.8849,-1.8482,-1.8482,0.0,0.0,0.0,0.0,0.0,0.0,0.0,0.0,0.0,0.0,0.0,0.0,0.0,0.0,0.0,0.0,0.0,0.0,0.0,0.0,0.0,-2.2871,-2.3133,-2.2748,-2.3174,-2.3099,-2.2505,-2.3209,-2.305,-2.2131,-2.2382,-2.2125,-2.1593,-2.2375,-2.2695,-2.2746,-2.3414,-2.3774,-2.3876,-2.4113,-2.419,-2.419,-2.419,-2.4284,-2.4393,-2.4321,-2.4393,-2.4381,-2.3571,-2.2827,-2.2251,-2.2049,-2.1306,-2.0613,-2.1216,-2.1678,-2.2159,-2.2932,-2.4006,-2.4996,-2.5376,-2.5041,-2.443,-2.3652,-2.2811,-2.1947,-2.1013,-2.0581,-2.0337,-2.025,-2.0111,-1.9887,-1.9513,-1.9078,-1.8556,-1.7898,-1.7077,-1.6456,-1.6218,-1.5175,-1.4702,-1.5276,-1.3839,-1.2872,-1.2802,-1.1299,-1.0064,-0.9159,-0.7717,-0.6858,-0.6588,-0.5449,-0.4695,-0.448,-0.2454,-0.0949,-0.0,-0.0503,-0.0448,-0.753,-0.7997,-0.8679,-0.975,-1.1481,-1.34,-1.5294,-1.571,-1.639,-1.8809,-1.9308,-1.9323,-1.9308,-1.9323,0.0,0.0,0.0,0.0,0.0,0.0,0.0,0.0,0.0,0.0,0.0,0.0,0.0,0.0,0.0,0.0,0.0,0.0,0.0,0.0,-2.1768,-2.2388,-2.2579,-2.2509,-2.2498,-2.2479,-2.297,-2.2831,-2.2198,-2.2069,-2.2111,-2.2338,-2.2573,-2.2695,-2.2746,-2.3414,-2.3896,-2.419,-2.419,-2.419,-2.419,-2.419,-2.419,-2.4209,-2.4426,-2.4476,-2.4396,-2.371,-2.3393,-2.3114,-2.2253,-2.13,-2.0503,-2.0521,-2.1248,-2.2069,-2.228,-2.3063,-2.4075,-2.5158,-2.5398,-2.5195,-2.4469,-2.3666,-2.2841,-2.1964,-2.1095,-2.0419,-2.014,-2.0088,-1.9991,-1.9656,-1.9151,-1.8628,-1.8168,-1.7625,-1.7358,-1.7477,-1.6291,-1.5737,-1.6376,-1.5342,-1.4168,-1.2918,-1.2199,-1.1216,-0.9865,-0.8455,-0.7343,-0.6642,-0.5873,-0.5171,-0.4536,-0.448,-0.2959,-0.0056,-0.1505,-0.1396,-0.7636,-0.8785,-1.0176,-1.138,-1.3047,-1.4877,-1.6747,-1.7278,-1.7748,-1.9032,-2.0241,-2.0868,-2.0262,-2.0647,0.0,0.0,0.0,0.0,0.0,0.0,0.0,0.0,0.0,0.0,0.0,0.0,0.0,0.0,0.0,0.0,0.0,0.0,0.0,0.0,-2.0979,-2.1309,-2.0992,-2.152,-2.152,-2.0955,-2.1517,-2.2058,-2.2571,-2.2749,-2.2755,-2.259,-2.2463,-2.2426,-2.248,-2.3087,-2.3692,-2.419,-2.419,-2.419,-2.4135,-2.3566,-2.3364,-2.3272,-2.2773,-2.2957,-2.3324,-2.2651,-2.2346,-2.2197,-2.2049,-2.1731,-2.1528,-2.2116,-2.2885,-2.3582,-2.3798,-2.4061,-2.4473,-2.5222,-2.5406,-2.5189,-2.4404,-2.3603,-2.2776,-2.1901,-2.1032,-2.0405,-2.033,-2.0264,-2.0171,-1.9982,-1.9544,-1.8881,-1.7941,-1.7294,-1.7056,-1.7347,-1.6502,-1.6174,-1.6849,-1.5941,-1.4994,-1.4168,-1.311,-1.1697,-0.9865,-0.8908,-0.8072,-0.7396,-0.6637,-0.5928,-0.5222,-0.4721,-0.4061,-0.3125,-0.1451,-0.1566,-0.8199,-0.9511,-1.1033,-1.2572,-1.4267,-1.6056,-1.7957,-1.8496,-1.8702,-1.9198,-2.0354,-2.1125,-2.0594,-2.1216,0.0,0.0,0.0,0.0,0.0,0.0,0.0,0.0,0.0,0.0,0.0,0.0,0.0,0.0,0.0,0.0,0.0,0.0,0.0,0.0,-2.0232,-2.044,-2.0098,-2.0713,-2.0773,-2.0304,-2.091,-2.1488,-2.2043,-2.2553,-2.26,-2.2211,-2.1956,-2.1919,-2.2029,-2.22,-2.2611,-2.3104,-2.3217,-2.3235,-2.318,-2.2703,-2.252,-2.2501,-2.2336,-2.2593,-2.2941,-2.2513,-2.2331,-2.228,-2.2382,-2.2127,-2.1969,-2.2776,-2.3364,-2.3768,-2.3979,-2.4269,-2.4617,-2.5128,-2.5244,-2.5153,-2.4755,-2.377,-2.2809,-2.2308,-2.123,-2.0402,-2.039,-2.0341,-2.0254,-2.0111,-1.9662,-1.8995,-1.8075,-1.7495,-1.7358,-1.7836,-1.695,-1.665,-1.7446,-1.6317,-1.532,-1.4744,-1.3747,-1.2434,-1.0661,-0.9681,-0.8797,-0.8131,-0.7391,-0.6691,-0.5928,-0.5257,-0.4772,-0.4457,-0.2615,-0.2456,-0.8987,-1.0152,-1.1464,-1.3427,-1.5323,-1.7118,-1.8898,-1.9305,-1.9323,-1.9412,0.0,-2.0678,-2.0751,0.0,0.0,0.0,0.0,0.0,0.0,0.0,0.0,0.0,0.0,0.0,0.0,0.0,0.0,0.0,0.0,0.0,0.0,0.0,0.0,-1.932,-1.9619,-1.9797,-1.979,-2.0098,-2.0241,0.0,-2.0823,-2.1009,-2.0897,-2.1753,-2.187,-2.1401,-2.1173,-2.1233,-2.1479,-2.104,-2.1054,-2.1404,-2.1643,-2.1768,-2.175,-2.1694,-2.1729,-2.1894,-2.2556,-2.2868,-2.2997,-2.2997,-2.2997,-2.2997,-2.2997,-2.2483,-2.2061,-2.2795,-2.3052,-2.3161,-2.3314,-2.3919,-2.454,-2.4885,-2.4986,-2.5061,-2.5305,-2.4126,-2.3011,-2.2989,-2.1643,-2.0487,-2.0405,-2.0348,-2.026,-2.0099,-1.9599,-1.9038,-1.8572,-1.809,-1.8052,-1.8722,-1.7565,-1.7093,-1.7951,-1.6515,-1.5363,-1.4744,-1.419,-1.3283,-1.1972,-1.0618,-0.954,-0.8842,-0.8131,-0.745,-0.6696,-0.5977,-0.5261,-0.4594,-0.4508,-0.3735,-0.9058,-1.0597,-1.2262,-1.4362,-1.6796,-1.8791,-1.9201,-1.9305,-1.9516,-2.0303,-2.1232,-2.2116,-2.2731,0.0,0.0,0.0,0.0,0.0,0.0,0.0,0.0,0.0,0.0,0.0,0.0,0.0,0.0,0.0,0.0,0.0,0.0,0.0,0.0,-1.9527,-1.9609,-1.9695,-1.9809,-1.9877,-1.9909,0.0,-2.0153,-2.0134,-1.9935,-2.1125,-2.1294,-2.0625,-2.0365,-2.0448,-2.0726,-2.0622,-2.078,-2.1113,-2.1385,-2.1497,-2.1425,-2.0947,-2.1216,-2.1729,-2.1216,-2.1896,-2.2997,-2.2997,-2.2997,-2.2997,-2.2997,-2.2887,-2.2776,-2.296,-2.3456,-2.3952,-2.4008,-2.4118,-2.4321,-2.454,-2.4804,-2.5022,-2.5072,-2.4438,-2.3645,-2.2975,-2.203,-2.1117,-2.043,-2.0354,-2.0282,-1.9994,-1.9604,-1.936,-1.9406,-1.8913,-1.8643,-1.8856,-1.7708,-1.7028,-1.7281,-1.6307,-1.5386,-1.4721,-1.456,-1.3967,-1.2706,-1.1334,-1.0261,-0.9599,-0.889,-0.8209,-0.745,-0.6745,-0.5977,-0.5265,-0.4739,-0.4307,-0.9542,-1.0989,-1.2702,-1.5579,-1.774,-1.9182,-1.9274,-1.9365,-1.9689,-2.0597,-2.1223,-2.1714,0.0,0.0,0.0,0.0,0.0,0.0,0.0,0.0,0.0,0.0,0.0,0.0,0.0,0.0,0.0,0.0,0.0,0.0,0.0,-1.9305,-1.935,-1.9438,-1.9541,-1.9636,-1.9688,-1.9774,-1.979,-1.979,-1.9869,-1.9809,-1.962,-2.0333,-2.054,-2.0366,-1.9743,-1.9566,-1.9722,-1.9497,-1.9499,-1.9744,-2.053,-2.059,-2.0318,-2.0893,-2.1143,-2.1235,-2.1584,-2.2263,-2.307,-2.3456,-2.3566,-2.3566,-2.3566,-2.3566,-2.3566,-2.3566,-2.3878,-2.419,-2.419,-2.419,-2.4228,-2.4321,-2.4556,-2.4795,-2.4891,-2.44,-2.3821,-2.337,-2.2331,-2.1422,-2.0998,-2.0625,-2.0339,-2.0115,-2.0164,-2.0145,-1.9957,-1.9861,-1.9702,-1.9399,-1.8322,-1.7617,-1.7567,-1.6391,-1.5401,-1.4732,-1.4422,-1.3884,-1.2929,-1.1841,-1.0965,-1.0312,-0.9614,-0.8942,-0.8209,-0.7509,-0.6745,-0.6036,-0.5281,-0.4798,-0.9718,-1.1253,-1.3091,-1.6554,-1.8092,-1.882,-1.9178,-1.9383,-1.9699,-2.0401,-2.0723,0.0,0.0,0.0,0.0,0.0,0.0,0.0,0.0,0.0,0.0,0.0,0.0,0.0,0.0,0.0,0.0,0.0,0.0,0.0,-1.9243,-1.9243,-1.9227,-1.918,-1.9398,-1.9499,-1.9499,-1.9638,-1.9707,-1.9707,-1.9707,-1.9663,-1.9606,-1.9597,-1.9752,-2.0044,-1.9172,-1.8754,-1.868,-1.8275,-1.8125,-1.8256,-1.9409,-1.9471,-1.9146,-2.0895,-2.1183,-2.0924,-2.2465,-2.3107,-2.3327,-2.3988,-2.419,-2.419,-2.419,-2.419,-2.419,-2.419,-2.419,-2.419,-2.419,-2.419,-2.419,-2.419,-2.4339,-2.4512,-2.47,-2.4339,-2.3921,-2.3788,-2.2507,-2.1435,-2.1372,-2.0815,-2.0408,-2.0483,-2.0847,-2.0979,-2.0598,-2.0868,-2.0787,-2.0031,-1.9002,-1.8243,-1.7997,-1.6431,-1.5227,-1.4744,-1.4143,-1.3552,-1.2929,-1.2295,-1.1616,-1.0813,-1.0167,-0.951,-0.8956,-0.8096,-0.7402,-0.675,-0.5923,-0.5218,-0.847,-1.1043,-1.392,-1.6514,-1.7435,-1.7949,-1.8838,-1.9069,-1.9153,0.0,0.0,0.0,0.0,0.0,0.0,0.0,0.0,0.0,0.0,0.0,0.0,0.0,0.0,0.0,0.0,0.0,0.0,0.0,0.0,0.0,-1.9052,-1.9035,-1.8931,-1.8698,-1.8948,-1.9086,-1.9086,-1.9274,-1.938,-1.938,-1.938,-1.9452,-1.9601,-1.9259,-1.9003,-1.8808,-1.844,-1.8151,-1.7946,-1.789,-1.7839,-1.79,-1.8308,-1.8538,-1.8803,-1.9975,-2.0933,-2.1749,-2.2685,-2.3456,-2.4061,-2.4171,-2.419,-2.419,-2.419,-2.419,-2.419,-2.419,-2.419,-2.419,-2.419,-2.419,-2.419,-2.419,-2.4228,-2.4303,-2.4495,-2.4606,-2.4436,-2.369,-2.2291,-2.1082,-2.0566,-2.0383,-2.0527,-2.1161,-2.1174,-2.1324,-2.1951,-2.1907,-2.1429,-2.0286,-1.9195,-1.8243,-1.7491,-1.5865,-1.4833,-1.4721,-1.4143,-1.3552,-1.2929,-1.2822,-1.2147,-1.0813,-1.0167,-0.9762,-0.9666,-0.8355,-0.767,-0.7509,-0.614,-0.5433,-0.8651,-1.1081,-1.3513,-1.5224,-1.6462,-1.7453,-1.8157,-1.8693,-1.9052,-1.9259,0.0,0.0,0.0,0.0,0.0,0.0,0.0,0.0,0.0,0.0,0.0,0.0,0.0,0.0,0.0,0.0,0.0,0.0,0.0,-1.9034,-1.8789,-1.877,-1.8734,-1.8604,-1.8715,-1.877,-1.877,-1.886,-1.8982,-1.9134,-1.9368,-1.9456,-1.9442,-1.9368,-1.9066,-1.8603,-1.831,-1.8057,-1.7811,-1.7811,-1.7811,-1.7867,-1.859,-1.8655,-1.8603,-2.0548,-2.1399,-2.1753,-2.2971,-2.3762,-2.419,-2.419,-2.419,-2.419,-2.419,-2.419,-2.419,-2.419,-2.419,-2.419,-2.419,-2.419,-2.419,-2.419,-2.419,-2.4228,-2.4321,-2.4495,-2.4441,-2.379,-2.3118,-2.2295,-2.117,-2.1415,-2.1692,-2.1494,-2.2138,-2.2602,-2.2429,-2.2659,-2.2156,-2.0395,-1.9508,-1.855,-1.7395,-1.5721,-1.4743,-1.4687,-1.3836,-1.32,-1.2929,-1.2881,-1.2412,-1.1366,-1.0712,-1.0012,-0.9263,-0.8633,-0.8103,-0.767,-0.7009,-0.6524,-0.871,-1.0501,-1.2132,-1.3513,-1.4982,-1.627,-1.6913,0.0,-1.8694,0.0,0.0,0.0,0.0,0.0,0.0,0.0,0.0,0.0,0.0,0.0,0.0,0.0,0.0,0.0,0.0,0.0,0.0,0.0,0.0,-1.877,-1.8508,-1.8489,-1.8469,-1.8391,-1.8469,-1.8489,-1.8489,-1.8566,-1.8734,-1.9001,-1.9308,-1.9398,-1.9305,-1.9456,-1.9209,-1.8697,-1.841,-1.8146,-1.79,-1.7833,-1.7811,-1.7884,-1.868,-1.8672,-1.8471,-2.0824,-2.1572,-2.1621,-2.3172,-2.3917,-2.419,-2.419,-2.419,-2.419,-2.419,-2.419,-2.419,-2.419,-2.419,-2.419,-2.419,-2.419,-2.419,-2.419,-2.419,-2.419,-2.419,-2.4321,-2.4267,-2.375,-2.3701,-2.3298,-2.1981,-2.2397,-2.2746,-2.2262,-2.3152,-2.3674,-2.305,-2.3303,-2.2691,-2.0542,-1.989,-1.898,-1.7409,-1.5959,-1.5005,-1.4698,-1.3705,-1.3065,-1.2929,-1.2881,-1.2461,-1.1566,-1.1065,-1.0218,-0.9061,-0.8857,-0.8533,-0.799,-0.7777,-0.7396,-0.7979,-0.8728,-0.9592,-1.163,-1.2723,-1.3614,0.0,0.0,0.0,0.0,0.0,0.0,0.0,0.0,0.0,0.0,0.0,0.0,0.0,0.0,0.0,0.0,0.0,0.0,0.0,0.0,0.0,0.0,0.0,-1.8508,-1.8229,-1.8229,-1.8103,-1.7856,-1.81,-1.8229,-1.8229,-1.8469,-1.8734,-1.9002,-1.9018,-1.9135,-1.9305,-1.9305,-1.9198,-1.8966,-1.8697,-1.843,-1.8146,-1.7905,-1.7811,-1.7811,-1.7867,-1.8005,-1.8399,-2.0003,-2.0941,-2.1621,-2.3172,-2.3917,-2.419,-2.419,-2.419,-2.419,-2.419,-2.419,-2.419,-2.419,-2.419,-2.419,-2.419,-2.419,-2.419,-2.419,-2.419,-2.419,-2.419,-2.4209,-2.4026,-2.3349,-2.3382,-2.3283,-2.2582,-2.2705,-2.3157,-2.3942,-2.3968,-2.3997,-2.4274,-2.3824,-2.2788,-2.0875,-2.0362,-1.9373,-1.745,-1.6689,-1.5872,-1.4789,-1.4097,-1.3515,-1.2929,-1.2881,-1.2255,-1.0864,-1.0813,-1.0466,-0.9762,-0.9113,-0.8758,-0.8752,-0.8049,-0.767,-0.7305,-0.8139,-0.9011,-1.0329,-1.1887,-1.3259,-1.3851,-1.5314,-1.6747,0.0,0.0,0.0,0.0,0.0,0.0,0.0,0.0,0.0,0.0,0.0,0.0,0.0,0.0,0.0,0.0,0.0,0.0,0.0,0.0,0.0,-1.7949,-1.7949,-1.7905,-1.7811,-1.7883,-1.7949,-1.7949,-1.8208,-1.8469,-1.8752,-1.8914,-1.9119,-1.9305,-1.9305,-1.9259,-1.9182,-1.8771,-1.845,-1.8166,-1.7905,-1.7811,-1.7811,-1.7811,-1.7878,-1.812,-1.9638,-2.0437,-2.1053,-2.2772,-2.3588,-2.3917,-2.4132,-2.419,-2.419,-2.419,-2.419,-2.419,-2.419,-2.4054,-2.3917,-2.4151,-2.4036,-2.3937,-2.4151,-2.419,-2.419,-2.419,-2.419,-2.4174,-2.4072,-2.4189,-2.4087,-2.3277,-2.3866,-2.4343,-2.4051,-2.4452,-2.471,-2.4422,-2.4003,-2.2927,-2.092,-2.0607,-1.9836,-1.7959,-1.7234,-1.6545,-1.5816,-1.4903,-1.4107,-1.3505,-1.3457,-1.2861,-1.1466,-1.1015,-1.0261,-0.9159,-0.891,-0.8804,-0.8804,-0.8533,-0.8626,-0.6809,-0.7538,-0.8364,-0.9295,-1.0698,-1.1926,-1.2388,0.0,0.0,0.0,0.0,0.0,0.0,0.0,0.0,0.0,0.0,0.0,0.0,0.0,0.0,0.0,0.0,0.0,0.0,0.0,0.0,0.0,0.0,0.0,-1.7811,-1.7811,-1.7811,-1.7811,-1.7811,-1.7811,-1.7811,-1.7971,-1.8208,-1.8469,-1.8734,-1.8983,-1.9214,-1.9259,-1.9305,-1.9274,-1.8895,-1.8585,-1.831,-1.7822,-1.7618,-1.7618,-1.7618,-1.7549,-1.7662,-1.937,-2.0142,-2.0604,-2.2404,-2.3323,-2.3753,-2.3976,-2.4113,-2.419,-2.419,-2.419,-2.417,-2.4074,-2.3876,-2.3732,-2.3855,-2.3795,-2.3795,-2.4113,-2.419,-2.419,-2.419,-2.419,-2.4247,-2.4375,-2.4607,-2.4586,-2.3953,-2.4662,-2.5071,-2.4406,-2.4874,-2.5147,-2.4686,-2.4142,-2.3192,-2.1608,-2.1217,-2.0442,-1.8941,-1.8096,-1.7357,-1.6696,-1.5584,-1.4652,-1.3815,-1.3815,-1.3188,-1.1814,-1.1366,-1.0568,-0.9458,-0.9263,-0.9159,-0.9159,-0.9361,-0.9718,0.0,0.0,0.0,0.0,0.0,0.0,-1.0288,0.0,0.0,0.0,0.0,0.0,0.0,0.0,0.0,0.0,0.0,0.0,0.0,0.0,0.0,0.0,0.0,0.0,0.0,0.0,0.0,0.0,0.0,-1.7811,-1.7811,-1.7811,-1.7811,-1.7811,-1.7811,-1.7811,-1.7811,-1.7811,-1.7927,-1.8208,-1.8469,-1.8734,-1.9002,-1.9196,-1.9289,-1.9274,-1.9067,-1.8861,-1.8528,-1.7682,-1.732,-1.7296,-1.732,-1.7101,-1.7052,-1.9202,-2.0001,-2.0237,-2.2082,-2.31,-2.3635,-2.3656,-2.3862,-2.4116,-2.4153,-2.4153,-2.4095,-2.3795,-2.3692,-2.361,-2.3282,-2.3437,-2.3795,-2.4113,-2.419,-2.419,-2.419,-2.419,-2.4209,-2.4209,-2.4528,-2.4731,-2.4526,-2.493,-2.5245,-2.512,-2.52,-2.5249,-2.5113,-2.4359,-2.3573,-2.2975,-2.2133,-2.1258,-2.0307,-1.9388,-1.8341,-1.7236,-1.6188,-1.5129,-1.3909,-1.3862,-1.3226,-1.1913,-1.1864,-1.1516,-1.0813,-1.0167,-0.9814,-0.9865,-1.0517,-1.0813,-0.6805,0.0,0.0,0.0,0.0,0.0,0.0,0.0,0.0,0.0,0.0,0.0,0.0,0.0,0.0,0.0,0.0,0.0,0.0,0.0,0.0,0.0,0.0,0.0,0.0,0.0,0.0,0.0,-1.7992,-1.7811,-1.7811,-1.7811,-1.7811,-1.7811,-1.7811,-1.7811,-1.7811,-1.7811,-1.7927,-1.8208,-1.8469,-1.8641,-1.8716,-1.9132,-1.923,-1.9086,-1.9018,-1.8861,-1.8566,-1.8128,-1.7698,-1.732,-1.7572,-1.7313,-1.7052,-1.9202,-1.9866,-1.9939,-2.1979,-2.2457,-2.2242,-2.2679,-2.2526,-2.2335,-2.3088,-2.3327,-2.3381,-2.3632,-2.3522,-2.3323,-2.3212,-2.3437,-2.3795,-2.4113,-2.419,-2.419,-2.419,-2.4321,-2.4428,-2.4428,-2.4623,-2.4731,-2.4526,-2.493,-2.5215,-2.4927,-2.5168,-2.5312,-2.5122,-2.4602,-2.3876,-2.3003,-2.2599,-2.1955,-2.0879,-2.0187,-1.9394,-1.8379,-1.7396,-1.6305,-1.5129,-1.5084,-1.4527,-1.3283,-1.2783,-1.219,-1.1516,-1.0864,-1.0517,-1.0517,-1.1216,-1.1266,-0.7233,-0.7425,-0.7753,0.0,0.0,0.0,0.0,-0.9745,0.0,0.0,0.0,0.0,0.0,0.0,0.0,0.0,0.0,0.0,0.0,0.0,0.0,0.0,0.0,0.0,0.0,0.0,0.0,-1.8187,-1.7949,-1.7811,-1.7811,-1.7811,-1.7811,-1.7811,-1.7811,-1.7839,-1.7971,-1.7856,-1.7927,-1.8208,-1.8351,-1.843,-1.845,-1.8842,-1.9017,-1.9002,-1.9002,-1.8914,-1.8752,-1.8469,-1.7876,-1.7101,-1.715,-1.685,-1.6615,-1.8451,-1.8913,-1.8898,-2.0726,-2.1174,-2.1018,-2.1626,-2.1648,-2.1532,-2.2282,-2.2429,-2.2354,-2.2491,-2.2458,-2.2387,-2.2498,-2.3005,-2.3566,-2.3917,-2.4094,-2.4228,-2.4303,-2.4428,-2.4495,-2.4495,-2.4712,-2.4795,-2.4543,-2.493,-2.5184,-2.486,-2.5129,-2.5347,-2.5191,-2.4801,-2.4253,-2.3555,-2.3099,-2.2505,-2.1782,-2.0958,-2.0242,-1.9662,-1.8574,-1.7491,-1.6561,-1.6139,-1.5463,-1.4505,-1.3914,-1.3263,-1.2638,-1.1657,-1.1375,-1.1692,-1.2089,-1.2039,-0.8018,-0.7975,-0.8243,0.0,0.0,0.0,-0.8743,-0.9171,-0.9495,0.0,0.0,0.0,0.0,0.0,0.0,0.0,0.0,0.0,0.0,0.0,0.0,0.0,0.0,0.0,0.0,-1.8049,-1.7924,-1.7924,-1.7688,-1.7574,-1.7574,-1.7642,-1.7693,-1.7693,-1.776,-1.7927,-1.8187,-1.7927,-1.7927,-1.8187,-1.8187,-1.8187,-1.8166,-1.8469,-1.8715,-1.8914,-1.8966,-1.8966,-1.8896,-1.8642,-1.7864,-1.6825,-1.6528,-1.6163,-1.596,-1.7365,-1.7702,-1.76,-1.8974,-1.962,-1.9938,-2.049,-2.0856,-2.1113,-2.1461,-2.1407,-2.12,-2.1022,-2.1101,-2.1283,-2.1633,-2.2439,-2.3236,-2.361,-2.3917,-2.4209,-2.4444,-2.4528,-2.4545,-2.4559,-2.479,-2.4911,-2.4604,-2.4975,-2.5182,-2.4869,-2.5151,-2.5393,-2.5311,-2.5001,-2.4651,-2.4332,-2.3585,-2.2994,-2.2729,-2.1624,-2.091,-2.0815,-1.9642,-1.8645,-1.7946,-1.7113,-1.6353,-1.5592,-1.5028,-1.4422,-1.3909,-1.2648,-1.2325,-1.2881,-1.2881,-1.2881,-1.0033,-1.0017,-0.9937,-0.9492,0.0,0.0,-0.8537,-0.8896,-0.9468,0.0,0.0,0.0,0.0,0.0,0.0,0.0,0.0,0.0,0.0,0.0,0.0,0.0,0.0,0.0,0.0,-1.6138,-1.6098,-1.6098,-1.6075,-1.6035,-1.6035,-1.6576,-1.6919,-1.6919,-1.749,-1.7927,-1.8187,-1.7927,-1.7927,-1.8187,-1.8187,-1.81,-1.7883,-1.8371,-1.8508,-1.8371,-1.8807,-1.8752,-1.8351,-1.8241,-1.7752,-1.7125,-1.7118,-1.6565,-1.596,-1.7365,-1.7702,-1.7572,-1.8708,-1.8936,-1.8785,-1.91,-1.9026,-1.9012,-1.9909,-2.0164,-2.0294,-2.1202,-2.1343,-2.1402,-2.2255,-2.2625,-2.2947,-2.3566,-2.3753,-2.3939,-2.4391,-2.4623,-2.4771,-2.4885,-2.4962,-2.4986,-2.4905,-2.513,-2.5214,-2.5005,-2.5252,-2.5469,-2.5391,-2.5227,-2.4908,-2.4426,-2.4043,-2.3487,-2.2754,-2.219,-2.154,-2.0846,-2.0242,-1.9516,-1.8622,-1.8422,-1.7678,-1.6237,-1.5219,-1.4652,-1.4514,-1.3758,-1.3218,-1.2881,-1.2881,-1.2881,-1.0958,-1.0747,-1.0648,-1.0289,0.0,0.0,0.0,-0.8952,-0.9189,-0.9479,0.0,0.0,0.0,0.0,0.0,0.0,0.0,0.0,0.0,0.0,0.0,0.0,0.0,0.0,0.0,-1.5595,-1.5634,-1.5733,-1.5654,-1.5654,-1.5733,-1.5993,-1.6326,-1.6699,-1.705,-1.7574,-1.8187,-1.7927,-1.7927,-1.8187,-1.8061,-1.7927,-1.7811,-1.8078,-1.8208,-1.8229,-1.8641,-1.8659,-1.841,-1.8358,-1.7898,-1.7181,-1.6919,-1.6378,-1.5901,-1.6589,-1.674,-1.6701,-1.7424,-1.7534,-1.7442,-1.8057,-1.8104,-1.8117,-1.8949,-1.9112,-1.9175,-2.0033,-2.0432,-2.0823,-2.1721,-2.2306,-2.2822,-2.3346,-2.3566,-2.386,-2.4391,-2.4654,-2.4842,-2.4974,-2.5088,-2.5111,-2.5022,-2.5163,-2.5224,-2.5034,-2.529,-2.5472,-2.54,-2.5364,-2.5197,-2.4778,-2.4467,-2.4045,-2.3396,-2.2867,-2.2321,-2.1769,-2.1207,-2.0701,-2.0239,-1.9561,-1.8565,-1.7259,-1.6705,-1.6108,-1.5564,-1.5241,-1.4481,-1.3334,-1.3065,-1.2881,0.0,0.0,0.0,0.0,0.0,-1.0288,0.0,0.0,0.0,-0.9458,0.0,0.0,0.0,0.0,0.0,0.0,0.0,0.0,0.0,0.0,0.0,0.0,0.0,0.0,0.0,-1.4992,-1.5117,-1.5435,-1.5151,-1.5097,-1.5435,-1.5541,-1.5866,-1.6479,-1.6766,-1.7335,-1.8187,-1.7927,-1.7927,-1.8187,-1.7927,-1.7811,-1.7811,-1.7811,-1.7927,-1.8125,-1.841,-1.8489,-1.845,-1.8508,-1.8013,-1.7149,-1.6602,-1.6108,-1.5668,-1.577,-1.5741,-1.5726,-1.608,-1.6246,-1.6405,-1.7182,-1.7512,-1.7732,-1.8293,-1.829,-1.825,-1.8931,-1.9529,-2.0204,-2.116,-2.2002,-2.2712,-2.3117,-2.3414,-2.378,-2.4373,-2.4654,-2.4842,-2.4974,-2.5163,-2.5253,-2.5088,-2.5184,-2.5244,-2.5113,-2.5313,-2.5492,-2.5439,-2.5475,-2.5401,-2.5146,-2.4846,-2.4482,-2.4044,-2.3494,-2.3041,-2.2703,-2.213,-2.1744,-2.1628,-2.0387,-1.9302,-1.8391,-1.8274,-1.7746,-1.6718,-1.6519,-1.5552,-1.3956,-1.3324,-1.3065,0.0,0.0,0.0,0.0,-1.2045,0.0,0.0,0.0,-0.9618,-0.8744,0.0,0.0,0.0,0.0,0.0,0.0,0.0,0.0,0.0,0.0,0.0,0.0,0.0,0.0,0.0,0.0,-1.3137,-1.3809,-1.3119,-1.3019,-1.3826,-1.498,-1.5629,-1.5714,-1.6999,-1.7842,-1.8187,-1.7927,-1.7927,-1.8187,-1.7927,-1.7811,-1.7811,-1.7811,-1.7811,-1.7878,-1.8125,-1.8103,-1.7905,-1.8146,-1.7876,-1.7256,-1.6892,-1.609,-1.5225,-1.5639,-1.5551,-1.5255,-1.5697,-1.6067,-1.6328,-1.6405,-1.686,-1.7399,-1.7794,-1.7861,-1.8121,-1.9502,-1.9934,-2.0339,-2.1803,-2.2271,-2.248,-2.3063,-2.3212,-2.3486,-2.4319,-2.4654,-2.4842,-2.4974,-2.5163,-2.5284,-2.5264,-2.5274,-2.5303,-2.5348,-2.5434,-2.5511,-2.5579,-2.5533,-2.5424,-2.5212,-2.5041,-2.47,-2.4045,-2.3931,-2.3548,-2.2754,-2.2617,-2.2296,-2.1612,-2.0669,-1.9913,-1.9426,-1.8956,-1.8464,-1.7894,-1.6886,-1.5784,-1.456,-1.3967,-1.3684,0.0,0.0,0.0,0.0,0.0,0.0,-0.997,0.0,-0.9347,0.0,0.0,0.0,0.0,0.0,0.0,0.0,0.0,0.0,0.0,0.0,0.0,0.0,0.0,0.0,0.0,0.0,0.0,0.0,0.0,-1.2577,-1.2941,-1.3902,-1.4792,-1.5578,-1.6204,-1.6995,-1.7971,-1.7856,-1.7856,-1.7971,-1.7839,-1.7811,-1.7811,-1.7811,-1.7811,-1.7811,-1.8082,-1.8057,-1.7833,-1.8082,-1.7832,-1.7272,-1.6926,-1.6239,-1.5389,-1.5389,-1.5255,-1.5134,-1.5329,-1.5653,-1.6039,-1.6246,-1.6617,-1.7043,-1.7191,-1.7361,-1.7826,-1.9293,-1.9857,-2.0356,-2.1904,-2.231,-2.2443,-2.3063,-2.3189,-2.3414,-2.4173,-2.4478,-2.4685,-2.485,-2.5018,-2.5163,-2.5274,-2.5303,-2.5303,-2.5339,-2.5434,-2.5503,-2.5543,-2.5546,-2.552,-2.5399,-2.529,-2.5056,-2.461,-2.4325,-2.3971,-2.3484,-2.2968,-2.2378,-2.1642,-2.1227,-2.083,-2.0418,-2.0184,-1.9823,-1.933,-1.8612,-1.7863,-1.7031,-1.5161,-1.4329,-1.3446,0.0,0.0,0.0,0.0,0.0,0.0,0.0,0.0,0.0,0.0,0.0,0.0,0.0,0.0,0.0,0.0,0.0,0.0,0.0,0.0,0.0,0.0,0.0,0.0,0.0,0.0,0.0,0.0,0.0,-1.2474,-1.3158,-1.4195,-1.5544,-1.5798,-1.6509,-1.7794,-1.7811,-1.7811,-1.7811,-1.7811,-1.7811,-1.7811,-1.7811,-1.7811,-1.7811,-1.8014,-1.7992,-1.7811,-1.8014,-1.7827,-1.7392,-1.6968,-1.6385,-1.5706,-1.5271,-1.5043,-1.4937,-1.4937,-1.5225,-1.5653,-1.5994,-1.6351,-1.6686,-1.6763,-1.6952,-1.7494,-1.9069,-1.9667,-2.0236,-2.1894,-2.231,-2.2443,-2.3063,-2.3117,-2.3253,-2.3917,-2.4211,-2.4422,-2.4629,-2.4839,-2.5057,-2.5264,-2.5303,-2.5322,-2.5312,-2.5421,-2.5517,-2.5535,-2.5566,-2.5573,-2.5539,-2.5453,-2.5288,-2.5053,-2.4667,-2.4276,-2.3929,-2.3159,-2.2459,-2.1903,-2.1836,-2.1598,-2.1181,-2.115,-2.0927,-2.0438,-1.9963,-1.9561,-1.9134,-1.6418,-1.5186,0.0,0.0,0.0,-1.1705,0.0,0.0,0.0,0.0,-1.0998,0.0,0.0,0.0,0.0,0.0,-1.0678,-0.9632,0.0,0.0,0.0,0.0,0.0,0.0,0.0,0.0,0.0,0.0,0.0,0.0,0.0,0.0,-1.2422,-1.3085,-1.4074,-1.5544,-1.6292,-1.7016,-1.7772,-1.7811,-1.7811,-1.7811,-1.7811,-1.7811,-1.7811,-1.7811,-1.7811,-1.7811,-1.7811,-1.7811,-1.7811,-1.7811,-1.7811,-1.7704,-1.7068,-1.6533,-1.6095,-1.536,-1.4845,-1.4533,-1.4533,-1.4783,-1.518,-1.5505,-1.5948,-1.6382,-1.6686,-1.6815,-1.7181,-1.8989,-1.9508,-1.9963,-2.1821,-2.231,-2.2443,-2.3063,-2.2947,-2.2898,-2.3566,-2.3886,-2.4082,-2.4273,-2.47,-2.5057,-2.5264,-2.5303,-2.5331,-2.5395,-2.5459,-2.5511,-2.5595,-2.5605,-2.5601,-2.5601,-2.5488,-2.5329,-2.5111,-2.4898,-2.447,-2.3756,-2.3069,-2.2695,-2.2669,-2.2426,-2.2061,-2.1582,-2.1582,-2.1368,-2.0959,-2.0438,-2.0172,-2.0088,-1.7518,-1.6336,0.0,0.0,-1.4496,-1.2735,0.0,0.0,0.0,0.0,0.0,0.0,0.0,0.0,0.0,0.0,-1.0575,-0.9652,-0.9352,0.0,0.0,0.0,0.0,0.0,0.0,0.0,0.0,0.0,0.0,0.0,-1.0545,0.0,0.0,-1.2778,-1.3939,-1.4851,-1.5578,-1.6323,-1.705,-1.7557,-1.7811,-1.7811,-1.7811,-1.7811,-1.7811,-1.7811,-1.7811,-1.7811,-1.7811,-1.7811,-1.7811,-1.7811,-1.7811,-1.7726,-1.7068,-1.6722,-1.6454,-1.5181,-1.4627,-1.4501,-1.4501,-1.4596,-1.4783,-1.5151,-1.5374,-1.5565,-1.6024,-1.6301,-1.6838,-1.8674,-1.9329,-1.9936,-2.1821,-2.231,-2.2388,-2.2789,-2.2947,-2.3141,-2.3588,-2.3939,-2.4192,-2.4386,-2.4659,-2.4917,-2.5077,-2.5214,-2.5312,-2.5391,-2.5465,-2.5511,-2.5598,-2.5643,-2.5658,-2.5603,-2.5558,-2.5479,-2.5318,-2.4991,-2.4535,-2.3947,-2.3574,-2.3165,-2.2721,-2.2625,-2.2419,-2.2061,-2.2061,-2.2003,-2.1857,-2.1383,-2.1117,-2.1085,-1.9612,-1.8403,-1.3988,-1.4498,0.0,-1.3416,-1.3203,0.0,-1.1013,0.0,0.0,0.0,0.0,0.0,0.0,0.0,-1.0976,-1.024,-0.9623,-0.8954,0.0,0.0,0.0,0.0,0.0,0.0,0.0,0.0,-0.9113,-0.9113,0.0,0.0,0.0,0.0,-1.3546,-1.4479,-1.4969,-1.568,-1.6699,-1.7168,-1.754,-1.7811,-1.7811,-1.7811,-1.7811,-1.7811,-1.7811,-1.7811,-1.7811,-1.7811,-1.7811,-1.7811,-1.7811,-1.7726,-1.7068,-1.6789,-1.6617,-1.5241,-1.4533,-1.4246,-1.4084,-1.4149,-1.4342,-1.4596,-1.4876,-1.5165,-1.5448,-1.5826,-1.6496,-1.8295,-1.8936,-1.956,-2.1532,-2.2032,-2.2158,-2.2608,-2.2789,-2.2958,-2.3277,-2.361,-2.3881,-2.3948,-2.4368,-2.4741,-2.4847,-2.5046,-2.5225,-2.5354,-2.5415,-2.5488,-2.5511,-2.5605,-2.5643,-2.5604,-2.5593,-2.5524,-2.5318,-2.5019,-2.4655,-2.421,-2.3946,-2.3595,-2.3069,-2.2822,-2.2625,-2.2453,-2.2349,-2.231,-2.231,-2.2003,-2.1853,-2.1823,-2.0847,-1.9905]},{"header":{"parameterUnit":"m.s-1","parameterCategory":1,"la1":30.6,"la2":29.2853,"lo1":-89.7004,"lo2":-87.6739,"dy":0.0162,"dx":0.0183,"nx":112,"ny":82,"refTime":"2024-06-12T00:00:00:Z","depth":0,"parameterNumber":3,"parameterNumberName":"V-component_of_WINDS"},"data":[0.0,0.0,0.0,0.0,0.0,0.0,0.0,0.0,0.0,0.0,0.0,0.0,0.0,0.0,0.0,0.0,0.0,0.0,0.0,0.0,0.0,0.0,0.0,0.0,0.0,0.0,0.0,0.0,0.0,0.0,0.0,0.0,0.0,0.0,0.0,0.0,0.0,0.0,0.0,0.0,0.0,0.0,0.0,0.0,0.0,0.0,0.0,0.0,0.0,0.0,0.0,0.0,0.0,0.0,0.0,0.0,0.0,0.0,0.0,0.0,0.0,0.0,0.0,0.0,0.0,0.0,0.0,0.0,0.0,0.0,0.0,0.0,0.0,0.0,0.0,0.0,0.0,0.0,0.0,0.0,0.0,0.0,0.0,0.0,0.0,0.0,0.0,0.0,0.0,0.0,0.0,-0.9487,-1.1062,-1.2199,-1.2773,-1.0181,-0.8084,-0.7114,0.0,0.0,0.0,0.0,0.0,0.0,0.0,0.0,0.0,0.0,0.0,0.0,0.0,0.0,0.0,0.0,0.0,0.0,0.0,0.0,0.0,0.0,0.0,0.0,0.0,0.0,0.0,0.0,0.0,0.0,0.0,0.0,0.0,0.0,0.0,0.0,0.0,0.0,0.0,0.0,0.0,0.0,0.0,0.0,0.0,0.0,0.0,0.0,0.0,0.0,0.0,0.0,0.0,0.0,0.0,0.0,0.0,0.0,0.0,0.0,0.0,0.0,0.0,0.0,0.0,0.0,0.0,0.0,0.0,0.0,0.0,0.0,0.0,0.0,0.0,0.0,0.0,0.0,0.0,0.0,0.0,0.0,0.0,0.0,0.0,0.0,0.0,0.0,0.0,0.0,0.0,0.0,0.0,0.0,0.0,0.0,0.0,0.0,0.0,0.0,0.0,0.0,0.0,0.0,-0.9159,-1.2914,-1.2909,-1.2677,-1.2773,-1.0745,-0.8852,-0.7444,0.0,0.0,0.0,0.0,0.0,0.0,0.0,0.0,0.0,0.0,0.0,0.0,0.0,0.0,0.0,0.0,0.0,0.0,0.0,0.0,0.0,0.0,0.0,0.0,0.0,0.0,0.0,0.0,0.0,0.0,0.0,0.0,0.0,0.0,0.0,0.0,0.0,0.0,0.0,0.0,0.0,0.0,0.0,0.0,0.0,0.0,0.0,0.0,0.0,0.0,0.0,0.0,0.0,0.0,0.0,0.0,0.0,0.0,0.0,0.0,0.0,0.0,0.0,0.0,0.0,0.0,0.0,0.0,0.0,0.0,0.0,0.0,0.0,0.0,0.0,0.0,0.0,0.0,0.0,0.0,0.0,0.0,0.0,0.0,0.0,0.0,0.0,0.0,0.0,0.0,0.0,0.0,0.0,0.0,0.0,0.0,0.0,0.0,0.0,0.0,0.0,0.0,0.0,-0.8391,-1.0944,-1.4128,-1.4351,-1.4144,-1.3925,-1.2236,-1.0367,-0.8441,-0.6349,0.0,0.0,0.0,0.0,0.0,0.0,0.0,0.0,0.0,0.0,0.0,0.0,0.0,0.0,0.0,0.0,0.0,0.0,0.0,0.0,0.0,0.0,0.0,0.0,0.0,0.0,0.0,0.0,0.0,0.0,0.0,0.0,0.0,0.0,0.0,0.0,0.0,0.0,0.0,0.0,0.0,0.0,0.0,0.0,0.0,0.0,0.0,0.0,0.0,0.0,0.0,0.0,0.0,0.0,0.0,0.0,0.0,0.0,0.0,0.0,0.0,0.0,0.0,0.0,0.0,0.0,0.0,0.0,0.0,0.0,0.0,0.0,0.0,0.0,0.0,0.0,0.0,0.0,0.0,0.0,0.0,0.0,0.0,0.0,0.0,0.0,0.0,0.0,0.0,0.0,0.0,0.0,0.0,0.0,0.0,0.0,0.0,0.0,0.0,0.0,0.0,0.0,-1.0589,-1.2781,-1.5073,-1.5575,-1.5531,-1.5186,-1.3365,-1.1452,-0.9474,-0.7515,0.0,0.0,0.0,0.0,0.0,0.0,0.0,0.0,0.0,0.0,0.0,0.0,0.0,0.0,0.0,0.0,0.0,0.0,0.0,0.0,0.0,0.0,0.0,0.0,0.0,0.0,0.0,0.0,0.0,0.0,0.0,0.0,0.0,0.0,0.0,0.0,0.0,0.0,0.0,0.0,0.0,0.0,0.0,0.0,0.0,0.0,0.0,0.0,0.0,0.0,0.0,0.0,0.0,0.0,0.0,0.0,0.0,0.0,0.0,0.0,0.0,0.0,0.0,0.0,0.0,0.0,0.0,0.0,0.0,0.0,0.0,0.0,0.0,0.0,0.0,0.0,0.0,0.0,0.0,0.0,0.0,0.0,0.0,0.0,0.0,0.0,0.0,0.0,0.0,0.0,0.0,0.0,0.0,0.0,0.0,0.0,0.0,0.0,0.0,0.0,0.0,0.0,-1.2327,-1.4687,-1.6721,-1.6591,-1.6267,-1.614,-1.3541,-1.14,-1.0109,-0.791,0.0,0.0,0.0,0.0,0.0,0.0,0.0,0.0,0.0,0.0,0.0,0.0,0.0,0.0,0.0,0.0,0.0,0.0,0.0,0.0,0.0,0.0,0.0,0.0,0.0,0.0,0.0,0.0,0.0,0.0,0.0,0.0,0.0,0.0,0.0,0.0,0.0,0.0,0.0,0.0,0.0,0.0,0.0,0.0,0.0,0.0,0.0,0.0,0.0,0.0,0.0,0.0,0.0,0.0,0.0,0.0,0.0,0.0,0.0,0.0,0.0,0.0,0.0,0.0,0.0,0.0,0.0,0.0,0.0,0.0,0.0,0.0,0.0,0.0,0.0,0.0,0.0,0.0,0.0,0.0,0.0,0.0,0.0,0.0,0.0,0.0,0.0,0.0,0.0,0.0,0.0,0.0,0.0,0.0,0.0,0.0,0.0,0.0,0.0,0.0,0.0,0.0,-1.2979,-1.5661,0.0,-1.7791,-1.7784,-1.7084,-1.5031,-1.2873,-1.0789,0.0,0.0,0.0,0.0,0.0,0.0,0.0,0.0,0.0,0.0,0.0,0.0,0.0,0.0,0.0,0.0,0.0,0.0,0.0,0.0,0.0,0.0,0.0,0.0,0.0,0.0,0.0,0.0,0.0,0.0,0.0,0.0,0.0,0.0,0.0,0.0,0.0,0.0,0.0,0.0,0.0,0.0,0.0,0.0,0.0,0.0,0.0,0.0,0.0,0.0,0.0,0.0,0.0,0.0,0.0,0.0,0.0,0.0,0.0,0.0,0.0,0.0,0.0,0.0,0.0,0.0,0.0,0.0,0.0,0.0,0.0,0.0,0.0,0.0,0.0,0.0,0.0,0.0,0.0,0.0,0.0,0.0,0.0,0.0,0.0,0.0,0.0,0.0,0.0,0.0,0.0,0.0,0.0,0.0,0.0,0.0,0.0,0.0,0.0,0.0,0.0,0.0,-1.0147,-1.3656,-1.6396,0.0,-1.8299,-1.8422,-1.767,-1.5757,-1.3653,-1.1468,0.0,0.0,0.0,0.0,0.0,0.0,0.0,0.0,0.0,0.0,0.0,0.0,0.0,0.0,0.0,0.0,0.0,0.0,0.0,0.0,0.0,0.0,0.0,0.0,0.0,0.0,0.0,0.0,0.0,0.0,0.0,0.0,0.0,0.0,0.0,0.0,0.0,0.0,0.0,0.0,0.0,0.0,0.0,0.0,0.0,0.0,0.0,0.0,0.0,0.0,0.0,0.0,0.0,0.0,0.0,0.0,0.0,0.0,0.0,0.0,0.0,0.0,0.0,0.0,0.0,0.0,0.0,0.0,0.0,0.0,0.0,0.0,0.0,0.0,0.0,0.0,0.0,0.0,0.0,0.0,0.0,0.0,0.0,0.0,0.0,0.0,0.0,0.0,0.0,0.0,0.0,0.0,0.0,0.0,0.0,0.0,0.0,0.0,0.0,0.0,0.0,0.0,-1.1138,-1.4409,-1.6938,-1.7745,-1.7938,-1.7973,-1.782,-1.5442,-1.3382,0.0,0.0,0.0,0.0,0.0,0.0,0.0,0.0,0.0,0.0,0.0,0.0,0.0,0.0,0.0,0.0,0.0,0.0,0.0,0.0,0.0,0.0,0.0,0.0,0.0,0.0,0.0,0.0,0.0,0.0,0.0,0.0,0.0,0.0,0.0,0.0,0.0,0.0,0.0,0.0,0.0,0.0,0.0,0.0,0.0,0.0,0.0,0.0,0.0,0.0,0.0,0.0,0.0,0.0,0.0,0.0,0.0,0.0,0.0,0.0,0.0,0.0,0.0,0.0,0.0,0.0,0.0,0.0,0.0,0.0,0.0,0.0,0.0,0.0,0.0,0.0,0.0,0.0,0.0,0.0,0.0,0.0,0.0,0.0,0.0,0.0,0.0,0.0,0.0,0.0,0.0,0.0,0.0,0.0,0.0,0.0,0.0,0.0,0.0,0.0,0.0,0.0,0.0,-1.1826,-1.5566,-1.8335,-1.8802,-1.9056,-1.9184,-1.9149,-1.6778,-1.4673,-1.3158,0.0,0.0,0.0,0.0,0.0,0.0,0.0,0.0,0.0,0.0,0.0,0.0,0.0,0.0,0.0,0.0,0.0,0.0,0.0,0.0,0.0,0.0,0.0,0.0,0.0,0.0,0.0,0.0,0.0,0.0,0.0,0.0,0.0,0.0,0.0,0.0,0.0,0.0,0.0,0.0,0.0,0.0,0.0,0.0,0.0,0.0,0.0,0.0,0.0,0.0,0.0,0.0,0.0,0.0,0.0,0.0,0.0,0.0,0.0,0.0,0.0,0.0,0.0,0.0,0.0,0.0,0.0,0.0,0.0,0.0,0.0,0.0,0.0,0.0,0.0,0.0,0.0,0.0,0.0,0.0,0.0,0.0,0.0,0.0,0.0,0.0,0.0,0.0,0.0,0.0,0.0,0.0,0.0,0.0,0.0,0.0,0.0,0.0,0.0,0.0,0.0,0.0,-1.2509,-1.6067,-1.864,-1.8972,-1.9157,-1.9255,-1.9255,-1.7293,-1.5331,-1.3609,0.0,0.0,0.0,0.0,0.0,0.0,0.0,0.0,0.0,0.0,0.0,0.0,0.0,0.0,0.0,0.0,0.0,0.0,0.0,0.0,0.0,0.0,0.0,0.0,0.0,0.0,0.0,0.0,0.0,0.0,0.0,0.0,0.0,0.0,0.0,0.0,0.0,0.0,0.0,0.0,0.0,0.0,0.0,0.0,0.0,0.0,0.0,0.0,0.0,0.0,0.0,0.0,0.0,0.0,0.0,0.0,0.0,0.0,0.0,0.0,0.0,0.0,0.0,0.0,0.0,0.0,0.0,0.0,0.0,0.0,0.0,0.0,0.0,0.0,0.0,0.0,0.0,0.0,0.0,0.0,0.0,0.0,0.0,0.0,0.0,0.0,0.0,0.0,0.0,0.0,0.0,0.0,0.0,0.0,0.0,0.0,0.0,0.0,0.0,0.0,0.0,0.0,-1.3109,-1.6144,-1.8325,-1.8643,-1.868,-1.8698,-1.8698,-1.7257,-1.5582,-1.3808,0.0,0.0,0.0,0.0,0.0,0.0,0.0,0.0,0.0,0.0,0.0,0.0,0.0,0.0,0.0,0.0,0.0,0.0,0.0,0.0,0.0,0.0,0.0,0.0,0.0,0.0,0.0,0.0,0.0,0.0,0.0,0.0,0.0,0.0,0.0,0.0,0.0,0.0,0.0,0.0,0.0,0.0,0.0,0.0,0.0,0.0,0.0,0.0,0.0,0.0,0.0,0.0,0.0,0.0,0.0,0.0,0.0,0.0,0.0,0.0,-0.8759,0.0,0.0,0.0,0.0,0.0,0.0,0.0,0.0,0.0,0.0,0.0,0.0,0.0,0.0,0.0,0.0,0.0,0.0,0.0,0.0,0.0,0.0,0.0,0.0,0.0,0.0,0.0,0.0,0.0,0.0,0.0,0.0,0.0,0.0,0.0,0.0,0.0,0.0,0.0,0.0,0.0,-1.3499,-1.674,-1.9018,-1.9214,-1.932,-1.9394,-1.9394,-1.7778,-1.6286,-1.5148,-1.267,0.0,0.0,0.0,0.0,0.0,0.0,0.0,0.0,0.0,0.0,0.0,0.0,0.0,0.0,0.0,0.0,0.0,0.0,0.0,0.0,0.0,0.0,0.0,0.0,0.0,0.0,0.0,0.0,0.0,0.0,0.0,0.0,0.0,0.0,0.0,0.0,0.0,0.0,0.0,0.0,0.0,0.0,0.0,0.0,0.0,0.0,0.0,0.0,0.0,0.0,0.0,0.0,0.0,0.0,0.0,0.0,0.0,0.0,0.0,0.0,-0.9385,0.0,0.0,0.0,0.0,0.0,0.0,0.0,0.0,0.0,0.0,0.0,0.0,0.0,0.0,0.0,0.0,0.0,0.0,0.0,0.0,0.0,0.0,0.0,0.0,0.0,0.0,0.0,0.0,0.0,0.0,0.0,0.0,0.0,0.0,0.0,0.0,0.0,0.0,0.0,0.0,-1.463,-1.7527,-1.9511,-1.9582,-1.9651,-1.9669,-1.9614,-1.8029,-1.6588,-1.5569,-1.3424,0.0,0.0,0.0,0.0,0.0,0.0,0.0,0.0,0.0,0.0,0.0,0.0,0.0,0.0,0.0,0.0,0.0,0.0,0.0,0.0,0.0,0.0,0.0,0.0,0.0,0.0,0.0,0.0,0.0,0.0,0.0,0.0,0.0,0.0,0.0,0.0,0.0,0.0,0.0,0.0,0.0,0.0,0.0,0.0,0.0,0.0,0.0,0.0,0.0,0.0,0.0,0.0,0.0,-0.5702,-0.6019,-0.6648,-0.6727,-0.7167,-0.7996,-0.8912,-0.8806,-0.8109,0.0,0.0,0.0,0.0,0.0,0.0,0.0,0.0,0.0,0.0,0.0,0.0,0.0,0.0,0.0,0.0,0.0,0.0,0.0,0.0,0.0,0.0,0.0,0.0,0.0,-1.6274,-1.5697,0.0,0.0,0.0,0.0,0.0,0.0,0.0,0.0,0.0,0.0,0.0,0.0,-1.5808,-1.8216,-1.9847,-1.9888,-1.9866,-1.9786,-1.9649,-1.8148,-1.6804,-1.5848,-1.4131,-1.2401,0.0,0.0,0.0,0.0,0.0,0.0,0.0,0.0,0.0,0.0,0.0,0.0,0.0,0.0,0.0,0.0,0.0,0.0,0.0,0.0,0.0,0.0,0.0,0.0,0.0,0.0,0.0,0.0,0.0,0.0,0.0,0.0,0.2782,0.2804,0.0,0.0,0.0,0.0,0.0,0.0,0.0,0.0,0.0,0.0,0.0,0.0,0.0,0.0,-0.5188,-0.5783,-0.6014,-0.5864,-0.5716,-0.5747,-0.6028,-0.6371,-0.652,-0.6542,-0.7661,0.0,-0.9253,-1.0126,0.0,0.0,0.0,0.0,0.0,0.0,0.0,0.0,0.0,0.0,0.0,0.0,0.0,0.0,0.0,0.0,0.0,0.0,0.0,0.0,0.0,0.0,-1.8878,-1.9101,-1.9756,-2.0244,0.0,-1.6487,-1.3376,-1.3195,0.0,0.0,0.0,0.0,0.0,0.0,0.0,0.0,-1.6088,-1.8384,-2.0041,-2.0216,-2.0088,-1.9922,-1.9797,-1.824,-1.7168,-1.691,-1.4607,-1.3164,-1.2894,-1.113,0.0,0.0,0.0,0.0,0.0,0.0,0.0,0.0,0.0,0.0,0.0,0.0,0.0,0.0,0.0,0.0,0.0,0.0,0.0,0.0,0.0,0.0,0.0,0.0,0.0,0.0,0.0,0.0,0.0,0.2968,0.2661,0.166,0.1964,0.1915,0.0,0.0,0.0,0.0,0.0,0.0,0.0,0.0,0.0,-0.386,-0.4454,-0.4749,-0.4745,-0.5045,-0.5232,-0.5357,-0.5264,-0.5347,-0.5573,-0.6095,-0.6461,-0.6699,-0.7524,-0.8291,-0.898,-0.9483,-0.9342,-0.8837,0.0,0.0,0.0,0.0,0.0,-1.1796,-1.295,-1.3227,0.0,0.0,0.0,0.0,0.0,0.0,0.0,0.0,0.0,0.0,0.0,0.0,0.0,-2.1187,-2.1784,-2.2119,-2.2107,-2.0333,-1.8106,0.0,-1.5178,-1.4441,-1.3162,0.0,0.0,0.0,0.0,-1.7006,-1.7692,-1.9183,-2.0197,-2.0285,-2.0214,-2.0097,-1.9933,-1.8403,-1.7406,-1.7216,-1.5319,-1.398,-1.3483,-1.249,-1.1372,0.0,0.0,0.0,0.0,0.0,0.0,0.0,0.0,0.0,0.0,0.0,0.0,0.0,0.0,0.0,0.0,0.0,0.0,0.0,0.0,0.0,0.0,0.0,0.0,0.0,0.0,0.0,0.0,0.2712,0.2348,0.0717,0.1138,0.1168,0.0,0.0,0.0,0.0,0.0,0.0,-0.2957,-0.3294,-0.362,-0.3937,-0.4322,-0.4518,-0.4534,-0.4435,-0.4538,-0.4771,-0.4652,-0.473,-0.5087,-0.5524,-0.6033,-0.6615,-0.7182,-0.7747,-0.824,-0.8709,-0.8829,-0.8759,-0.9204,-0.9513,-0.9891,-1.1097,-1.171,-1.2134,-1.3719,-1.4126,-1.4024,-1.4537,0.0,-1.4569,-1.4682,0.0,0.0,0.0,0.0,-1.7632,-1.9296,-2.0247,-2.1167,-2.271,-2.3142,-2.3259,-2.3468,-2.3307,-2.2221,0.0,-1.8245,-1.7386,-1.5451,0.0,0.0,0.0,0.0,-1.8248,-1.8946,-1.9773,-2.0312,-2.0312,-2.0312,-2.0225,-2.0022,-1.8531,-1.7551,-1.7359,-1.5809,-1.4611,-1.3966,-1.3533,-1.2621,-1.1185,0.0,0.0,0.0,0.0,0.0,0.0,0.0,0.0,0.0,0.0,0.0,0.0,0.0,0.0,0.0,0.0,0.0,0.0,0.0,0.0,0.0,0.0,0.0,0.0,0.0,0.0,0.0,0.0,0.0,0.0988,0.0531,0.0,0.0,0.0,0.0,-0.1069,-0.1899,-0.2766,-0.3708,-0.3889,-0.4097,-0.438,-0.471,-0.4868,-0.4883,-0.4571,-0.4409,-0.4418,-0.3909,-0.3961,-0.443,-0.4474,-0.4822,-0.5432,-0.6002,-0.6586,-0.7148,-0.821,-0.8361,-0.8008,-0.8545,-0.9109,-0.9668,-0.9967,-1.1003,-1.2155,-1.2008,-1.2512,-1.3481,-1.4806,-1.5396,-1.5871,-1.7683,-1.7117,0.0,0.0,-2.0323,-2.0658,-2.1896,-2.2391,-2.2774,-2.3638,-2.3936,-2.4252,-2.5019,-2.457,-2.3778,0.0,-2.1914,-2.1007,-2.0186,0.0,-1.8686,-1.7797,-1.8439,-1.903,-1.9095,-1.9792,-2.0312,-2.0312,-2.0312,-2.0225,-2.0022,-1.8578,-1.7646,-1.7498,-1.5864,-1.4885,-1.4847,-1.3857,-1.2835,-1.1882,-1.0915,0.0,0.0,0.0,0.0,0.0,0.0,0.0,0.0,0.0,0.0,0.0,0.0,0.0,0.0,0.0,0.0,0.0,0.0,0.0,0.0,0.0,0.0,0.0,0.0,0.0,0.0,0.0,0.0,0.0674,0.0698,0.0,-0.0058,-0.0664,-0.1047,-0.1092,-0.1921,-0.2341,-0.2208,-0.2364,-0.2685,-0.3175,-0.3398,-0.3648,-0.405,-0.3938,-0.388,-0.388,-0.3711,-0.3707,-0.388,-0.4264,-0.4517,-0.4739,-0.5351,-0.5953,-0.6501,-0.6495,-0.7083,-0.8015,-0.8523,-0.906,-0.9666,-1.0295,-1.1263,-1.2399,-1.2868,-1.3257,-1.38,-1.5513,-1.6563,-1.7374,-1.8527,-1.8653,-1.8676,-1.9978,-2.0751,-2.1424,-2.2395,-2.2928,-2.3436,-2.4286,-2.4601,-2.4818,-2.5118,-2.5085,-2.4915,-2.4662,-2.341,-2.2149,-2.1313,-2.1437,-2.1342,-2.0448,-2.0566,-2.0766,-2.0766,-2.0521,-2.0365,-2.0366,-2.0331,-2.0277,-2.0197,-1.8655,-1.7682,-1.7619,-1.6039,-1.4811,-1.4216,-1.3745,-1.2857,-1.1482,-1.0948,-0.9887,0.0,0.0,0.0,0.0,0.0,0.0,0.0,0.0,0.0,0.0,0.0,0.0,0.0,0.0,0.0,0.0,0.0,0.0,0.0,0.0,0.0,0.0,0.0,0.0,0.0,0.0,0.108,0.0461,0.045,0.0306,-0.023,-0.0889,-0.1216,-0.0964,-0.1696,-0.1931,-0.144,-0.159,-0.1842,-0.2269,-0.233,-0.2674,-0.3306,-0.3081,-0.3217,-0.3581,-0.3398,-0.3398,-0.3626,-0.3965,-0.4136,-0.4176,-0.4739,-0.5216,-0.5567,-0.5394,-0.6007,-0.7128,-0.7654,-0.8063,-0.8524,-0.9437,-1.0416,-1.1421,-1.2682,-1.3376,-1.3927,-1.5154,-1.625,-1.7261,-1.83,-1.8996,-1.9612,-2.0577,-2.1249,-2.1903,-2.2725,-2.3217,-2.3659,-2.4215,-2.4601,-2.4834,-2.4834,-2.5053,-2.5271,-2.5271,-2.4458,-2.3501,-2.2633,-2.2988,-2.3102,-2.2244,-2.2124,-2.2036,-2.174,-2.1206,-2.0729,-2.0454,-2.0359,-2.032,-2.0331,-1.8758,-1.7759,-1.7741,-1.6118,-1.4877,-1.4233,-1.3823,-1.2976,-1.1623,-1.0811,-0.9856,-0.8777,0.0,0.0,0.0,0.0,0.0,0.0,0.0,0.0,0.0,0.0,0.0,0.0,0.0,0.0,0.0,0.0,0.0,0.0,0.0,0.0,0.0,0.0,0.0,0.1618,0.1185,0.0738,0.0434,-0.024,-0.0513,-0.0037,-0.0764,-0.1099,-0.0706,-0.123,-0.1556,-0.1556,-0.1661,-0.1741,-0.1784,-0.1784,-0.2051,-0.2672,-0.2095,-0.2366,-0.3534,-0.2943,-0.2987,-0.3534,-0.3578,-0.3578,-0.3622,-0.4132,-0.4391,-0.443,-0.5,-0.526,-0.5346,-0.5876,-0.6077,-0.6253,-0.7383,-0.8325,-0.9333,-1.1299,-1.2708,-1.3686,-1.3738,-1.4416,-1.5559,-1.7198,-1.813,-1.9089,-2.1341,-2.2006,-2.2201,-2.2937,-2.3267,-2.3455,-2.3473,-2.3878,-2.429,-2.429,-2.4561,-2.479,-2.4804,-2.5163,-2.5224,-2.4358,-2.4229,-2.3942,-2.3104,-2.3001,0.0,-2.1844,-2.173,-2.1386,-2.0585,-2.0443,-2.0405,-2.0407,-1.8851,-1.7864,-1.7819,-1.6105,-1.5063,-1.4964,-1.4095,-1.3228,-1.2383,-1.0621,-0.9646,-0.9555,0.0,0.0,0.0,0.0,0.0,0.0,0.0,0.0,0.0,0.0,0.0,0.0,0.0,0.0,0.0,0.0,0.0,0.0,0.0,0.0,0.0,0.0,0.0961,0.0777,0.0288,0.0,0.011,-0.0078,-0.0122,0.0,-0.0632,-0.0778,-0.0216,-0.0743,-0.088,-0.0485,-0.049,-0.0716,-0.1118,-0.1163,-0.1429,-0.2051,-0.1873,-0.1964,-0.2277,-0.2142,-0.2142,-0.2322,-0.2765,-0.2943,-0.2987,-0.3568,-0.4049,-0.4391,-0.414,-0.4312,-0.4691,-0.5293,-0.5815,-0.6352,-0.7201,-0.8513,-1.0018,-1.1049,-1.2148,-1.3271,-1.4601,-1.5471,-1.6299,-1.7603,-1.8346,-1.8892,-1.9512,-2.0084,-2.0639,-2.1239,-2.1837,-2.2366,-2.2755,-2.3285,-2.378,-2.4026,-2.4276,-2.4511,-2.4756,-2.4907,-2.4948,-2.4878,-2.4894,-2.4883,-2.4794,-2.4258,0.0,-2.2749,-2.2129,-2.1442,-2.0586,-2.0486,-2.0479,-2.0465,-1.8901,-1.7888,-1.7859,-1.6215,-1.4928,-1.4227,-1.3907,-1.3062,-1.1634,-1.1718,-1.1465,0.0,0.0,0.0,0.0,0.0,0.0,0.0,0.0,0.0,0.0,0.0,0.0,0.0,0.0,0.0,0.0,0.0,0.0,0.0,0.0,0.0,0.0,0.1107,0.06,0.0259,-0.0036,-0.0185,0.0,0.0,0.0,0.0,-0.031,-0.0359,-0.0045,-0.0314,-0.0359,0.0,0.0,-0.018,-0.0493,-0.0538,-0.0806,-0.1429,-0.1163,-0.1297,-0.1786,-0.1563,-0.1563,-0.183,-0.2406,-0.2719,0.0,-0.335,-0.3796,-0.4049,-0.3707,-0.3832,0.0,0.0,0.0,0.0,0.0,-0.8201,-0.9971,-1.0742,-1.1616,-1.2628,-1.395,-1.5005,-1.586,-1.6722,-1.7706,-1.8579,-1.903,-1.9607,-2.0198,-2.0671,-2.114,-2.1587,-2.2084,-2.2574,-2.3024,-2.3374,-2.3755,-2.41,-2.4299,0.0,0.0,-2.4809,-2.5008,-2.5173,-2.5269,-2.4955,-2.4291,-2.3114,-2.2605,-2.1867,-2.0625,-2.0527,-2.0547,-2.0547,-1.9286,0.0,0.0,0.0,-1.5291,-1.4002,-1.3907,0.0,0.0,0.0,0.0,0.0,0.0,0.0,0.0,-1.2542,-1.2581,0.0,0.0,0.0,0.0,0.0,0.0,0.0,0.0,0.0,0.0,0.0,0.0,0.0,0.0,0.0,0.0,0.0857,0.0268,0.0042,0.0,0.0,0.0,0.0,0.0,0.0,0.0,0.0,0.0,0.0091,0.0091,0.0,0.0,0.0,0.0,0.0,-0.0269,-0.0806,-0.0269,-0.0538,-0.1607,-0.0984,-0.1028,-0.1607,-0.214,-0.245,-0.2539,-0.3126,-0.3445,-0.349,-0.3506,-0.3641,-0.3809,-0.3697,-0.3777,-0.416,-0.5834,-0.7613,0.0,-1.0354,0.0,0.0,-1.2657,-1.3647,-1.4687,-1.5306,-1.6596,-1.8039,-1.897,-1.957,-1.9993,-2.0518,-2.0699,-2.0878,-2.1321,-2.174,-2.2152,-2.2548,-2.3141,-2.361,-2.3692,-2.3937,-2.4209,-2.4426,-2.4718,-2.4962,-2.4974,-2.5179,-2.4745,-2.3074,-2.2992,-2.241,-2.0658,0.0,0.0,-2.0586,-1.9805,-1.8945,-1.8105,-1.72,-1.5926,-1.4228,-1.4151,-1.3747,-1.2868,-1.2878,-1.3212,-1.3812,-1.389,-1.4687,-1.61,-1.4409,-1.4102,0.0,0.0,0.0,0.0,0.0,0.0,0.0,0.0,0.0,0.0,0.0,0.0,0.0,0.0,0.0,0.0749,0.0318,0.0042,0.0,0.0,0.0,0.0,0.0,0.0,0.0,0.0,0.0,0.0,0.0565,0.062,0.0049,0.0575,0.0,0.0,0.0,-0.0045,-0.018,-0.0045,-0.0135,-0.0359,0.0,0.0,-0.0359,-0.0491,-0.0802,-0.1297,-0.1875,-0.2408,-0.286,-0.3006,-0.3408,-0.3985,-0.403,-0.4488,-0.5144,-0.6159,-0.7158,-0.8227,-0.9526,-1.0415,-1.1216,-1.2395,-1.3321,-1.4179,-1.5252,-1.5828,0.0,-1.6925,-1.7162,-1.7477,-1.8416,-1.8956,-1.9453,-2.0351,-2.1149,-2.1786,-2.2152,-2.2556,-2.3045,-2.3606,-2.3735,-2.3878,-2.4209,-2.4444,-2.4651,-2.4814,-2.4968,-2.4473,-2.2789,-2.2786,-2.2272,-2.0521,-2.0455,-2.0527,-2.0527,-1.9766,-1.9219,-1.9043,-1.7555,-1.6208,-1.5096,-1.5054,-1.4646,-1.3765,-1.442,-1.4503,-1.3953,-1.528,-1.6118,-1.6418,-1.5822,-1.5968,0.0,0.0,0.0,0.0,0.0,0.0,0.0,0.0,0.0,0.0,0.0,0.3129,0.0,0.0,0.1708,0.1083,0.0675,0.0438,0.0447,0.0448,0.0359,0.0045,0.0,0.0,0.0,0.0269,0.0456,0.0523,0.1189,0.1402,0.1105,0.1408,0.1379,0.0999,0.0915,0.0761,0.0448,0.0448,0.0314,0.0,0.0314,0.0269,0.0,0.0,-0.0316,-0.0923,-0.1241,-0.1903,-0.2853,-0.3363,-0.3761,-0.4097,-0.4297,-0.4729,-0.5353,-0.5855,-0.6524,-0.7337,-0.8751,-0.9474,-0.9974,-1.134,-1.2483,-1.3406,-1.4043,-1.4812,-1.5684,-1.6287,-1.6828,-1.7423,-1.8288,-1.8864,-1.9419,-2.0128,-2.0634,-2.1118,-2.1711,-2.2141,-2.2556,-2.3093,-2.3459,-2.3735,-2.3917,-2.4172,-2.4428,-2.4623,-2.478,-2.4309,-2.2715,-2.2643,-2.2122,-2.0476,-2.0381,-2.0448,-2.0447,-1.9704,-1.9082,-1.8672,-1.7422,-1.6288,-1.5397,-1.5358,-1.5142,-1.4713,-1.5096,-1.5289,-1.5253,-1.608,-1.6926,-1.7747,-1.7608,-1.7709,0.0,0.0,0.0,0.0,0.0,0.0,0.0,0.0,0.326,0.3114,0.3076,0.3051,0.2854,0.2509,0.2132,0.1687,0.1312,0.1073,0.1073,0.1073,0.0895,0.0403,0.0359,0.0359,0.0359,0.0806,0.1141,0.1247,0.1874,0.2198,0.2184,0.2207,0.2154,0.1947,0.187,0.1563,0.1073,0.1073,0.0851,0.0359,0.0448,0.0448,0.0359,0.036,0.0,-0.0571,-0.0811,-0.1517,-0.2644,-0.3565,-0.3996,-0.4031,-0.4361,-0.4765,-0.5194,-0.5437,-0.5869,-0.6578,-0.7841,-0.8469,-0.8888,-1.0033,-1.129,-1.2473,-1.2715,-1.3814,-1.5138,-1.6022,-1.6889,-1.7732,-1.8521,-1.908,-1.95,-2.0054,-2.0246,-2.0501,-2.1197,-2.1681,-2.2124,-2.2521,-2.3076,-2.3522,-2.3588,-2.3816,-2.4096,-2.4392,-2.4607,-2.4186,-2.2602,-2.2507,-2.1978,-2.0414,-2.0334,-2.0397,-2.0425,-1.9827,-1.9102,-1.8301,-1.7422,-1.6562,-1.5684,-1.5488,-1.5488,-1.5644,-1.561,-1.5963,-1.6759,-1.6926,-1.7696,-1.8996,-1.9169,-1.9172,0.0994,0.1783,0.2467,0.3039,0.3082,0.3211,0.0,0.0,0.3377,0.3655,0.3365,0.3001,0.262,0.2488,0.2319,0.185,0.1736,0.1697,0.1697,0.1697,0.1697,0.1607,0.1607,0.1607,0.1607,0.1652,0.1753,0.1889,0.2548,0.269,0.2055,0.2651,0.2607,0.1852,0.1825,0.1784,0.1697,0.1697,0.165,0.1607,0.214,0.2095,0.1609,0.1576,0.1276,0.062,-0.0444,-0.1073,-0.1425,-0.2702,-0.3294,-0.3492,-0.4233,-0.456,-0.4656,-0.5265,-0.5542,-0.576,-0.6578,-0.7635,-0.8731,-0.8888,-0.9872,-1.1258,-1.2425,-1.2956,-1.346,-1.5196,-1.5796,-1.625,-1.78,-1.8224,-1.8535,-1.9551,-2.0035,-2.0348,-2.04,-2.1086,-2.1774,-2.2096,-2.2521,-2.2923,-2.3189,-2.33,-2.3504,-2.4152,-2.4392,-2.3931,-2.2271,-2.2313,-2.1863,-2.0222,-2.0197,-2.0358,-2.0477,-2.0408,-2.0019,-1.9219,-1.834,-1.7461,-1.6582,-1.5801,-1.5762,-1.6543,-1.6543,-1.6936,-1.7741,-1.8453,-1.8876,-1.903,-1.9792,-2.0044,0.188,0.2687,0.3176,0.3335,0.3398,0.3464,0.3607,0.3447,0.3331,0.3483,0.3451,0.3321,0.3169,0.3135,0.2976,0.0,0.2317,0.2317,0.2317,0.2317,0.2453,0.2812,0.3117,0.2932,0.1917,0.2401,0.2733,0.2516,0.3224,0.3524,0.3284,0.356,0.3723,0.3623,0.3204,0.2919,0.2799,0.2492,0.214,0.1786,0.2051,0.2051,0.183,0.218,0.2207,0.197,-0.0104,-0.0809,-0.0545,-0.1966,-0.2589,-0.2732,-0.3566,-0.3846,-0.3901,-0.4618,-0.4893,-0.5003,-0.571,-0.6347,-0.6983,-0.7853,-0.8797,-0.982,-1.124,-1.1895,-1.2531,-1.4111,-1.5016,-1.5792,-1.6831,-1.7599,-1.8302,-1.9043,-1.9361,-1.9636,-2.0162,-2.0601,-2.0959,-2.1381,-2.1955,-2.2398,-2.2556,-2.293,-2.33,-2.3566,-2.346,-2.2997,-2.2126,-2.1704,-2.1116,-2.0107,-2.0188,-2.0331,-2.0389,-2.0428,-2.0103,-1.9297,-1.8945,-1.8379,-1.748,-1.7109,-1.707,-1.7441,-1.7422,-1.7807,-1.8665,-1.8954,-1.9338,-1.9773,-2.0139,-2.0518,0.2398,0.3067,0.3377,0.346,0.357,0.3593,0.3319,0.3293,0.337,0.337,0.35,0.3612,0.3695,0.3767,0.3642,0.3156,0.3134,0.3117,0.2987,0.3073,0.3337,0.3748,0.4439,0.4252,0.2667,0.3284,0.3567,0.3166,0.3687,0.402,0.4127,0.4174,0.4433,0.4956,0.4344,0.4053,0.4095,0.3656,0.3111,0.2536,0.2536,0.245,0.2324,0.2602,0.273,0.256,0.0652,0.0111,0.0501,-0.1002,-0.1615,-0.1671,-0.2674,-0.3178,-0.3398,-0.3959,-0.4349,-0.457,-0.5054,-0.5324,-0.5651,-0.674,-0.7694,-0.8639,-0.9879,-1.0855,-1.1855,-1.3358,-1.4505,-1.5484,-1.6421,-1.7272,-1.8027,-1.8535,-1.8779,-1.9103,-1.9778,-2.0128,-2.0416,-2.0748,-2.1442,-2.1972,-2.1972,-2.2495,-2.2965,-2.3045,-2.242,-2.19,-2.1818,-2.1034,-2.0364,-2.004,-2.0124,-2.0241,-2.0304,-2.0334,-2.0149,-1.959,-1.9375,-1.9004,-1.8379,-1.8125,-1.8105,-1.8359,-1.8301,-1.8711,-1.9551,-1.9491,-1.9754,-2.0312,-2.0542,-2.0946,0.1905,0.2137,0.2377,0.2962,0.3269,0.3427,0.3578,0.3568,0.3571,0.3571,0.3578,0.3662,0.3957,0.4184,0.4289,0.3991,0.4189,0.4176,0.3663,0.4005,0.4343,0.4391,0.5437,0.5653,0.0,0.4343,0.4199,0.3825,0.3934,0.4022,0.4026,0.4117,0.4481,0.5099,0.4815,0.4991,0.5621,0.5365,0.4913,0.4299,0.4299,0.4045,0.3544,0.3099,0.2558,0.2018,0.209,0.2119,0.2007,0.0556,-0.0056,-0.0223,-0.1671,-0.2676,-0.3287,-0.34,-0.3904,-0.4519,-0.4515,-0.4948,-0.5487,-0.5542,-0.6573,-0.7871,-0.8528,-0.9717,-1.1249,-1.3175,-1.4204,-1.5141,-1.6828,-1.7312,-1.7463,-1.7987,-1.8535,-1.8893,-1.893,-1.9671,-2.0299,-2.0314,-2.1023,-2.1612,-2.1612,-2.2015,-2.2415,-2.2686,-2.1423,-2.066,-2.1251,-2.0349,-1.9726,-1.9964,-2.0012,-2.0078,-2.0285,-2.0292,-2.0349,-2.0449,-1.9668,-1.9219,-1.9258,-1.8457,-1.8398,-1.9238,-1.9258,-1.9648,-2.0469,-2.0392,-2.0341,-2.0331,-2.11,-2.1485,0.1404,0.1969,0.2449,0.265,0.3133,0.3561,0.3612,0.3581,0.3551,0.3449,0.3634,0.3787,0.3461,0.3949,0.4208,0.3622,0.3882,0.4003,0.3653,0.4235,0.4529,0.3935,0.504,0.0,0.0,0.0,0.0,0.426,0.4914,0.534,0.534,0.5605,0.6006,0.6555,0.5931,0.5793,0.6282,0.5639,0.5216,0.5,0.4609,0.4136,0.3585,0.3023,0.2962,0.3284,0.2446,0.2405,0.2843,0.1893,0.1171,0.0613,-0.0334,-0.1503,-0.2619,-0.3121,-0.3846,-0.4519,-0.4519,-0.4625,-0.4893,-0.5378,-0.614,-0.7176,-0.837,-0.937,-1.0458,-1.1984,-1.2908,-1.3679,-1.4687,-1.5552,-1.6305,-1.6844,-1.7436,-1.8027,-1.8727,-1.914,-1.9471,-1.9823,-2.0348,-2.0732,-2.0732,-2.1118,-2.1282,-2.0831,-2.09,-2.0697,-1.9885,-1.9669,-1.9636,-1.9713,-1.9813,-1.9922,-2.0097,-2.0129,-2.0229,-2.036,-2.013,-2.0022,-2.0098,-1.9805,-1.9824,-2.0156,-2.0156,-2.0293,-2.0566,-2.0504,-2.0422,-2.0389,-2.1188,-2.1842,0.1281,0.1803,0.2312,0.252,0.311,0.3581,0.3581,0.3537,0.3509,0.3531,0.3658,0.3768,0.3726,0.4026,0.4141,0.3747,0.3866,0.393,0.3708,0.455,0.4927,0.4153,0.525,0.5692,0.0,0.0,0.0,0.4937,0.5648,0.6146,0.6146,0.6445,0.6844,0.7431,0.6679,0.6527,0.7077,0.6299,0.5825,0.561,0.5,0.4439,0.3884,0.3579,0.3598,0.3902,0.3118,0.3116,0.3564,0.2885,0.2343,0.1842,0.1058,-0.0111,-0.1447,-0.1947,-0.295,-0.4125,-0.4405,-0.4519,-0.457,-0.5003,-0.5601,-0.6416,-0.7576,-0.8639,-0.9732,-1.134,-1.2278,-1.3014,-1.3899,-1.4869,-1.5664,-1.6046,-1.6744,-1.7544,-1.8419,-1.8765,-1.9043,-1.9603,-2.0019,-2.0314,-2.0314,-2.0477,-2.034,-1.9441,-1.9947,-2.0063,-1.9111,-1.923,-1.9442,-1.9582,-1.9669,-1.979,-1.9974,-2.0039,-2.0129,-2.0285,-2.0347,-2.04,-2.0506,-2.0503,-2.0527,-2.0605,-2.0605,-2.0605,-2.0605,-2.0527,-2.0462,-2.0431,-2.1536,-2.2331,0.1354,0.1637,0.1949,0.2515,0.3126,0.3622,0.3612,0.3495,0.3502,0.3919,0.3679,0.3717,0.0,0.0,0.4115,0.4294,0.4148,0.3959,0.382,0.4861,0.5499,0.0,0.0,0.0,0.0,0.0,0.0,0.5821,0.0,0.6406,0.6457,0.6569,0.6961,0.7652,0.7151,0.7176,0.7862,0.7277,0.6725,0.6179,0.561,0.5043,0.4439,0.462,0.4388,0.3852,0.4107,0.4187,0.4154,0.3687,0.3456,0.3345,0.2565,0.1336,0.0,0.0,-0.1391,-0.3456,-0.4181,-0.446,-0.4519,-0.4519,-0.4948,-0.5651,-0.6312,-0.7528,-0.9037,-1.0998,-1.2104,-1.2956,-1.4215,-1.505,-1.5543,-1.5543,-1.6403,-1.7381,-1.7987,-1.8496,-1.9043,-1.9603,-2.0,-2.0265,-2.0234,-2.0067,-1.9541,-1.8493,-1.8568,-1.8778,-1.8968,-1.8984,-1.9152,-1.9541,-1.9582,-1.9676,-1.9963,-1.9993,-2.006,-2.0277,-2.0285,-2.0342,-2.0485,-2.0483,-2.0527,-2.0605,-2.0605,-2.0605,-2.0605,-2.0547,-2.05,-2.0511,-2.2151,-2.2887,0.0376,0.1073,0.1848,0.2001,0.2812,0.3635,0.3848,0.4103,0.4257,0.4171,0.4521,0.4664,0.3984,0.0,0.0,0.3717,0.3978,0.0,0.3866,0.4646,0.0,0.5086,0.0,0.6502,0.653,0.6872,0.0,0.0,0.6795,0.6503,0.703,0.7319,0.7423,0.7396,0.7566,0.7621,0.7589,0.7208,0.6725,0.6179,0.605,0.5653,0.5043,0.4657,0.4492,0.4455,0.4189,0.409,0.4207,0.4239,0.3846,0.3287,0.3176,0.1836,0.0,0.0,-0.1057,-0.2619,-0.34,-0.4015,-0.4519,-0.4519,-0.4948,-0.5538,-0.5706,-0.6789,-0.8178,-0.9186,-1.0367,-1.1499,-1.2337,-1.3406,-1.4365,-1.4824,-1.5487,-1.6434,-1.7814,-1.8224,-1.8574,-1.953,-1.9782,-1.9688,-1.9189,-1.8852,-1.8405,-1.7676,-1.7652,-1.7929,-1.8603,-1.8878,-1.9102,-1.935,-1.9365,-1.9467,-1.9676,-1.9707,-1.9809,-2.006,-2.0078,-2.0171,-2.0427,-2.0434,-2.0486,-2.0605,-2.0605,-2.0605,-2.0605,-2.0586,-2.0878,-2.1478,-2.2494,-2.3283,0.0,0.0703,0.1474,0.1741,0.2499,0.3293,0.3737,0.4004,0.4237,0.4278,0.4568,0.4678,0.4158,0.4237,0.4178,0.0,0.0,0.0,0.4029,0.4961,0.556,0.0,0.6417,0.0,0.6895,0.7006,0.7396,0.0,0.7604,0.75,0.7933,0.8128,0.814,0.7991,0.8078,0.7916,0.7513,0.7301,0.6983,0.6562,0.6562,0.6258,0.5658,0.5087,0.4714,0.4567,0.0,0.402,0.4113,0.4375,0.4236,0.3846,0.3846,0.2894,0.1387,0.1094,0.0055,-0.1333,-0.2136,-0.3082,-0.4015,-0.4405,-0.4732,-0.5113,-0.5433,-0.6086,-0.7004,-0.8311,-0.9252,-1.0179,-1.1458,-1.2589,-1.3511,-1.4133,-1.496,-1.5928,-1.7094,-1.737,-1.7636,-1.8431,-1.8703,-1.8612,-1.7921,-1.7664,-1.7395,-1.6939,-1.6871,-1.7191,-1.8094,-1.8567,-1.8913,-1.915,-1.9261,-1.938,-1.9569,-1.9614,-1.9701,-1.9974,-1.9993,-2.0125,-2.0381,-2.0399,-2.045,-2.0605,-2.0605,-2.0605,-2.0605,-2.0605,-2.1016,-2.1816,-2.2625,-2.3423,0.0,0.0448,0.1029,0.1652,0.2264,0.2893,0.3505,0.3804,0.4048,0.4421,0.4396,0.4439,0.4773,0.4124,0.3629,0.3899,0.0,0.3516,0.4431,0.547,0.6199,0.6319,0.7134,0.7509,0.6966,0.6912,0.7182,0.7777,0.8427,0.8752,0.8646,0.8646,0.8679,0.8751,0.847,0.8063,0.758,0.7574,0.7375,0.7081,0.7081,0.6806,0.6264,0.5728,0.513,0.4534,0.0,0.0,0.407,0.4348,0.4519,0.4519,0.4519,0.4015,0.3222,0.2587,0.1465,0.0166,-0.0647,-0.1794,-0.3005,-0.3993,-0.4391,-0.4622,-0.5136,-0.5416,-0.5914,-0.7776,-0.8469,-0.9134,-1.0881,-1.1997,-1.2812,-1.3439,-1.4494,-1.5576,-1.6262,-1.6541,-1.6804,-1.7136,-1.7471,-1.7488,-1.6831,-1.6712,-1.6608,-1.6283,-1.6301,-1.6654,-1.7489,-1.8156,-1.866,-1.8966,-1.9182,-1.9365,-1.9541,-1.9555,-1.9663,-1.9943,-1.9954,-2.0088,-2.0361,-2.038,-2.045,-2.0605,-2.0605,-2.0605,-2.0605,-2.0605,-2.1074,-2.1992,-2.2682,-2.3489,0.0,0.0448,0.1029,0.1652,0.2428,0.3208,0.3778,0.4554,0.0,0.4996,0.5248,0.5405,0.5096,0.495,0.4808,0.4655,0.4761,0.4979,0.5286,0.5714,0.6302,0.0,0.746,0.7883,0.8374,0.8427,0.0,0.0,0.0,0.8533,0.7937,0.7883,0.8057,0.8457,0.8163,0.7956,0.7849,0.7849,0.7695,0.7432,0.7432,0.7218,0.6859,0.6528,0.5994,0.5286,0.5168,0.0,0.417,0.4392,0.4519,0.4519,0.4519,0.407,0.3342,0.3154,0.255,0.1614,0.0276,-0.0332,-0.0885,-0.2752,-0.3872,-0.4494,-0.4424,-0.495,-0.5592,-0.5968,-0.7351,-0.8723,-0.8883,-1.0409,-1.2067,-1.2464,-1.3372,-1.4538,-1.6077,-1.7075,-1.7663,-1.7604,-1.765,-1.7488,-1.6831,-1.6712,-1.6518,-1.5975,-1.6355,-1.6773,-1.6952,-1.7676,-1.8399,-1.8949,-1.9182,-1.9305,-1.935,-1.935,-1.9438,-1.9656,-1.9774,-1.9943,-2.0219,-2.0341,-2.045,-2.0605,-2.0605,-2.0605,-2.0605,-2.0605,-2.1387,-2.2871,-2.2958,-2.3812,0.009,0.0225,0.0672,0.1563,0.2072,0.2631,0.3734,0.448,0.4977,0.5064,0.5512,0.5702,0.5185,0.5077,0.49,0.4496,0.4448,0.4694,0.5398,0.5863,0.6591,0.7953,0.8497,0.8935,0.9309,0.9309,0.0,0.0,0.0,0.8646,0.8268,0.8262,0.8364,0.8604,0.8804,0.8841,0.8678,0.9048,0.8877,0.8239,0.8239,0.7941,0.7457,0.7031,0.6479,0.5738,0.5411,0.0,0.4207,0.4402,0.4519,0.4519,0.4519,0.4194,0.3743,0.3353,0.2997,0.2433,0.099,0.0263,-0.0215,-0.1532,-0.276,-0.3836,-0.4017,-0.4381,-0.4796,-0.5207,-0.6018,-0.7047,-0.7957,-0.923,-1.0552,-1.1575,-1.3088,-1.4528,-1.5372,-1.614,-1.6559,-1.6193,-1.6258,-1.6177,-1.5638,-1.5934,-1.604,-1.5536,-1.6065,-1.6607,-1.6789,-1.7442,-1.8121,-1.8734,-1.9,-1.9198,-1.9289,-1.9305,-1.9398,-1.9601,-1.9744,-1.9903,-2.0142,-2.0302,-2.045,-2.0547,-2.0586,-2.0605,-2.0605,-2.0605,-2.1465,-2.3105,-2.3075,-2.3932,0.0313,0.009,0.0269,0.134,0.1716,0.2146,0.3496,0.4299,0.481,0.5131,0.5563,0.5771,0.5346,0.5129,0.4901,0.4486,0.4255,0.4472,0.5418,0.6086,0.7007,0.8343,0.9261,0.0,0.9614,0.971,0.0,0.0,0.0,0.0,0.8804,0.8804,0.8804,0.8804,0.9309,0.9541,0.9482,1.0017,0.9835,0.8986,0.8911,0.8569,0.7882,0.744,0.6852,0.6131,0.5701,0.0,0.0,0.4422,0.4433,0.4519,0.4519,0.4392,0.4168,0.3556,0.3384,0.3187,0.1827,0.1054,0.0523,-0.0393,-0.1802,-0.318,-0.3614,-0.3916,-0.416,-0.4713,-0.4977,-0.5524,-0.7138,-0.8171,-0.9291,-1.1057,-1.302,-1.4518,-1.4549,-1.4965,-1.5177,-1.4712,-1.4837,-1.4876,-1.4564,-1.5074,-1.5418,-1.5134,-1.5695,-1.6324,-1.6738,-1.7287,-1.7842,-1.845,-1.8807,-1.9069,-1.9212,-1.9274,-1.9365,-1.9527,-1.9701,-1.9871,-2.0075,-2.0295,-2.0435,-2.0527,-2.0566,-2.0605,-2.0605,-2.0605,-2.1465,-2.3105,-2.3105,-2.3968,0.0797,0.0403,0.018,0.0806,0.1751,0.2641,0.3082,0.4371,0.5482,0.5471,0.5704,0.5881,0.5845,0.5617,0.546,0.5461,0.55,0.5567,0.5685,0.6654,0.7361,0.7294,0.0,0.0,0.8956,0.9465,0.0,0.0,0.0,0.0,0.8804,0.8804,0.8804,0.8804,0.8857,0.9197,0.9769,0.982,0.9706,0.9332,0.9024,0.8569,0.7882,0.7834,0.7427,0.6701,0.6404,0.0,0.0,0.4467,0.4345,0.4519,0.4519,0.4508,0.4426,0.4174,0.4211,0.4235,0.3077,0.2771,0.2475,0.0556,-0.1453,-0.3111,-0.304,-0.3556,-0.4147,-0.4106,-0.4669,-0.5378,-0.5679,-0.7145,-0.906,-1.1259,-1.286,-1.3864,-1.374,-1.4234,-1.4626,-1.4479,-1.4499,-1.4533,-1.4501,-1.4564,-1.4721,-1.5043,-1.5418,-1.5945,-1.6696,-1.7126,-1.7562,-1.8187,-1.8679,-1.9019,-1.9018,-1.918,-1.9305,-1.932,-1.9619,-1.9858,-1.9998,-2.0267,-2.0454,-2.0586,-2.0605,-2.0605,-2.0605,-2.0605,-2.1465,-2.3105,-2.3105,-2.3988,0.0942,0.0396,0.0135,0.0761,0.1378,0.2076,0.31,0.4208,0.514,0.5637,0.6045,0.6236,0.5966,0.5819,0.5586,0.5119,0.4947,0.4934,0.5132,0.5963,0.6831,0.7622,0.882,0.0,0.0,0.0,0.0,0.0,0.0,0.0,0.8804,0.8804,0.8804,0.8804,0.9211,0.951,0.9814,1.0618,1.064,0.9898,0.9811,0.9306,0.8381,0.8065,0.7481,0.6786,0.6694,0.0,0.0,0.4972,0.4797,0.4812,0.4587,0.4678,0.4892,0.4316,0.4397,0.4656,0.3268,0.2883,0.2724,0.1074,-0.0242,-0.1358,-0.2057,-0.2459,-0.2817,-0.3229,-0.3541,-0.3927,-0.4803,-0.6918,-0.9182,-1.0488,-1.2122,-1.3313,-1.3001,-1.338,-1.3788,-1.3754,-1.3951,-1.4052,-1.3769,-1.4149,-1.4564,-1.4721,-1.5227,-1.5834,-1.6405,-1.6773,-1.7175,-1.7608,-1.8173,-1.8659,-1.8966,-1.9146,-1.9298,-1.9471,-1.9755,-1.996,-2.0061,-2.0284,-2.0443,-2.0551,-2.0573,-2.0605,-2.0605,-2.1133,-2.1992,-2.3164,-2.3652,-2.4505,0.1569,0.1069,0.0789,0.1183,0.1734,0.2477,0.3501,0.4388,0.5186,0.5838,0.6325,0.6465,0.6063,0.5936,0.5697,0.5049,0.4662,0.4538,0.4765,0.5406,0.6212,0.7258,0.0,0.9229,0.0,0.0,0.0,0.0,0.0,0.0,0.0,0.9106,0.9008,0.8811,0.9263,0.9614,0.9814,1.0914,1.1077,1.0188,1.0225,0.9714,0.8695,0.8056,0.7547,0.7128,0.0,0.0,0.0,0.538,0.5118,0.5076,0.457,0.4652,0.4896,0.4422,0.4492,0.4679,0.3635,0.3289,0.3088,0.1891,0.1216,0.069,-0.0608,-0.138,-0.1938,-0.2419,-0.2733,-0.3175,-0.4211,-0.6545,-0.8814,-0.9369,-1.0988,-1.2341,-1.207,-1.2435,-1.285,-1.3003,-1.3275,-1.3433,-1.3232,-1.3702,-1.4149,-1.431,-1.488,-1.5462,-1.6019,-1.6512,-1.6926,-1.7272,-1.776,-1.829,-1.8843,-1.9095,-1.9343,-1.9582,-1.9813,-2.0,-2.012,-2.0302,-2.0448,-2.0529,-2.0588,-2.0605,-2.0605,-2.1211,-2.209,-2.3184,-2.3751,-2.4573,0.293,0.2741,0.2326,0.2206,0.3274,0.4336,0.4305,0.5128,0.5946,0.6151,0.6418,0.6517,0.6254,0.6034,0.5819,0.553,0.5102,0.4797,0.4802,0.5311,0.5712,0.0,0.0,0.8356,0.0,0.0,0.0,0.0,0.0,0.0,0.0,0.9762,0.9465,0.8804,0.8811,0.9113,0.9814,1.0466,1.059,1.0188,1.0006,0.9474,0.8687,0.7875,0.7635,0.0,0.0,0.0,0.0,0.5576,0.5102,0.5064,0.4453,0.4197,0.4282,0.4727,0.4618,0.4254,0.4562,0.4477,0.4059,0.315,0.2985,0.281,0.1329,-0.0478,-0.1951,-0.183,-0.2631,-0.3563,-0.3896,-0.5799,-0.7719,-0.8061,-0.9487,-1.0838,-1.0838,-1.1286,-1.1871,-1.2335,-1.2473,-1.265,-1.3129,-1.3198,-1.3357,-1.3835,-1.4246,-1.4786,-1.5519,-1.6305,-1.6926,-1.7272,-1.7595,-1.8035,-1.8547,-1.9031,-1.9398,-1.9601,-1.9726,-1.9915,-2.0191,-2.0321,-2.045,-2.0605,-2.0605,-2.0605,-2.0605,-2.0605,-2.1465,-2.3105,-2.3121,-2.3964,0.2766,0.2428,0.2201,0.1985,0.2632,0.3429,0.387,0.4745,0.5626,0.6107,0.6418,0.6517,0.6254,0.6147,0.6215,0.6543,0.6196,0.5889,0.5909,0.0,0.0,0.6357,0.774,0.8812,0.0,0.0,0.0,0.0,0.0,0.0,0.0,0.9562,0.9909,1.0167,0.971,0.9562,0.9814,1.0466,1.0467,0.9727,1.0254,0.9882,0.8683,0.8253,0.0,0.0,0.0,0.0,0.0,0.6258,0.5741,0.5503,0.4733,0.4985,0.5766,0.5362,0.5379,0.5649,0.514,0.4599,0.3948,0.3273,0.3051,0.2932,0.2073,0.0989,-0.0055,-0.095,-0.1722,-0.2538,-0.3417,-0.5042,-0.6574,-0.7194,-0.8281,-0.9371,-1.015,-1.0498,-1.0912,-1.1757,-1.1997,-1.2066,-1.221,-1.2246,-1.252,-1.3234,-1.3457,-1.3971,-1.5107,-1.5492,-1.5963,-1.685,-1.7223,-1.7715,-1.8528,-1.8824,-1.9179,-1.9713,-1.9869,-2.004,-2.0259,-2.0357,-2.0431,-2.0527,-2.0586,-2.0605,-2.0605,-2.1191,-2.2344,-2.4004,-2.4555,-2.5052,0.3506,0.3268,0.3216,0.2975,0.3419,0.4014,0.4488,0.5072,0.5692,0.6241,0.6483,0.6552,0.6371,0.6213,0.6229,0.6686,0.6339,0.614,0.0,0.0,0.0,0.6943,0.0,0.0,0.0,0.0,0.0,0.0,0.0,0.0,0.0,0.9562,1.0218,1.1166,1.0388,0.989,0.9814,1.0401,1.0328,0.9512,1.0188,0.988,0.8692,0.8415,0.0,0.0,0.0,0.0,0.0,0.6989,0.6571,0.6266,0.5384,0.565,0.6486,0.6054,0.6076,0.6335,0.5736,0.5094,0.4444,0.3755,0.3345,0.3045,0.276,0.212,0.1331,0.0429,-0.0413,-0.1287,-0.2282,-0.3753,-0.5168,-0.5873,-0.698,-0.8059,-0.8754,-0.9452,-1.0156,-1.0983,-1.1323,-1.1542,-1.1774,-1.1811,-1.2054,-1.2765,-1.3004,-1.3532,-1.4707,-1.5136,-1.5636,-1.6528,-1.6978,-1.7563,-1.8338,-1.8699,-1.9133,-1.9767,-1.988,-2.0031,-2.0285,-2.0366,-2.0437,-2.0508,-2.0898,-2.1094,-2.1094,-2.2266,-2.3223,-2.3965,-2.5049,-2.5539,0.0,0.49,0.4977,0.4823,0.5227,0.5725,0.5859,0.5908,0.0,0.651,0.6599,0.6611,0.6649,0.6242,0.6018,0.6372,0.593,0.0,0.0,0.66,0.0,0.0,0.0,0.0,0.0,0.0,0.0,0.0,0.0,0.0,0.0,0.9762,1.0364,1.1616,1.0685,1.0082,0.9879,1.0403,1.0256,0.9517,0.9969,0.9659,0.8806,0.8496,0.0,0.0,0.0,0.0,0.0,0.7765,0.7404,0.7217,0.6349,0.6252,0.6509,0.6777,0.669,0.6478,0.637,0.5976,0.5354,0.4513,0.3782,0.3215,0.3427,0.2899,0.2272,0.2043,0.1191,0.0149,-0.0622,-0.2106,-0.3544,-0.4164,-0.5626,-0.6868,-0.7014,-0.8252,-0.9469,-1.003,-1.0524,-1.1008,-1.1542,-1.1627,-1.1811,-1.2318,-1.2753,-1.3344,-1.4328,-1.5078,-1.5721,-1.6285,-1.6885,-1.7482,-1.8063,-1.8643,-1.9193,-1.9743,-1.979,-1.9941,-2.0269,-2.0342,-2.0452,-2.0585,-2.1504,-2.1953,-2.1894,-2.3574,-2.3984,-2.3242,-2.4784,-2.5499,0.5056,0.0,0.5034,0.4774,0.5147,0.5592,0.0,0.5975,0.6234,0.6525,0.6599,0.6724,0.7131,0.6443,0.6447,0.8347,0.0,0.0,0.7886,0.0,0.0,0.8118,0.0,0.0,0.0,0.0,0.0,0.0,0.0,0.0,0.0,0.951,0.9969,1.0261,0.9963,1.0186,1.0836,1.1004,1.0659,0.9805,1.0438,1.0386,0.9763,0.9407,0.0,0.0,0.0,0.0,0.834,0.7866,0.7518,0.7251,0.6702,0.6834,0.7412,0.7454,0.7471,0.7412,0.7359,0.6533,0.537,0.4638,0.43,0.4197,0.4229,0.3735,0.3005,0.2321,0.1947,0.1446,0.0248,-0.1125,-0.2438,-0.3453,-0.4374,-0.5458,-0.7087,-0.7525,-0.7976,-0.9257,-0.9383,-0.9421,-0.9933,-1.005,-1.0321,-1.1234,-1.1777,-1.2543,-1.3808,-1.4414,-1.5242,-1.6538,-1.6841,-1.7256,-1.8111,-1.8491,-1.8964,-1.9604,-1.9738,-1.988,-2.006,-2.0225,-2.0676,-2.1399,-2.2338,-2.2519,-2.1894,-2.3574,-2.3984,-2.3242,-2.4821,-2.555,0.5472,0.544,0.5415,0.5439,0.5533,0.5763,0.628,0.6128,0.5979,0.6348,0.6331,0.6373,0.666,0.6129,0.6171,0.7774,0.7476,0.0,0.0,0.0,0.8172,0.0,0.0,0.0,0.0,0.0,0.0,0.0,0.0,0.0,0.0,0.862,0.8974,0.9273,0.9597,0.9963,1.0381,1.0381,1.0135,0.9547,1.0442,1.0609,1.0116,1.0202,0.9953,0.0,0.0,0.0,0.8584,0.8311,0.8128,0.7939,0.7593,0.7729,0.8196,0.8072,0.8103,0.8156,0.783,0.674,0.5378,0.4732,0.4519,0.4556,0.47,0.4509,0.4022,0.3322,0.288,0.2403,0.1401,0.0144,-0.1193,-0.2425,-0.3591,-0.4732,-0.6012,-0.6848,-0.7559,-0.8142,-0.8279,-0.8488,-0.903,-0.8893,-0.9147,-1.0456,-1.1062,-1.1985,-1.3598,-1.4205,-1.5031,-1.6405,-1.6712,-1.7109,-1.7902,-1.8353,-1.8824,-1.9372,-1.9657,-1.9858,-1.9984,-2.0581,-2.1527,-2.2869,-2.3396,-2.3457,-2.3047,-2.4355,-2.457,-2.3789,-2.5019,-2.5556,0.5945,0.5961,0.5994,0.6128,0.6034,0.6095,0.6834,0.6296,0.5789,0.626,0.6208,0.6109,0.6129,0.5769,0.0,0.0,0.0,0.0,0.8048,0.8439,0.8665,0.0,0.0,0.0,0.0,0.0,0.0,0.0,0.0,0.0,0.0,0.7576,0.777,0.837,0.8964,0.9191,0.9082,0.9421,0.9475,0.9255,1.033,1.07,1.0444,1.0976,1.0598,0.0,0.0,0.0,0.8804,0.8804,0.8804,0.8784,0.8537,0.8591,0.8778,0.853,0.8597,0.8699,0.7937,0.6794,0.5542,0.4897,0.4608,0.4678,0.5035,0.522,0.5139,0.4684,0.3994,0.3216,0.2566,0.1372,0.0,-0.1337,-0.2921,-0.4236,-0.4634,-0.6118,-0.7224,-0.6826,-0.7099,-0.759,-0.8203,-0.7934,-0.8197,-0.972,-1.0492,-1.1578,-1.3439,-1.4173,-1.497,-1.6258,-1.6633,-1.7035,-1.7665,-1.8319,-1.8877,-1.9273,-1.9721,-2.0081,-2.0365,-2.1396,-2.2688,-2.4269,-2.4433,-2.4473,-2.4394,-2.5273,-2.5254,-2.4414,-2.5234,-2.5577,0.6116,0.641,0.6475,0.5804,0.6009,0.6433,0.6557,0.6461,0.6485,0.6947,0.7036,0.7043,0.7157,0.6205,0.5832,0.0,0.0,0.7675,0.0,0.0,0.0,0.0,0.0,0.0,0.0,0.0,0.0,0.0,0.0,0.0,0.0,0.6985,0.6702,0.6897,0.6806,0.7047,0.7639,0.9252,1.003,0.9929,1.0398,1.1064,1.1839,1.1426,1.0985,0.0,0.0,0.9413,0.8804,0.8804,0.8804,0.8804,0.8758,0.8764,0.8804,0.8758,0.8771,0.8699,0.7937,0.7128,0.6312,0.5601,0.5173,0.5072,0.5354,0.5648,0.5902,0.6168,0.547,0.4389,0.3381,0.2039,0.0645,-0.0698,-0.203,-0.3283,-0.4435,-0.4835,-0.5077,-0.547,-0.5642,-0.5845,-0.6416,-0.6848,-0.7515,-0.8673,-1.0002,-1.1421,-1.2951,-1.3939,-1.5077,-1.6565,-1.6763,-1.7068,-1.7726,-1.865,-1.9335,-1.9697,-2.0294,-2.1078,-2.2068,-2.3026,-2.378,-2.4292,-2.5013,-2.5078,-2.4394,-2.5273,-2.5254,-2.4414,-2.5273,-2.5644,0.6416,0.6535,0.6456,0.5692,0.6002,0.6568,0.6825,0.6457,0.6163,0.6477,0.6463,0.6399,0.6475,0.0,0.5933,0.7062,0.0,0.0,0.0,0.0,0.0,0.0,0.0,0.0,0.0,0.0,0.0,0.0,0.0,0.0,0.0,0.0,0.6191,0.6032,0.6265,0.653,0.6713,0.8114,0.8994,0.9367,1.0414,1.1049,1.1323,1.1865,1.1698,1.0982,0.0,0.9961,0.9309,0.8962,0.8804,0.8804,0.8804,0.8804,0.8804,0.8804,0.8533,0.8156,0.783,0.7235,0.6534,0.6199,0.5894,0.5775,0.6115,0.6188,0.626,0.6428,0.5822,0.5038,0.4623,0.3119,0.145,0.0422,-0.1049,-0.2472,-0.3498,-0.4081,-0.4465,-0.4778,-0.4826,-0.4995,-0.5588,-0.5893,-0.6561,-0.7944,-0.927,-1.0726,-1.2459,-1.3532,-1.4637,-1.6001,-1.6549,-1.6993,-1.7502,-1.862,-1.971,-2.066,-2.1173,-2.1934,-2.3,-2.3561,-2.4129,-2.4707,-2.527,-2.5379,-2.5059,-2.5488,-2.5488,-2.5117,-2.5508,-2.5664,0.6782,0.6625,0.635,0.5736,0.5917,0.6376,0.6888,0.6335,0.5864,0.6244,0.622,0.6079,0.5981,0.5914,0.0,0.6787,0.7286,0.0,0.0,0.0,0.0,0.0,0.0,0.0,0.0,0.0,0.0,0.0,0.0,0.0,0.0,0.0,0.5906,0.5416,0.6013,0.6231,0.6058,0.6977,0.7844,0.8616,1.0097,1.0792,1.0903,1.2016,1.209,1.1343,1.0947,1.0415,0.9762,0.9061,0.8804,0.8804,0.8804,0.8804,0.8804,0.8804,0.8427,0.7943,0.7777,0.7235,0.6588,0.6421,0.6269,0.6258,0.658,0.6694,0.6734,0.6734,0.6142,0.5514,0.5441,0.3928,0.2188,0.1321,-0.0156,-0.1564,-0.2498,-0.3269,-0.3847,-0.3953,-0.3993,-0.4256,-0.4957,-0.5216,-0.5802,-0.7383,-0.8641,-1.0089,-1.1987,-1.3048,-1.4124,-1.5447,-1.6292,-1.7114,-1.7971,-1.9077,-2.0337,-2.1803,-2.2113,-2.2691,-2.369,-2.3922,-2.4366,-2.5081,-2.5348,-2.552,-2.5605,-2.5644,-2.5684,-2.5703,-2.5703,-2.5664,0.7113,0.6836,0.6383,0.5907,0.5637,0.5637,0.6219,0.612,0.6161,0.7101,0.7276,0.7162,0.68,0.6624,0.6539,0.6621,0.0,0.0,0.0,0.0,0.0,0.0,0.0,0.0,0.0,0.0,0.0,0.0,0.0,0.0,0.0,0.0,0.0,0.5124,0.54,0.5588,0.5575,0.6303,0.7244,0.8319,0.9151,1.0303,1.1724,1.1561,1.1606,1.172,1.1107,1.0415,0.9762,0.9061,0.8804,0.8804,0.8804,0.8804,0.8804,0.8804,0.8752,0.8646,0.7943,0.7235,0.6475,0.5819,0.5836,0.6186,0.6217,0.6965,0.7801,0.7801,0.7014,0.599,0.528,0.4079,0.2726,0.1432,0.054,-0.0313,-0.1772,-0.2043,-0.2147,-0.2692,-0.2804,-0.3158,-0.4256,-0.4913,-0.5685,-0.6862,-0.8407,-0.9964,-1.1475,-1.2516,-1.3788,-1.5418,-1.6203,-1.7619,-2.0049,-2.0636,-2.1523,-2.2982,-2.2984,-2.338,-2.4381,-2.4622,-2.4848,-2.5101,-2.5303,-2.548,-2.5605,-2.5605,-2.5644,-2.5703,-2.5703,-2.5703,0.7172,0.7032,0.6784,0.6388,0.6036,0.5803,0.5894,0.5991,0.6298,0.7015,0.7015,0.6841,0.6719,0.0,0.6904,0.7128,0.0,0.0,0.0,0.0,0.0,0.0,0.0,0.0,0.0,0.0,0.0,0.0,0.0,0.0,0.0,0.0,0.0,0.4998,0.5172,0.5056,0.4595,0.5375,0.5953,0.6328,0.8561,1.0027,1.0825,1.1407,1.1794,1.2025,1.1617,1.1266,1.0965,0.9865,0.9413,0.9361,0.8956,0.8804,0.8804,0.8804,0.8533,0.8156,0.8321,0.7889,0.7208,0.6838,0.6991,0.7193,0.6838,0.7199,0.7682,0.7829,0.7364,0.6624,0.5952,0.4555,0.3018,0.1998,0.1249,0.0368,-0.1015,-0.1271,-0.1408,-0.2024,-0.245,-0.2849,-0.329,-0.4125,-0.512,-0.6253,-0.7575,-0.8984,-1.0538,-1.1868,-1.3014,-1.3937,-1.5566,-1.7425,-1.9467,-2.0466,-2.1445,-2.2452,-2.3088,-2.3707,-2.4284,-2.4623,-2.4842,-2.4917,-2.522,-2.5423,-2.5473,-2.557,-2.5605,-2.5644,-2.5684,-2.5703,0.7114,0.6913,0.6647,0.6327,0.6076,0.5865,0.5716,0.5872,0.6206,0.6887,0.686,0.6727,0.6727,0.0,0.0,0.0,0.0,0.0,0.0,0.0,0.0,0.0,0.0,0.0,0.0,0.0,0.0,0.0,0.0,0.0,0.0,0.0,0.0,0.0,0.5385,0.5023,0.4267,0.4926,0.5174,0.5144,0.7822,0.9372,1.0027,1.0916,1.1764,1.2404,1.196,1.1814,1.1715,1.0364,0.9666,0.9465,0.8956,0.8804,0.8804,0.8804,0.848,0.8103,0.8374,0.8103,0.7629,0.7206,0.7362,0.7607,0.7164,0.7232,0.7553,0.7722,0.7412,0.6881,0.6252,0.5048,0.3736,0.2779,0.2191,0.1441,0.0052,-0.0249,-0.0527,-0.1331,-0.1846,-0.2317,-0.2846,-0.3591,-0.4591,-0.5919,-0.7086,-0.831,-0.9769,-1.1143,-1.2401,-1.3549,-1.551,-1.7443,-1.9119,-2.0326,-2.1317,-2.2062,-2.2912,-2.3566,-2.4016,-2.4476,-2.4731,-2.4804,-2.5099,-2.533,-2.5409,-2.5488,-2.5568,-2.5605,-2.562,-2.566,0.696,0.6418,0.5854,0.5573,0.5599,0.5722,0.5718,0.5718,0.5965,0.6799,0.7027,0.6985,0.7027,0.6985,0.0,0.0,0.0,0.0,0.0,0.0,0.0,0.0,0.0,0.0,0.0,0.0,0.0,0.0,0.0,0.0,0.0,0.0,0.0,0.0,0.6139,0.5634,0.4902,0.5042,0.5091,0.5086,0.6695,0.8197,0.9537,1.0116,1.1327,1.2832,1.2129,1.1814,1.1715,1.0364,0.9413,0.8804,0.8804,0.8804,0.8804,0.8804,0.8804,0.8692,0.7937,0.7717,0.7517,0.652,0.6708,0.7232,0.691,0.7127,0.7513,0.752,0.7161,0.6642,0.597,0.559,0.5008,0.3704,0.34,0.2982,0.1443,0.1085,0.0698,-0.0623,-0.0875,-0.1428,-0.319,-0.3497,-0.4113,-0.5916,-0.7113,-0.8197,-0.9257,-1.033,-1.1986,-1.46,-1.622,-1.7788,-1.943,-2.0452,-2.1305,-2.204,-2.2468,-2.2996,-2.3671,-2.4211,-2.4591,-2.479,-2.4943,-2.5138,-2.5399,-2.5409,-2.5473,-2.5605,-2.5522,-2.5567,0.6785,0.6711,0.6672,0.6341,0.6399,0.6585,0.6724,0.6546,0.646,0.6927,0.7317,0.7595,0.7375,0.7515,0.0,0.0,0.0,0.0,0.0,0.0,0.0,0.0,0.0,0.0,0.0,0.0,0.0,0.0,0.0,0.0,0.0,0.0,0.0,0.0,0.5621,0.5116,0.3985,0.4134,0.4134,0.4073,0.5166,0.6744,0.8834,1.0129,1.1221,1.2138,1.2452,1.2559,1.2461,1.1074,0.9814,0.8804,0.8804,0.8804,0.8784,0.8577,0.8504,0.847,0.8009,0.8017,0.8031,0.7142,0.7261,0.7643,0.7164,0.7377,0.7836,0.8049,0.816,0.8062,0.7333,0.707,0.6386,0.3938,0.3345,0.3037,0.2081,0.1806,0.1593,0.1196,0.0367,-0.0445,-0.0932,-0.2085,-0.324,-0.4156,-0.5604,-0.7437,-0.969,-1.0912,-1.211,-1.3614,-1.5524,-1.7043,-1.791,-1.9511,-2.0732,-2.1305,-2.1927,-2.2712,-2.3671,-2.3985,-2.43,-2.4575,-2.4771,-2.493,-2.5107,-2.5166,-2.5281,-2.5453,-2.5545,-2.5597,0.6789,0.6847,0.6928,0.6684,0.6882,0.7107,0.7119,0.6915,0.6807,0.6987,0.7408,0.7689,0.7547,0.7722,0.0,0.0,0.0,0.0,0.0,0.0,0.0,0.0,0.0,0.0,0.0,0.0,0.0,0.0,0.0,0.0,0.0,0.0,0.0,0.0,0.5611,0.5049,0.4272,0.3886,0.3663,0.3626,0.4492,0.5758,0.7429,0.94,1.078,1.1686,1.2359,1.2464,1.2148,1.0888,0.9714,0.8753,0.8508,0.8457,0.8437,0.8263,0.8196,0.819,0.813,0.8223,0.8293,0.7807,0.7853,0.8054,0.7707,0.7727,0.7996,0.829,0.8504,0.8475,0.7733,0.7594,0.7117,0.4714,0.4168,0.3871,0.2875,0.2551,0.2347,0.205,0.1298,0.0579,0.0089,-0.1111,-0.2352,-0.3365,-0.5177,-0.7197,-0.9309,-1.0512,-1.1708,-1.3198,-1.5062,-1.6578,-1.7522,-1.9275,-2.0516,-2.0959,-2.1579,-2.2317,-2.3259,-2.3663,-2.4005,-2.4301,-2.4556,-2.4756,-2.493,-2.5,-2.5137,-2.5274,-2.5413,-2.5507,0.6865,0.6848,0.6821,0.6731,0.7023,0.731,0.7066,0.6979,0.6985,0.697,0.0,0.7373,0.7399,0.0,0.0,0.0,0.0,0.0,0.0,0.0,0.0,0.0,0.0,0.0,0.0,0.0,0.0,0.0,0.0,0.0,0.0,0.0,0.0,0.6937,0.5905,0.5351,0.5303,0.4272,0.3751,0.0,0.4521,0.519,0.5844,0.8241,1.0082,1.1379,1.1918,1.177,1.1062,1.0148,0.9374,0.8702,0.82,0.7977,0.797,0.7896,0.7855,0.7915,0.821,0.838,0.8427,0.8427,0.8427,0.8427,0.8427,0.8183,0.8029,0.8297,0.839,0.8259,0.7631,0.7599,0.7444,0.6032,0.5597,0.5156,0.3782,0.3337,0.2978,0.2315,0.2036,0.1567,0.0445,-0.0355,-0.1461,-0.3318,-0.5481,-0.7356,-0.8513,-0.9619,-1.1062,-1.317,-1.4739,-1.6292,-1.7873,-1.9337,-2.0387,-2.0959,-2.1337,-2.189,-2.2634,-2.33,-2.3762,-2.3968,-2.4301,-2.4559,-2.4775,-2.4898,-2.5019,-2.5091,-2.5245,-2.5371,0.6672,0.6849,0.7044,0.6773,0.6914,0.7073,0.7036,0.6979,0.6911,0.6597,0.6441,0.6342,0.6464,0.0,0.0,0.0,0.0,0.0,0.0,0.0,0.0,0.0,0.0,0.0,0.0,0.0,0.0,0.0,0.0,0.0,0.0,0.0,0.0,0.6392,0.6136,0.5787,0.5308,0.5048,0.4918,0.0,0.4653,0.5067,0.6142,0.7689,0.9314,1.0967,1.1522,1.1334,1.0732,1.0507,0.9967,0.929,0.8749,0.8522,0.844,0.7832,0.7722,0.7855,0.7722,0.8024,0.8427,0.8427,0.8427,0.8427,0.8427,0.833,0.829,0.8357,0.8537,0.8659,0.8502,0.8541,0.8315,0.7444,0.6357,0.5433,0.5101,0.4474,0.3904,0.3639,0.3096,0.2546,0.2192,0.0844,-0.1107,-0.3796,-0.5391,-0.6999,-0.8895,-1.0109,-1.1369,-1.3081,-1.4597,-1.6019,-1.7356,-1.8431,-1.9605,-2.0927,-2.1086,-2.1507,-2.2343,-2.2982,-2.3459,-2.3759,-2.4096,-2.4357,-2.4559,-2.4741,-2.4898,-2.5038,-2.5262,-2.5399,0.6869,0.7069,0.7297,0.7306,0.7393,0.7363,0.7063,0.681,0.6588,0.6445,0.6337,0.6329,0.0,0.0,0.0,0.0,0.0,0.0,0.0,0.0,0.0,0.0,0.0,0.0,0.0,0.0,0.0,0.0,0.0,0.0,0.0,0.6979,0.6852,0.6598,0.6349,0.605,0.5739,0.5437,0.5303,0.5303,0.5,0.5308,0.6233,0.7907,0.9469,1.0829,1.1113,1.107,1.0708,1.0258,0.9828,0.9417,0.8768,0.8423,0.8261,0.7864,0.7695,0.7729,0.7856,0.8158,0.8397,0.8537,0.8577,0.8577,0.8577,0.8577,0.8577,0.8577,0.8691,0.8804,0.8804,0.8804,0.8699,0.8315,0.7391,0.647,0.6091,0.5354,0.4684,0.4649,0.3938,0.3202,0.2858,0.1262,-0.071,-0.2827,-0.4517,-0.6255,-0.8216,-0.958,-1.1147,-1.3395,-1.4771,-1.6073,-1.7567,-1.8773,-1.9891,-2.0943,-2.1181,-2.1584,-2.2282,-2.2747,-2.3117,-2.3437,-2.3795,-2.4077,-2.4357,-2.4561,-2.4741,-2.4904,-2.5115,-2.5271,0.7224,0.7308,0.752,0.8029,0.8008,0.7796,0.7266,0.6816,0.6496,0.6481,0.6435,0.0,0.0,0.0,0.0,0.0,0.0,0.0,0.0,0.0,0.0,0.0,0.0,0.0,0.0,0.0,0.0,0.0,0.0,0.0,0.7147,0.7147,0.7189,0.7314,0.6774,0.6477,0.6477,0.591,0.5604,0.5604,0.5604,0.5825,0.6276,0.8167,0.9581,1.0434,1.0573,1.0719,1.0731,0.9974,0.9637,0.9554,0.8794,0.8315,0.8029,0.7969,0.7815,0.7668,0.8232,0.841,0.849,0.8731,0.8804,0.8804,0.8804,0.8804,0.8804,0.8804,0.8804,0.8804,0.8804,0.8804,0.8804,0.8804,0.8321,0.767,0.6966,0.6125,0.5523,0.5492,0.4681,0.3731,0.3004,0.1364,-0.0312,-0.1612,-0.3582,-0.5621,-0.765,-0.902,-1.0995,-1.4026,-1.5047,-1.6283,-1.8076,-1.9409,-2.0391,-2.0959,-2.1368,-2.1794,-2.2282,-2.2527,-2.2797,-2.3189,-2.3522,-2.3837,-2.4113,-2.4374,-2.4594,-2.476,-2.4911,-2.5088,0.7493,0.7379,0.7518,0.846,0.8316,0.7945,0.7803,0.7704,0.7545,0.0,0.0,0.0,0.0,0.0,0.0,0.0,0.0,0.0,0.0,0.0,0.0,0.0,0.0,0.0,0.0,0.0,0.0,0.0,0.0,0.0,0.7746,0.7787,0.7987,0.8472,0.7946,0.7663,0.7663,0.7063,0.6768,0.6768,0.6768,0.6556,0.6227,0.7489,0.8411,0.9021,0.9497,0.9958,1.0361,1.0225,1.0196,1.0127,0.9582,0.9041,0.8569,0.8325,0.8088,0.7916,0.8257,0.8537,0.8758,0.8798,0.8804,0.8804,0.8804,0.8804,0.8804,0.8804,0.8804,0.8804,0.8804,0.8804,0.8804,0.8804,0.8699,0.8427,0.7723,0.694,0.6376,0.6292,0.5455,0.4337,0.2982,0.1649,0.0134,-0.1712,-0.3638,-0.5914,-0.8702,-0.9811,-1.1575,-1.4942,-1.5337,-1.6283,-1.8593,-1.9245,-1.9954,-2.0927,-2.1368,-2.1794,-2.2282,-2.2321,-2.2607,-2.3189,-2.3522,-2.3714,-2.3774,-2.4266,-2.4512,-2.4561,-2.4858,-2.5022,0.7962,0.7941,0.7999,0.8309,0.8433,0.8278,0.7661,0.7695,0.7746,0.7105,0.0,0.0,0.0,0.0,0.0,0.0,0.0,0.0,0.0,0.0,0.0,0.0,0.0,0.0,0.0,0.0,0.0,0.0,0.0,0.7739,0.8316,0.8357,0.8439,0.8675,0.848,0.8357,0.8357,0.8103,0.7814,0.7489,0.6859,0.6605,0.6647,0.6859,0.7607,0.8724,0.9279,0.9804,1.0283,1.0283,1.0283,1.0264,0.9885,0.9505,0.9174,0.931,0.8919,0.8405,0.8991,0.9003,0.8804,0.8804,0.8804,0.8804,0.8804,0.8804,0.8804,0.8804,0.8804,0.8804,0.8804,0.8804,0.8804,0.8804,0.8804,0.8699,0.8374,0.7723,0.6951,0.5987,0.5443,0.4739,0.3543,0.2677,0.1422,-0.0657,-0.2376,-0.4701,-0.833,-0.9502,-1.1411,-1.5091,-1.5727,-1.6702,-1.8736,-1.9764,-2.048,-2.0975,-2.1615,-2.2077,-2.2282,-2.231,-2.2508,-2.2923,-2.3236,-2.3588,-2.3976,-2.421,-2.4393,-2.4512,-2.4648,-2.478,0.8158,0.8131,0.8068,0.796,0.8262,0.8379,0.7486,0.0,0.7743,0.0,0.0,0.0,0.0,0.0,0.0,0.0,0.0,0.0,0.0,0.0,0.0,0.0,0.0,0.0,0.0,0.0,0.0,0.0,0.0,0.8357,0.8878,0.8918,0.8958,0.9119,0.8958,0.8918,0.8918,0.8756,0.8439,0.787,0.7027,0.6774,0.6979,0.6605,0.7182,0.8521,0.9079,0.9597,1.0127,1.0244,1.0283,1.0273,1.009,0.9772,0.9564,1.01,0.9604,0.879,0.9539,0.9361,0.8804,0.8804,0.8804,0.8804,0.8804,0.8804,0.8804,0.8804,0.8804,0.8804,0.8804,0.8804,0.8804,0.8804,0.8804,0.8804,0.8804,0.8374,0.7535,0.6142,0.569,0.5272,0.4323,0.3547,0.2391,0.0389,-0.1213,-0.3591,-0.7434,-0.8945,-1.1129,-1.4856,-1.575,-1.6866,-1.875,-1.9974,-2.0748,-2.0991,-2.1721,-2.218,-2.2282,-2.231,-2.248,-2.2822,-2.3069,-2.35,-2.4074,-2.417,-2.4266,-2.4409,-2.4478,-2.4575,0.7875,0.7554,0.7294,0.7409,0.7797,0.8019,0.0,0.0,0.0,0.0,0.0,0.0,0.0,0.0,0.0,0.0,0.0,0.0,0.0,0.0,0.0,0.0,0.0,0.0,0.0,0.0,0.0,0.0,0.0,0.8878,0.9439,0.9439,0.9677,1.0205,0.9725,0.9439,0.9439,0.8958,0.8439,0.7919,0.7829,0.7538,0.6979,0.6979,0.7321,0.7953,0.8521,0.9039,0.9597,1.0079,1.0283,1.0283,1.0264,0.998,0.9578,1.0302,0.9765,0.879,0.9539,0.9361,0.8804,0.8804,0.8804,0.8804,0.8804,0.8804,0.8804,0.8804,0.8804,0.8804,0.8804,0.8804,0.8804,0.8804,0.8804,0.8804,0.8804,0.8752,0.8449,0.7587,0.6815,0.6076,0.5162,0.3953,0.2587,0.1045,-0.0889,-0.3266,-0.6221,-0.8436,-1.093,-1.4213,-1.5136,-1.6473,-1.8712,-1.9368,-2.0043,-2.0926,-2.1399,-2.184,-2.2282,-2.231,-2.2571,-2.3165,-2.3189,-2.3369,-2.3714,-2.4054,-2.4227,-2.4209,-2.441,-2.4512,0.8478,0.7963,0.7461,0.7713,0.7943,0.7967,0.7481,0.7761,0.8033,0.0,0.0,0.0,0.0,0.0,0.0,0.0,0.0,0.0,0.0,0.0,0.0,0.0,0.0,0.0,0.0,0.0,0.0,0.0,0.0,0.0,1.0,1.0,1.0079,1.0283,1.0118,1.0,1.0,0.9478,0.8958,0.8398,0.8077,0.7579,0.6979,0.6979,0.7105,0.7363,0.8308,0.8999,0.9558,1.0079,1.0283,1.0283,1.0283,1.0166,1.0096,1.0942,1.0695,0.9985,1.0318,1.0012,0.9361,0.8962,0.8804,0.8804,0.8804,0.8804,0.8804,0.8804,0.9113,0.9361,0.891,0.9106,0.9309,0.891,0.8804,0.8804,0.8804,0.8804,0.856,0.7763,0.705,0.6398,0.602,0.4856,0.3475,0.184,0.0213,-0.2162,-0.6033,-0.7973,-1.0448,-1.4111,-1.4767,-1.5849,-1.8196,-1.8726,-1.9286,-2.0062,-2.0797,-2.1415,-2.1823,-2.1853,-2.2164,-2.2873,-2.3093,-2.3459,-2.4016,-2.4151,-2.419,-2.419,-2.4266,-2.4192,0.8484,0.7979,0.7465,0.7731,0.7737,0.7634,0.737,0.0,0.0,0.0,0.0,0.0,0.0,0.0,0.0,0.0,0.0,0.0,0.0,0.0,0.0,0.0,0.0,0.0,0.0,0.0,0.0,0.0,0.0,0.0,1.0283,1.0283,1.0283,1.0283,1.0283,1.0283,1.0283,0.9961,0.9478,0.8958,0.8439,0.7863,0.728,0.7105,0.6979,0.7063,0.8021,0.8716,0.9279,1.0186,1.0534,1.0534,1.0534,1.0649,1.0876,1.141,1.128,1.084,1.1049,1.0568,0.9718,0.9263,0.8956,0.8804,0.8804,0.8804,0.8857,0.9061,0.9465,0.9769,0.9517,0.9614,0.9614,0.8956,0.8804,0.8804,0.8804,0.8804,0.8646,0.8156,0.7289,0.6645,0.6812,0.5524,0.4139,0.2997,0.1195,-0.1208,-0.4631,-0.7209,-0.9845,-1.2919,-1.3911,-1.5126,-1.7055,-1.7783,-1.8451,-1.9207,-2.0218,-2.1023,-2.1582,-2.1582,-2.1948,-2.2695,-2.2923,-2.3323,-2.3858,-2.3976,-2.4016,-2.4016,-2.3917,-2.3753,0.0,0.0,0.0,0.0,0.0,0.0,0.7237,0.0,0.0,0.0,0.0,0.0,0.0,0.0,0.0,0.0,0.0,0.0,0.0,0.0,0.0,0.0,0.0,0.0,0.0,0.0,0.0,0.0,0.0,1.0283,1.0283,1.0283,1.0283,1.0283,1.0283,1.0283,1.0283,1.0283,1.004,0.9478,0.8958,0.8439,0.7919,0.7273,0.7021,0.7063,0.7655,0.8201,0.8837,1.0312,1.0981,1.1019,1.0981,1.1319,1.1775,1.1652,1.149,1.1391,1.1679,1.0956,0.985,0.9799,0.934,0.8778,0.8791,0.8791,0.8949,0.9614,0.9814,0.9961,1.061,1.0312,0.9614,0.8956,0.8804,0.8804,0.8804,0.8804,0.8752,0.8752,0.7616,0.6858,0.7557,0.5928,0.4508,0.4429,0.1928,-0.0496,-0.2032,-0.5961,-0.9167,-1.0531,-1.2522,-1.4204,-1.5372,-1.6486,-1.7558,-1.8484,-1.9637,-2.0634,-2.1521,-2.1552,-2.1903,-2.2643,-2.2669,-2.2848,-2.3189,-2.3522,-2.3692,-2.3671,-2.3346,-2.3189,0.7591,0.0,0.0,0.0,0.0,0.0,0.0,0.0,0.0,0.0,0.0,0.0,0.0,0.0,0.0,0.0,0.0,0.0,0.0,0.0,0.0,0.0,0.0,0.0,0.0,0.0,0.0,0.0,0.9922,1.0283,1.0283,1.0283,1.0283,1.0283,1.0283,1.0283,1.0283,1.0283,1.004,0.9478,0.8958,0.8643,0.8431,0.744,0.7238,0.7663,0.7829,0.8201,0.8756,0.9588,1.0321,1.0981,1.0611,1.1029,1.1775,1.1652,1.176,1.1981,1.1872,1.1381,1.0668,0.9802,0.9158,0.8686,0.8575,0.849,0.8684,0.9548,1.0167,1.0568,1.0762,1.0312,0.9614,0.8956,0.8804,0.8804,0.8804,0.8374,0.7996,0.7996,0.7235,0.6858,0.7557,0.5928,0.4673,0.5128,0.2701,0.0055,-0.1922,-0.5061,-0.8047,-1.0422,-1.1702,-1.3062,-1.4755,-1.556,-1.6418,-1.7518,-1.8655,-1.9692,-2.0634,-2.0667,-2.1038,-2.189,-2.2141,-2.2451,-2.2848,-2.3165,-2.3346,-2.3346,-2.2996,-2.2972,0.7296,0.7015,0.6829,0.0,0.0,0.0,0.0,0.6887,0.0,0.0,0.0,0.0,0.0,0.0,0.0,0.0,0.0,0.0,0.0,0.0,0.0,0.0,0.0,0.0,0.0,0.0,0.0,0.9518,1.0,1.0283,1.0283,1.0283,1.0283,1.0283,1.0283,1.0196,0.9961,1.0205,1.004,0.9478,0.9199,0.9039,0.8999,0.8095,0.778,0.7919,0.7919,0.8077,0.8398,0.8958,1.0011,1.1319,1.1244,1.1689,1.2351,1.2039,1.2224,1.2568,1.2148,1.1676,1.1058,0.9912,0.9133,0.8645,0.8276,0.833,0.8693,0.9547,1.0532,1.1345,1.1034,1.0605,1.0064,0.9361,0.9008,0.8699,0.8427,0.7996,0.7723,0.7723,0.6853,0.647,0.7503,0.5928,0.4838,0.5797,0.3197,0.0498,-0.11,-0.4095,-0.6897,-0.916,-1.0588,-1.1966,-1.3348,-1.4471,-1.5392,-1.6065,-1.7397,-1.8513,-1.922,-1.9753,-2.0335,-2.1006,-2.1425,-2.1857,-2.2224,-2.2754,-2.294,-2.2824,-2.2616,-2.2643,0.7031,0.6812,0.6765,0.0,0.0,0.0,0.7111,0.688,0.6495,0.0,0.0,0.0,0.0,0.0,0.0,0.0,0.0,0.0,0.0,0.0,0.0,0.0,0.0,0.0,0.0,0.9147,0.943,0.943,0.9906,1.0146,1.0146,1.0186,1.0215,1.0215,1.0254,1.004,0.9518,1.004,1.004,0.9518,0.9518,0.9518,0.9558,0.8958,0.848,0.8077,0.7953,0.7953,0.8118,0.8594,0.9953,1.1726,1.2174,1.2685,1.3156,1.2617,1.2685,1.3023,1.2559,1.1905,1.1166,1.016,0.934,0.8691,0.8184,0.8379,0.889,0.9636,1.0985,1.2041,1.1442,1.1066,1.0712,0.9961,0.9361,0.8692,0.7883,0.7616,0.7563,0.745,0.6411,0.5923,0.723,0.5823,0.4952,0.6258,0.3479,0.0942,0.0221,-0.2959,-0.5748,-0.7323,-0.935,-1.0906,-1.1706,-1.3381,-1.4438,-1.4575,-1.612,-1.7235,-1.7712,-1.8757,-1.9576,-2.0138,-2.0684,-2.1181,-2.1521,-2.2241,-2.2466,-2.231,-2.231,-2.231,0.7157,0.7112,0.7023,0.6739,0.0,0.0,0.6521,0.6463,0.6568,0.0,0.0,0.0,0.0,0.0,0.0,0.0,0.0,0.0,0.0,0.0,0.0,0.0,0.0,0.0,0.0,0.9038,0.9108,0.9108,0.9188,0.9258,0.9258,0.957,0.9719,0.9719,1.0098,1.004,0.9518,1.004,1.004,0.9518,0.9518,0.9725,1.0118,0.9159,0.8878,0.9159,0.8275,0.8398,0.9199,0.9244,0.9992,1.1068,1.1223,1.209,1.3156,1.2617,1.2685,1.3062,1.2918,1.2297,1.1511,1.0862,1.0063,0.9273,0.8968,0.8925,0.9302,1.0571,1.1528,1.2109,1.1771,1.1653,1.1316,1.0064,0.9718,0.9249,0.7984,0.7235,0.6637,0.6032,0.5706,0.5597,0.5864,0.5113,0.4787,0.5601,0.3605,0.1725,0.0998,-0.1819,-0.4504,-0.6488,-0.8162,-0.9849,-1.1657,-1.2619,-1.359,-1.4529,-1.5392,-1.6303,-1.7289,-1.7558,-1.8307,-1.9697,-2.0567,-2.1023,-2.1118,-2.1595,-2.1998,-2.231,-2.231,-2.231,0.7116,0.7012,0.6948,0.6713,0.0,0.0,0.0,0.6181,0.6111,0.6484,0.0,0.0,0.0,0.0,0.0,0.0,0.0,0.0,0.0,0.0,0.0,0.0,0.0,0.0,0.0,0.9004,0.8936,0.8721,0.8902,0.8902,0.8721,0.9095,0.9378,0.9592,0.9844,0.9791,0.9518,1.004,1.004,0.9518,0.9755,1.004,1.0283,0.9765,0.9478,0.9439,0.8643,0.8602,0.9079,0.9053,0.9769,1.0945,1.152,1.2342,1.3166,1.2902,1.2962,1.3107,1.2834,1.2449,1.1932,1.0903,1.0243,0.9734,0.9089,0.9065,0.956,1.0708,1.1442,1.1901,1.1978,1.1923,1.1566,1.0517,1.0064,0.9399,0.7984,0.7128,0.6367,0.5651,0.5218,0.5109,0.5433,0.4948,0.4732,0.5378,0.3611,0.1949,0.122,-0.1163,-0.3429,-0.5267,-0.6785,-0.8338,-1.0112,-1.1215,-1.2183,-1.3145,-1.4103,-1.4903,-1.546,-1.6341,-1.7464,-1.8835,-1.9302,-1.9803,-2.0283,-2.0503,-2.107,-2.1974,-2.218,-2.231,0.0,0.0,0.0,0.0,0.0,0.646,0.0,0.0,0.0,0.6055,0.0,0.0,0.0,0.0,0.0,0.0,0.0,0.0,0.0,0.0,0.0,0.0,0.0,0.0,0.0,0.8525,0.8422,0.8164,0.8441,0.8498,0.8164,0.8704,0.916,0.9466,0.9631,0.9658,0.9518,1.004,1.004,0.9518,1.004,1.0283,1.0283,1.0283,1.004,0.9637,0.9079,0.8918,0.8999,0.8878,0.9679,1.1031,1.2006,1.2756,1.3323,1.3232,1.3267,1.3254,1.2791,1.2579,1.2306,1.1052,1.0522,1.0186,0.927,0.9319,0.9858,1.0765,1.1332,1.1724,1.2217,1.2196,1.1823,1.0965,1.0364,0.9547,0.8037,0.7128,0.6367,0.5651,0.4948,0.468,0.5218,0.4838,0.4622,0.4995,0.3445,0.195,0.1222,-0.0834,-0.2726,-0.4039,-0.5508,-0.702,-0.8574,-0.9731,-1.0806,-1.1756,-1.2841,-1.3521,-1.3779,-1.5363,-1.6705,-1.776,-1.788,-1.8377,-1.9317,-1.9513,-2.0268,-2.1491,-2.1957,-2.218,0.0,0.0,0.0,0.0,0.6989,0.0,0.0,0.0,0.5722,0.5898,0.0,0.0,0.0,0.0,0.0,0.0,0.0,0.0,0.0,0.0,0.0,0.0,0.0,0.0,0.0,0.0,0.6911,0.7227,0.7272,0.7291,0.7236,0.8346,0.9023,0.9072,0.9814,0.9992,0.9518,1.004,1.004,0.9518,1.004,1.0283,1.0283,1.0283,1.0283,1.0166,0.9637,0.9677,1.0079,0.9597,1.0011,1.1046,1.1664,1.2684,1.3769,1.3357,1.3459,1.3735,1.3288,1.2838,1.2473,1.2306,1.1641,1.0819,1.0273,1.0157,1.041,1.126,1.1567,1.1802,1.2588,1.2793,1.2461,1.1124,1.0762,1.0151,0.8137,0.7128,0.6367,0.5651,0.4948,0.4515,0.4625,0.457,0.4291,0.3619,0.2785,0.1952,0.1173,-0.0836,-0.2504,-0.3319,-0.4754,-0.6445,-0.8515,-0.8829,-0.9754,-1.1657,-1.1963,-1.255,-1.3768,-1.4948,-1.591,-1.6591,-1.7068,-1.7599,-1.8288,-1.917,-2.0112,-2.1086,-2.1507,-2.1688,0.0,0.0,0.0,0.0,0.0,0.0,0.5932,0.0,0.5451,0.0,0.0,0.0,0.0,0.0,0.0,0.0,0.0,0.0,0.0,0.0,0.0,0.0,0.0,0.0,0.0,0.0,0.0,0.0,0.0,0.6758,0.6737,0.747,0.8242,0.8994,0.9355,0.9664,0.9961,1.0205,1.0205,0.9961,1.0196,1.0283,1.0283,1.0283,1.0283,1.0283,0.9716,0.9804,1.0244,0.9716,1.0089,1.1057,1.1579,1.2461,1.3437,1.3555,1.3735,1.3868,1.3682,1.331,1.2873,1.2579,1.2018,1.1442,1.1217,1.0954,1.087,1.1765,1.1814,1.1812,1.2646,1.2881,1.2569,1.1124,1.0813,1.0364,0.8679,0.7777,0.702,0.6253,0.5546,0.4948,0.457,0.4519,0.4405,0.407,0.2954,0.2063,0.1786,-0.0167,-0.184,-0.2558,-0.3611,-0.4984,-0.6709,-0.7611,-0.8606,-0.9908,-1.114,-1.2404,-1.3721,-1.425,-1.479,-1.5386,-1.5628,-1.6053,-1.6583,-1.7356,-1.8099,-1.8832,-2.0489,-2.1244,0.796,0.0,0.0,0.0,0.0,0.0,0.0,0.0,0.0,0.0,0.0,0.0,0.0,0.0,0.0,0.0,0.0,0.0,0.0,0.0,0.0,0.0,0.0,0.0,0.0,0.0,0.0,0.0,0.0,0.0,0.6493,0.6996,0.7788,0.8975,0.9121,0.9531,1.0273,1.0283,1.0283,1.0283,1.0283,1.0283,1.0283,1.0283,1.0283,1.0283,0.9883,0.9922,1.0283,0.9883,1.0137,1.0867,1.1553,1.2235,1.3004,1.363,1.3967,1.4052,1.4052,1.3769,1.331,1.2836,1.2378,1.1957,1.1847,1.1542,1.1361,1.209,1.2052,1.1979,1.2704,1.2881,1.2569,1.1124,1.0965,1.072,0.9361,0.8514,0.7759,0.7004,0.6136,0.5269,0.4625,0.4519,0.4408,0.4236,0.3065,0.212,0.1898,0.0167,-0.1284,-0.1842,-0.2788,-0.3892,-0.5097,-0.6494,-0.7829,-0.8947,-1.0738,-1.2258,-1.3226,-1.3447,-1.3826,-1.4422,-1.4468,-1.4721,-1.5262,-1.5879,-1.6341,-1.678,-1.9394,-2.0616,0.0,0.0,0.0,0.6758,0.0,0.0,0.0,0.0,0.594,0.0,0.0,0.0,0.0,0.0,0.6385,0.6466,0.0,0.0,0.0,0.0,0.0,0.0,0.0,0.0,0.0,0.0,0.0,0.0,0.0,0.0,0.6466,0.7253,0.8085,0.8975,0.9359,0.9824,1.0312,1.0283,1.0283,1.0283,1.0283,1.0283,1.0283,1.0283,1.0283,1.0283,1.0283,1.0283,1.0283,1.0283,1.0283,1.0428,1.1404,1.2067,1.2519,1.3529,1.4149,1.447,1.447,1.4214,1.3789,1.3243,1.28,1.2401,1.1957,1.1774,1.1863,1.2214,1.2309,1.2354,1.279,1.2881,1.2569,1.1124,1.1316,1.1416,1.0064,0.9169,0.8469,0.7712,0.6445,0.5269,0.4625,0.4519,0.4239,0.3569,0.2732,0.1952,0.1229,-0.0168,-0.1118,-0.1118,-0.2454,-0.3616,-0.4371,-0.5806,-0.754,-0.9658,-1.1065,-1.1814,-1.1864,-1.2559,-1.319,-1.3815,-1.3815,-1.4143,-1.4744,-1.5262,-1.5548,-1.5624,-1.8379,-1.9641,0.0,0.0,0.9014,0.8035,0.0,0.0,0.0,0.0,0.0,0.0,0.0,0.0,0.0,0.0,0.6737,0.6541,0.6733,0.0,0.0,0.0,0.0,0.0,0.0,0.0,0.0,0.0,0.0,0.0,0.615,0.0,0.0,0.7083,0.7687,0.8574,0.8994,0.9424,0.9844,1.0137,1.0283,1.0283,1.0283,1.0283,1.0283,1.0283,1.0283,1.0283,1.0283,1.0283,1.0283,1.0283,1.0283,1.039,1.1404,1.1872,1.2175,1.3729,1.4374,1.4501,1.4501,1.4406,1.4214,1.3762,1.3542,1.3353,1.2861,1.2508,1.2346,1.2655,1.2552,1.2397,1.279,1.2881,1.2666,1.1674,1.1316,1.0914,1.0012,0.9249,0.8567,0.7806,0.6897,0.5982,0.5273,0.4787,0.4236,0.3456,0.2676,0.1952,0.1174,0.0224,-0.056,-0.1062,-0.1563,-0.2341,-0.3558,-0.5483,-0.7326,-0.8954,-0.9946,-1.0864,-1.1765,-1.203,-1.2491,-1.319,-1.319,-1.3286,-1.3525,-1.4086,-1.4378,-1.4424,-1.6095,-1.7464,0.9613,0.9871,0.0,0.9135,0.8822,0.0,0.6848,0.0,0.0,0.0,0.0,0.0,0.0,0.0,0.7162,0.7203,0.7024,0.6778,0.0,0.0,0.0,0.0,0.0,0.0,0.0,0.0,0.6292,0.6292,0.0,0.0,0.0,0.0,0.7509,0.8359,0.8643,0.9053,0.9592,0.9912,1.0127,1.0283,1.0283,1.0283,1.0283,1.0283,1.0283,1.0283,1.0283,1.0283,1.0283,1.0283,1.0283,1.039,1.1404,1.1811,1.2018,1.3663,1.447,1.4752,1.4907,1.4845,1.4658,1.4406,1.4117,1.3835,1.3547,1.3104,1.283,1.3231,1.3137,1.2947,1.3195,1.3238,1.2987,1.2021,1.1674,1.1384,1.0669,0.9961,0.9347,0.8894,0.78,0.6745,0.6023,0.5324,0.4618,0.3846,0.3121,0.2454,0.1952,0.1006,0.0224,-0.0279,-0.0782,-0.1785,-0.3558,-0.5261,-0.6838,-0.8277,-0.9013,-0.9894,-1.1065,-1.1566,-1.203,-1.251,-1.2774,-1.2881,-1.2881,-1.3286,-1.3457,-1.3505,-1.4665,-1.5763]}]]